[[{"header":{"parameterUnit":"m.s-1","parameterCategory":1,"la1":30.6,"la2":28.766,"lo1":-90.7593,"lo2":-88.6598,"dy":0.0162,"dx":0.0183,"nx":116,"ny":114,"refTime":"2023-08-23T06:00:00:Z","depth":0,"parameterNumber":2,"parameterNumberName":"U-component_of_WINDS"},"data":[0.0,0.0,0.0,0.0,0.0,0.0,0.0,0.0,0.0,0.0,0.0,0.0,0.0,0.0,0.0,0.0,0.0,0.0,0.0,0.0,0.0,0.0,0.0,0.0,0.0,0.0,0.0,0.0,0.0,0.0,0.0,0.0,0.0,0.0,0.0,0.0,0.0,0.0,0.0,0.0,0.0,0.0,0.0,0.0,0.0,0.0,0.0,0.0,0.0,0.0,0.0,0.0,0.0,0.0,0.0,0.0,0.0,0.0,0.0,0.0,0.0,0.0,0.0,0.0,0.0,0.0,0.0,0.0,0.0,0.0,0.0,0.0,0.0,0.0,0.0,0.0,0.0,0.0,0.0,0.0,0.0,0.0,0.0,0.0,0.0,0.0,0.0,0.0,0.0,0.0,0.0,0.0,0.0,0.0,0.0,0.0,0.0,0.0,0.0,0.0,0.0,0.0,0.0,0.0,0.0,0.0,0.0,0.0,0.0,0.0,0.0,0.0,0.0,0.0,0.0,0.0,0.0,0.0,0.0,0.0,0.0,0.0,0.0,0.0,0.0,0.0,0.0,0.0,0.0,0.0,0.0,0.0,0.0,0.0,0.0,0.0,0.0,0.0,0.0,0.0,0.0,0.0,0.0,0.0,0.0,0.0,0.0,0.0,0.0,0.0,0.0,0.0,0.0,0.0,0.0,0.0,0.0,0.0,0.0,0.0,0.0,0.0,0.0,0.0,0.0,0.0,0.0,0.0,0.0,0.0,0.0,0.0,0.0,0.0,0.0,0.0,0.0,0.0,0.0,0.0,0.0,0.0,0.0,0.0,0.0,0.0,0.0,0.0,0.0,0.0,0.0,0.0,0.0,0.0,0.0,0.0,0.0,0.0,0.0,0.0,0.0,0.0,0.0,0.0,0.0,0.0,0.0,0.0,0.0,0.0,0.0,0.0,0.0,0.0,0.0,0.0,0.0,0.0,0.0,0.0,0.0,0.0,0.0,0.0,0.0,0.0,0.0,0.0,0.0,0.0,0.0,0.0,0.0,0.0,0.0,0.0,0.0,0.0,0.0,0.0,0.0,0.0,0.0,0.0,0.0,0.0,0.0,0.0,0.0,0.0,0.0,0.0,0.0,0.0,0.0,0.0,0.0,0.0,0.0,0.0,0.0,0.0,0.0,0.0,0.0,0.0,0.0,0.0,0.0,0.0,0.0,0.0,0.0,0.0,0.0,0.0,0.0,0.0,0.0,0.0,0.0,0.0,0.0,0.0,0.0,0.0,0.0,0.0,0.0,0.0,0.0,0.0,0.0,0.0,0.0,0.0,0.0,0.0,0.0,0.0,0.0,0.0,0.0,0.0,0.0,0.0,0.0,0.0,0.0,0.0,0.0,0.0,0.0,0.0,0.0,0.0,0.0,0.0,0.0,0.0,0.0,0.0,0.0,0.0,0.0,0.0,0.0,0.0,0.0,0.0,0.0,0.0,0.0,0.0,0.0,0.0,0.0,0.0,0.0,0.0,0.0,0.0,0.0,0.0,0.0,0.0,0.0,0.0,0.0,0.0,0.0,0.0,0.0,0.0,0.0,0.0,0.0,0.0,0.0,0.0,0.0,0.0,0.0,0.0,0.0,0.0,0.0,0.0,0.0,0.0,0.0,0.0,0.0,0.0,0.0,0.0,0.0,0.0,0.0,0.0,0.0,0.0,0.0,0.0,0.0,0.0,0.0,0.0,0.0,0.0,0.0,0.0,0.0,0.0,0.0,0.0,0.0,0.0,0.0,0.0,0.0,0.0,0.0,0.0,0.0,0.0,0.0,0.0,0.0,0.0,0.0,0.0,0.0,0.0,0.0,0.0,0.0,0.0,0.0,0.0,0.0,0.0,0.0,0.0,0.0,0.0,0.0,0.0,0.0,0.0,0.0,0.0,0.0,0.0,0.0,0.0,0.0,0.0,0.0,0.0,0.0,0.0,0.0,0.0,0.0,0.0,0.0,0.0,0.0,0.0,0.0,0.0,0.0,0.0,0.0,0.0,0.0,0.0,0.0,0.0,0.0,0.0,0.0,0.0,0.0,0.0,0.0,0.0,0.0,0.0,0.0,0.0,0.0,0.0,0.0,0.0,0.0,0.0,0.0,0.0,0.0,0.0,0.0,0.0,0.0,0.0,0.0,0.0,0.0,0.0,0.0,0.0,0.0,0.0,0.0,0.0,0.0,0.0,0.0,0.0,0.0,0.0,0.0,0.0,0.0,0.0,0.0,0.0,0.0,0.0,0.0,0.0,0.0,0.0,0.0,0.0,0.0,0.0,0.0,0.0,0.0,0.0,0.0,0.0,0.0,0.0,0.0,0.0,0.0,0.0,0.0,0.0,0.0,0.0,0.0,0.0,0.0,0.0,0.0,0.0,0.0,0.0,0.0,0.0,0.0,0.0,0.0,0.0,0.0,0.0,0.0,0.0,0.0,0.0,0.0,0.0,0.0,0.0,0.0,0.0,0.0,0.0,0.0,0.0,0.0,0.0,0.0,0.0,0.0,0.0,0.0,0.0,0.0,0.0,0.0,0.0,0.0,0.0,0.0,0.0,0.0,0.0,0.0,0.0,0.0,0.0,0.0,0.0,0.0,0.0,0.0,0.0,0.0,0.0,0.0,0.0,0.0,0.0,0.0,0.0,0.0,0.0,0.0,0.0,0.0,0.0,0.0,0.0,0.0,0.0,0.0,0.0,0.0,0.0,0.0,0.0,0.0,0.0,0.0,0.0,0.0,0.0,0.0,0.0,0.0,0.0,0.0,0.0,0.0,0.0,0.0,0.0,0.0,0.0,0.0,0.0,0.0,0.0,0.0,0.0,0.0,0.0,0.0,0.0,0.0,0.0,0.0,0.0,0.0,0.0,0.0,0.0,0.0,0.0,0.0,0.0,0.0,0.0,0.0,0.0,0.0,0.0,0.0,0.0,0.0,0.0,0.0,0.0,0.0,0.0,0.0,0.0,0.0,0.0,0.0,0.0,0.0,0.0,0.0,0.0,0.0,0.0,0.0,0.0,0.0,0.0,0.0,0.0,0.0,0.0,0.0,0.0,0.0,0.0,0.0,0.0,0.0,0.0,0.0,0.0,0.0,0.0,0.0,0.0,0.0,0.0,0.0,0.0,0.0,0.0,0.0,0.0,0.0,0.0,0.0,0.0,0.0,0.0,0.0,0.0,0.0,0.0,0.0,0.0,0.0,0.0,0.0,0.0,0.0,0.0,0.0,0.0,0.0,0.0,0.0,0.0,0.0,0.0,0.0,0.0,0.0,0.0,0.0,0.0,0.0,0.0,0.0,0.0,0.0,0.0,0.0,0.0,0.0,0.0,0.0,0.0,0.0,0.0,0.0,0.0,0.0,0.0,0.0,0.0,0.0,0.0,0.0,0.0,0.0,0.0,0.0,0.0,0.0,0.0,0.0,0.0,0.0,0.0,0.0,0.0,0.0,0.0,0.0,0.0,0.0,0.0,0.0,0.0,0.0,0.0,0.0,0.0,0.0,0.0,0.0,0.0,0.0,0.0,0.0,0.0,0.0,0.0,0.0,0.0,0.0,0.0,0.0,0.0,0.0,0.0,0.0,0.0,0.0,0.0,0.0,0.0,0.0,0.0,0.0,0.0,0.0,0.0,0.0,0.0,0.0,0.0,0.0,0.0,0.0,0.0,0.0,0.0,0.0,0.0,0.0,0.0,0.0,0.0,0.0,0.0,0.0,0.0,0.0,0.0,0.0,0.0,0.0,0.0,0.0,0.0,0.0,0.0,0.0,0.0,0.0,0.0,0.0,0.0,0.0,0.0,0.0,0.0,0.0,0.0,0.0,0.0,0.0,0.0,0.0,0.0,0.0,0.0,0.0,0.0,0.0,0.0,0.0,0.0,0.0,0.0,0.0,0.0,0.0,0.0,0.0,0.0,0.0,0.0,0.0,0.0,0.0,0.0,0.0,0.0,0.0,0.0,0.0,0.0,0.0,0.0,0.0,0.0,0.0,0.0,0.0,0.0,0.0,0.0,0.0,0.0,0.0,0.0,0.0,0.0,0.0,0.0,0.0,0.0,0.0,0.0,0.0,0.0,0.0,0.0,0.0,0.0,0.0,0.0,0.0,0.0,0.0,0.0,0.0,0.0,0.0,0.0,0.0,0.0,0.0,0.0,0.0,0.0,0.0,0.0,0.0,0.0,0.0,0.0,0.0,0.0,0.0,0.0,0.0,0.0,0.0,0.0,0.0,0.0,0.0,0.0,0.0,0.0,0.0,0.0,0.0,0.0,0.0,0.0,0.0,0.0,0.0,0.0,0.0,0.0,0.0,0.0,0.0,0.0,0.0,0.0,0.0,0.0,0.0,0.0,0.0,0.0,0.0,0.0,0.0,0.0,0.0,0.0,0.0,0.0,0.0,0.0,0.0,0.0,0.0,0.0,0.0,0.0,0.0,0.0,0.0,0.0,0.0,0.0,0.0,0.0,0.0,0.0,0.0,0.0,0.0,0.0,0.0,0.0,0.0,0.0,0.0,0.0,0.0,0.0,0.0,0.0,0.0,0.0,0.0,0.0,0.0,0.0,0.0,0.0,0.0,0.0,0.0,0.0,0.0,0.0,0.0,0.0,0.0,0.0,0.0,0.0,0.0,0.0,0.0,0.0,0.0,0.0,0.0,0.0,0.0,0.0,0.0,0.0,0.0,0.0,0.0,0.0,0.0,0.0,0.0,0.0,0.0,0.0,0.0,0.0,0.0,0.0,0.0,0.0,0.0,0.0,0.0,0.0,0.0,0.0,0.0,0.0,0.0,0.0,0.0,0.0,0.0,0.0,0.0,0.0,0.0,0.0,0.0,0.0,0.0,0.0,0.0,0.0,0.0,0.0,0.0,0.0,0.0,0.0,0.0,0.0,0.0,0.0,0.0,0.0,0.0,0.0,0.0,0.0,0.0,0.0,0.0,0.0,0.0,0.0,0.0,0.0,0.0,0.0,0.0,0.0,0.0,0.0,0.0,0.0,0.0,0.0,0.0,0.0,0.0,0.0,0.0,0.0,0.0,0.0,0.0,0.0,0.0,0.0,0.0,0.0,0.0,0.0,0.0,0.0,0.0,0.0,0.0,0.0,0.0,0.0,0.0,0.0,0.0,0.0,0.0,0.0,0.0,0.0,0.0,0.0,0.0,0.0,0.0,0.0,0.0,0.0,0.0,0.0,0.0,0.0,0.0,0.0,0.0,0.0,0.0,0.0,0.0,0.0,0.0,0.0,0.0,0.0,0.0,0.0,0.0,0.0,0.0,0.0,0.0,0.0,0.0,0.0,0.0,0.0,0.0,0.0,0.0,0.0,0.0,0.0,0.0,0.0,0.0,0.0,0.0,0.0,0.0,0.0,0.0,0.0,0.0,0.0,0.0,0.0,0.0,0.0,0.0,0.0,0.0,0.0,0.0,0.0,0.0,0.0,0.0,0.0,0.0,0.0,0.0,0.0,0.0,0.0,0.0,0.0,0.0,0.0,0.0,0.0,0.0,0.0,0.0,0.0,0.0,0.0,0.0,0.0,0.0,0.0,0.0,0.0,0.0,0.0,0.0,0.0,0.0,0.0,0.0,0.0,0.0,0.0,0.0,0.0,0.0,0.0,0.0,0.0,0.0,0.0,0.0,0.0,0.0,0.0,0.0,0.0,0.0,0.0,0.0,0.0,0.0,0.0,0.0,0.0,0.0,0.0,0.0,0.0,0.0,0.0,0.0,0.0,0.0,0.0,0.0,0.0,0.0,0.0,0.0,0.0,0.0,0.0,0.0,0.0,0.0,0.0,0.0,0.0,0.0,0.0,0.0,0.0,0.0,0.0,0.0,0.0,0.0,0.0,0.0,0.0,0.0,0.0,0.0,0.0,0.0,0.0,0.0,0.0,0.0,0.0,0.0,0.0,0.0,0.0,0.0,0.0,0.0,0.0,0.0,0.0,0.0,0.0,0.0,0.0,0.0,0.0,0.0,0.0,0.0,0.0,0.0,0.0,0.0,0.0,0.0,0.0,0.0,0.0,0.0,0.0,0.0,0.0,0.0,0.0,0.0,0.0,0.0,0.0,0.0,0.0,0.0,0.0,0.0,0.0,0.0,0.0,-4.5602,0.0,0.0,0.0,0.0,0.0,0.0,0.0,0.0,0.0,0.0,0.0,0.0,0.0,0.0,0.0,0.0,0.0,0.0,0.0,0.0,0.0,0.0,0.0,0.0,0.0,0.0,0.0,0.0,0.0,0.0,0.0,0.0,0.0,0.0,0.0,0.0,0.0,0.0,-3.0182,-3.1938,-3.3562,-3.5055,-3.5784,-3.5855,-3.5343,0.0,0.0,0.0,0.0,0.0,0.0,0.0,0.0,0.0,0.0,0.0,0.0,0.0,0.0,0.0,0.0,0.0,0.0,0.0,0.0,0.0,0.0,0.0,0.0,0.0,0.0,0.0,0.0,0.0,0.0,0.0,0.0,0.0,0.0,0.0,0.0,0.0,0.0,0.0,0.0,0.0,0.0,0.0,0.0,0.0,0.0,0.0,0.0,0.0,0.0,0.0,0.0,0.0,0.0,0.0,0.0,0.0,0.0,0.0,0.0,0.0,0.0,0.0,0.0,0.0,0.0,0.0,0.0,0.0,0.0,0.0,-4.7311,0.0,0.0,0.0,0.0,0.0,0.0,0.0,0.0,0.0,0.0,0.0,0.0,0.0,0.0,0.0,0.0,0.0,0.0,0.0,0.0,0.0,0.0,0.0,0.0,-3.1257,-3.2633,-3.2647,-3.2535,0.0,0.0,0.0,0.0,0.0,0.0,-2.9207,-2.9841,-3.0733,-3.1965,-3.3449,-3.5819,-3.9031,-3.91,-3.7979,-3.5839,-3.5992,0.0,0.0,0.0,0.0,0.0,0.0,0.0,0.0,0.0,0.0,0.0,0.0,0.0,0.0,0.0,0.0,0.0,0.0,0.0,0.0,0.0,0.0,0.0,0.0,0.0,0.0,0.0,0.0,0.0,0.0,0.0,0.0,0.0,0.0,0.0,0.0,0.0,0.0,0.0,0.0,0.0,0.0,0.0,0.0,0.0,0.0,0.0,0.0,0.0,0.0,0.0,0.0,0.0,0.0,0.0,0.0,0.0,0.0,0.0,0.0,0.0,0.0,0.0,-5.4463,-5.5001,-5.5633,-5.4964,-5.502,-5.554,-5.3385,-5.2215,-5.1639,0.0,0.0,0.0,0.0,0.0,0.0,0.0,0.0,0.0,0.0,0.0,0.0,0.0,0.0,0.0,0.0,0.0,0.0,0.0,0.0,0.0,0.0,-2.6613,-2.8328,-3.0342,-3.0059,-3.0487,0.0,0.0,0.0,0.0,0.0,0.0,-2.974,-3.0635,-3.1392,-3.1894,-3.4289,-3.644,-3.8332,-3.8751,-3.8575,-3.788,-3.7283,-3.7293,-3.7632,0.0,0.0,0.0,0.0,0.0,0.0,0.0,0.0,0.0,0.0,0.0,0.0,0.0,0.0,0.0,0.0,0.0,0.0,0.0,0.0,0.0,0.0,0.0,0.0,0.0,0.0,0.0,0.0,0.0,0.0,0.0,0.0,0.0,0.0,0.0,0.0,0.0,0.0,0.0,0.0,0.0,-3.8788,-4.1569,0.0,0.0,0.0,0.0,0.0,0.0,0.0,0.0,0.0,0.0,0.0,0.0,0.0,0.0,-5.1526,-5.3244,-5.4332,-5.4871,-5.7026,-5.8122,-5.8215,-5.8103,-5.8122,-5.8159,-5.7138,0.0,-5.3348,-5.1621,0.0,0.0,0.0,0.0,0.0,0.0,0.0,0.0,0.0,0.0,0.0,0.0,0.0,0.0,0.0,0.0,0.0,0.0,0.0,0.0,0.0,-2.7913,-2.9917,-3.0557,-3.0936,-3.1294,-3.1572,-3.0913,0.0,0.0,0.0,-2.9665,-2.9086,-2.989,-3.1007,-3.2518,-3.6367,-3.8432,-3.8845,-3.9731,-3.9836,-3.9274,-3.824,-3.7725,-3.7577,-3.6739,0.0,0.0,0.0,0.0,0.0,0.0,0.0,0.0,0.0,0.0,0.0,0.0,0.0,0.0,0.0,0.0,0.0,0.0,0.0,0.0,0.0,0.0,0.0,0.0,0.0,0.0,0.0,0.0,0.0,0.0,0.0,0.0,0.0,0.0,0.0,0.0,0.0,0.0,0.0,-3.7813,-4.08,-4.1114,-4.2499,-4.2731,0.0,0.0,0.0,0.0,0.0,0.0,0.0,0.0,0.0,-5.1472,-5.1697,-5.2641,-5.4444,-5.5838,-5.7193,-5.8512,-5.9589,-6.0351,-6.076,-6.0314,-5.985,-5.9311,-5.8048,-5.6878,-5.5726,-5.3608,-5.1584,-4.9615,0.0,0.0,0.0,0.0,0.0,-4.7516,0.0,0.0,0.0,0.0,0.0,0.0,0.0,0.0,0.0,0.0,0.0,0.0,-2.5088,-2.7893,-2.9978,-3.0588,-3.1185,-3.1255,-3.0701,-3.0032,-2.9486,-2.9132,-2.9047,-2.8756,-2.826,-2.9421,-3.1191,-3.3502,-3.7219,-3.8887,-3.871,-3.9503,-3.9613,-3.9113,-3.8186,-3.7777,-3.7688,-3.7438,-3.6027,-3.3928,0.0,0.0,0.0,0.0,0.0,0.0,0.0,0.0,0.0,0.0,0.0,0.0,0.0,0.0,0.0,0.0,0.0,0.0,0.0,0.0,0.0,0.0,0.0,0.0,0.0,0.0,0.0,0.0,0.0,0.0,0.0,0.0,0.0,0.0,0.0,0.0,0.0,-4.051,-4.2802,-4.1492,-4.4675,-4.5535,0.0,0.0,0.0,0.0,0.0,0.0,-4.9507,-4.9508,-5.0533,-5.2882,-5.3627,-5.4845,-5.6604,-5.7243,-5.8377,-5.9941,-5.9941,-6.0211,-6.071,-6.0117,-5.9486,-5.88,-5.739,-5.6817,-5.6689,-5.4629,-5.2977,-5.1602,-5.0525,-4.9615,-4.8927,-4.9132,-4.9206,-4.943,0.0,0.0,0.0,0.0,0.0,0.0,0.0,0.0,0.0,0.0,0.0,-2.1426,-2.3569,-2.3996,-2.5613,-2.9431,-2.8814,-2.8686,-2.9694,-2.9619,-2.8908,-2.7579,-2.7949,-2.7983,-2.757,-3.0215,-3.2673,-3.4886,-3.5548,-3.6258,-3.7008,-3.678,-3.6592,-3.6509,-3.6606,-3.7566,-3.9022,-3.8073,-3.6839,-3.5419,-3.4452,0.0,0.0,0.0,0.0,0.0,0.0,0.0,0.0,0.0,0.0,0.0,0.0,0.0,0.0,0.0,0.0,0.0,0.0,0.0,0.0,0.0,0.0,0.0,0.0,0.0,0.0,0.0,0.0,0.0,0.0,0.0,0.0,0.0,0.0,0.0,0.0,0.0,0.0,-4.5472,-4.855,0.0,0.0,0.0,0.0,-4.6726,-4.7718,-4.9328,-5.1625,-5.1101,-5.2446,-5.6252,-5.4998,-5.521,-5.7142,-5.6469,-5.6239,-5.6559,-5.6559,-5.6424,-5.6238,-5.6201,-5.6124,-5.6032,-5.52,-5.4911,-5.4954,-5.4146,-5.3311,-5.2382,-5.0748,-4.9615,-4.9002,-4.9763,-5.0042,-5.0283,0.0,0.0,0.0,0.0,0.0,0.0,0.0,0.0,-1.865,-1.8792,-2.0017,-2.1124,-2.1828,-2.3484,-2.4933,-2.5928,-2.6459,-2.6616,-2.6364,-2.6615,-2.6578,-2.6057,-2.6442,-2.6966,-2.7606,-2.9162,-3.058,-3.1855,-3.3466,-3.4176,-3.4066,-3.4752,-3.4914,-3.4617,-3.4696,-3.5166,-3.5913,-3.6796,-3.6844,-3.6132,-3.4816,-3.3351,0.0,0.0,0.0,0.0,0.0,0.0,0.0,0.0,0.0,0.0,0.0,0.0,0.0,0.0,0.0,0.0,0.0,0.0,0.0,0.0,0.0,0.0,0.0,0.0,0.0,0.0,0.0,0.0,0.0,0.0,0.0,0.0,0.0,0.0,0.0,0.0,0.0,-4.6947,-5.0059,0.0,-4.83,-4.856,-4.91,-4.9584,-5.0567,-5.1888,-5.3489,-5.3247,-5.3585,-5.4755,-5.4472,-5.4536,-5.5025,-5.4723,-5.4739,-5.5021,-5.5351,-5.5496,-5.5401,-5.5739,-5.5625,-5.509,-5.4275,-5.3649,-5.3171,-5.2397,-5.2547,-5.3289,-5.3215,-5.2639,-5.1823,-5.1601,-5.1527,-5.1546,0.0,0.0,0.0,0.0,0.0,0.0,0.0,0.0,-1.7783,-1.8017,-1.9136,-2.0185,-2.0989,-2.2442,-2.3449,-2.3659,-2.4252,-2.4176,-2.3204,-2.3671,-2.3897,-2.3754,-2.4477,-2.5516,-2.6794,-2.7446,-2.8076,-2.8754,-3.02,-3.0819,-3.0671,-3.1434,-3.1889,-3.2071,-3.2148,-3.2418,-3.2879,-3.4211,-3.506,-3.5462,-3.4559,-3.358,-3.2493,0.0,0.0,0.0,0.0,0.0,0.0,0.0,0.0,0.0,0.0,0.0,0.0,0.0,0.0,0.0,0.0,0.0,0.0,0.0,0.0,0.0,0.0,0.0,0.0,0.0,0.0,0.0,0.0,0.0,0.0,0.0,0.0,0.0,0.0,0.0,-4.9244,-4.7933,-5.1274,-5.2589,-4.9747,-5.0634,-5.1524,-5.1856,-5.2762,-5.3658,-5.446,-5.417,-5.3885,-5.3675,-5.3624,-5.3468,-5.3263,-5.3263,-5.321,-5.3123,-5.3493,-5.3466,-5.3171,-5.3676,-5.3634,-5.3101,-5.2729,-5.2294,-5.178,-5.0949,-5.1302,-5.2431,-5.3303,-5.3246,-5.2596,-5.1801,-5.1486,-5.1283,0.0,0.0,0.0,0.0,0.0,0.0,0.0,-1.5894,-1.6296,-1.7026,-1.7325,-1.8475,-2.0961,-2.0518,-2.081,-2.2756,-2.2193,-2.1321,-2.0471,-2.0928,-2.1063,-2.0694,-2.2087,-2.3538,-2.5009,-2.5178,-2.5476,-2.6002,-2.5814,-2.6127,-2.6878,-2.6815,-2.7455,-2.8755,-2.8915,-2.95,-3.0341,-3.0341,-3.1506,-3.3366,-3.3602,-3.3027,-3.1985,0.0,0.0,0.0,0.0,0.0,0.0,0.0,0.0,0.0,0.0,0.0,0.0,0.0,0.0,0.0,0.0,0.0,0.0,0.0,0.0,0.0,0.0,0.0,0.0,0.0,0.0,0.0,0.0,0.0,0.0,0.0,0.0,0.0,-4.3167,-4.6787,-4.9212,-4.8691,-5.2413,-5.3961,-5.1162,-5.2889,-5.3962,-5.3429,-5.4032,-5.4428,-5.4411,-5.3753,-5.3356,-5.3339,-5.2563,-5.2101,-5.2084,-5.205,-5.1616,-5.0706,-5.0706,-5.0214,-4.9293,-4.9762,-4.9967,-4.997,-5.0488,-5.0714,-5.0664,-4.9873,-4.9542,-4.9616,-5.0617,-5.1007,-5.0914,-5.0083,-4.9751,-4.9344,0.0,0.0,0.0,0.0,0.0,0.0,0.0,-1.4645,-1.5075,-1.5307,-1.6602,-1.7616,-1.797,-1.8527,-1.8919,-1.9105,-1.9409,-1.9365,-1.8737,-1.9374,-2.0012,-2.0595,-2.1619,-2.2699,-2.3829,-2.3861,-2.3928,-2.4086,-2.3996,-2.4089,-2.4314,-2.4012,-2.4263,-2.5057,-2.4808,-2.5494,-2.6794,-2.6794,-2.8059,-3.0117,-3.1281,-3.1874,-3.1916,0.0,0.0,0.0,0.0,0.0,0.0,0.0,0.0,0.0,0.0,0.0,0.0,0.0,0.0,0.0,0.0,0.0,0.0,0.0,0.0,0.0,0.0,0.0,0.0,0.0,0.0,0.0,0.0,0.0,0.0,0.0,0.0,-4.4409,-4.5495,-4.7945,-5.0018,-5.1124,-5.2776,-5.3588,-5.3094,-5.3665,-5.377,-5.3083,-5.3312,-5.3238,-5.2705,-5.2605,-5.2287,-5.1752,-5.1011,-5.0338,-4.974,-4.9189,-4.8819,-4.857,-4.8951,-4.8993,-4.8748,-4.927,-4.9159,-4.8545,-4.8446,-4.785,-4.6866,-4.6522,-4.6096,-4.5956,-4.8302,-4.9158,-4.8898,-4.7518,-4.6232,-4.5002,0.0,0.0,0.0,0.0,0.0,0.0,0.0,-1.3593,-1.3928,-1.4093,-1.5076,-1.5749,-1.5689,-1.6124,-1.6517,-1.6684,-1.6986,-1.7216,-1.7283,-1.8033,-1.8883,-1.9764,-2.0303,-2.0924,-2.1666,-2.1332,-2.1144,-2.1158,-2.0891,-2.1063,-2.1538,-2.1021,-2.1379,-2.2401,-2.2046,-2.2521,-2.3614,-2.3781,-2.4987,-2.683,-2.792,-2.96,-3.1393,-3.1055,-3.074,-3.0672,-3.1592,-3.1787,-3.1687,-3.2178,0.0,0.0,0.0,0.0,0.0,0.0,0.0,0.0,0.0,0.0,0.0,0.0,0.0,0.0,0.0,0.0,0.0,0.0,0.0,0.0,0.0,0.0,0.0,0.0,-4.2697,-4.5228,-4.7308,-4.8541,-4.976,-5.1167,-5.1677,-5.2183,-5.2811,-5.2926,-5.2803,-5.246,-5.2518,-5.2375,-5.1946,-5.1665,-5.118,-5.0442,-4.9703,-4.8947,-4.8186,-4.7756,-4.7378,-4.7034,-4.7044,-4.6856,-4.6569,-4.6783,-4.6578,0.0,-4.611,-4.565,-4.4831,-4.4067,-4.3539,0.0,0.0,0.0,0.0,0.0,-4.3431,-4.2207,0.0,0.0,0.0,0.0,0.0,0.0,0.0,-1.2718,-1.2882,-1.3177,-1.3316,-1.3587,-1.4074,-1.382,-1.4059,-1.5075,-1.4852,-1.5021,-1.5893,-1.6689,-1.7454,-1.8178,-1.8186,-1.8365,-1.876,-1.8062,-1.769,-1.7679,-1.7232,-1.7559,-1.8598,-1.8105,-1.8692,-2.0215,-1.9912,-2.0178,-2.0836,-2.1221,-2.2292,-2.3793,-2.425,-2.6808,-3.0385,-3.084,-3.104,-3.1167,-3.2024,-3.2331,-3.2444,-3.3234,0.0,0.0,0.0,0.0,0.0,0.0,0.0,0.0,0.0,0.0,0.0,0.0,0.0,0.0,0.0,0.0,0.0,0.0,0.0,0.0,0.0,0.0,0.0,0.0,-4.3187,-4.5348,-4.8087,-4.826,-4.8511,-4.9654,-4.9742,-5.0057,-5.0995,-5.1223,-5.1397,-5.1469,-5.1506,-5.1452,-5.1398,0.0,0.0,0.0,0.0,-4.7791,-4.7067,-4.6965,-4.6509,-4.5723,-4.5073,-4.4424,-4.3757,-4.3514,-4.3378,-4.3273,-4.3668,-4.3744,-4.3504,-4.2104,-4.151,-4.1552,-4.2889,-4.328,-4.299,-4.2014,-4.1157,0.0,0.0,0.0,0.0,0.0,0.0,0.0,0.0,-1.1515,-1.1979,-1.2031,-1.2822,-1.3349,-1.3209,-1.3205,-1.3186,-1.3078,-1.2998,-1.3208,-1.3747,-1.4414,-1.4871,-1.5157,-1.5157,-1.5228,-1.5434,-1.4988,-1.4661,-1.4482,-1.4907,-1.5299,-1.5627,-1.573,-1.6132,-1.6751,-1.6702,-1.7545,-1.9028,-1.9357,-2.0545,-2.2178,-2.2719,-2.4968,-2.813,-2.9038,-2.9429,-2.9679,-3.0807,-3.1258,-3.1305,-3.1487,-3.1583,-3.1532,-3.1093,-3.1362,0.0,0.0,0.0,0.0,0.0,0.0,0.0,0.0,0.0,0.0,0.0,0.0,0.0,0.0,0.0,0.0,0.0,0.0,0.0,-4.1567,-4.3338,-4.4693,-4.5289,-4.5111,-4.5816,-4.8343,-4.823,-4.8121,-4.8504,-4.9646,-5.0141,-4.9592,-4.9634,-4.943,-4.8848,-4.8263,0.0,-4.7734,-4.6954,-4.6202,-4.5449,-4.4851,-4.4185,-4.3423,0.0,0.0,-4.3022,-4.2954,-4.2526,-4.18,-4.1682,-4.1029,-3.9959,-3.9574,-3.9025,-3.8562,-3.9901,-4.0012,-3.9444,-3.9535,-3.9031,-3.8329,0.0,0.0,0.0,0.0,0.0,0.0,0.0,-1.0288,-1.0812,-1.0812,-1.1211,-1.1489,-1.1394,-1.1327,-1.1436,-1.1706,-1.2317,-1.2866,-1.3271,-1.3701,-1.3999,-1.4151,-1.3853,-1.3663,-1.3615,-1.3208,-1.2953,-1.2846,-1.3036,-1.3204,-1.3452,-1.3209,-1.3533,-1.4302,-1.4419,-1.5274,-1.6767,-1.7606,-1.8825,-2.0267,-2.0924,-2.2577,-2.4887,-2.6874,-2.7989,-2.8721,-3.0267,-3.0882,-3.0992,-3.1396,-3.1746,-3.1896,-3.137,-3.163,-3.1952,0.0,0.0,0.0,0.0,0.0,0.0,0.0,0.0,0.0,0.0,0.0,0.0,0.0,0.0,-3.6252,0.0,0.0,-4.0101,-4.1279,-4.2441,-4.3307,-4.3713,-4.3304,-4.3648,-4.5434,-4.5133,-4.5049,-4.5882,-4.6326,-4.6763,-4.707,-4.6946,-4.683,-4.679,-4.6653,-4.6309,-4.5812,-4.5422,-4.4648,-4.3447,-4.3075,-4.2746,-4.2443,-4.2018,-4.1645,-4.1367,-4.1273,-4.0789,-3.9995,-3.9863,-3.9416,-3.8731,-3.7942,-3.7138,-3.6529,-3.7189,-3.753,-3.7658,-3.787,-3.7677,-3.732,0.0,0.0,0.0,0.0,0.0,0.0,0.0,-0.8888,-0.9288,-0.9296,-0.9116,-0.9078,-0.9265,-0.9136,-0.9384,-1.0299,-1.1283,-1.207,-1.2554,-1.2733,-1.2902,-1.3147,-1.2567,-1.2134,-1.1821,-1.145,-1.1269,-1.1243,-1.1114,-1.1246,-1.1661,-1.1203,-1.1561,-1.2605,-1.2836,-1.3631,-1.4836,-1.6018,-1.7209,-1.8385,-1.9199,-2.0286,-2.171,-2.4405,-2.6214,-2.7545,-2.9229,-3.0022,-3.0367,-3.1148,-3.1716,-3.2012,-3.1619,-3.1757,-3.1921,-3.0894,-3.0522,0.0,0.0,0.0,0.0,0.0,0.0,0.0,0.0,-3.3801,-3.4151,-3.5786,-3.6496,-3.7173,-3.8243,-3.8939,-3.9668,-4.0635,-4.1233,-4.1732,-4.221,-4.1769,-4.1653,-4.2181,-4.2077,-4.2389,-4.3562,-4.3348,-4.3576,-4.4721,-4.4454,-4.4448,-4.4995,-4.4939,-4.4495,-4.3673,-4.3518,-4.2817,-4.1499,-4.1482,-4.1542,-4.1624,-4.0769,-4.0115,-3.9631,-3.9403,-3.8966,-3.8372,-3.8238,-3.8087,-3.7869,-3.6688,-3.585,-3.5291,-3.5291,-3.5832,-3.66,-3.6681,-3.6721,-3.6704,0.0,0.0,0.0,0.0,0.0,0.0,0.0,0.0,-0.7086,-0.7126,-0.7024,-0.6949,-0.7061,-0.7178,-0.7528,-0.8113,-0.8194,-0.8656,-0.9696,-0.9377,-0.9452,-1.0063,-0.9571,-0.9067,-0.8609,-0.8393,-0.8255,-0.8184,-0.8743,-0.9403,-1.0147,-1.0673,-1.1228,-1.1826,-1.2235,-1.3078,-1.4321,-1.4835,-1.5779,-1.7001,-1.7805,-1.88,-1.9934,-2.1476,-2.3366,-2.5311,-2.6066,-2.7205,-2.8382,-2.8923,-2.9129,-2.9258,-2.9839,-3.0043,-2.9887,-2.9095,-2.8709,-2.8312,-2.7438,-2.7714,-2.8756,-3.0917,-3.1694,-3.2875,0.0,0.0,-3.6896,-3.8116,-3.8418,-3.8476,-3.8626,-3.915,-3.9616,-3.9729,-4.0061,-4.0137,-3.971,-3.95,-3.9431,-3.9512,-4.0837,-4.1888,-4.2186,-4.2741,-4.3157,-4.3325,-4.3282,-4.3297,-4.3363,-4.2189,-4.148,-4.1381,-4.0797,-4.0339,-4.0031,-4.0015,-4.0012,-3.9964,-3.9218,-3.8807,-3.8732,-3.8062,-3.771,-3.7585,-3.6939,-3.6269,-3.5659,-3.5475,-3.5358,-3.5291,-3.5291,-3.5367,-3.5509,-3.5864,-3.5998,-3.6062,0.0,0.0,0.0,0.0,0.0,0.0,0.0,0.0,0.0,-0.6793,-0.6645,-0.6566,-0.6593,-0.649,-0.6536,-0.6771,-0.7023,-0.7379,-0.7975,-0.7995,-0.8051,-0.8187,-0.7756,-0.7388,-0.7054,-0.6907,-0.6812,-0.6773,-0.7455,-0.7942,-0.828,-0.9039,-0.9581,-0.9927,-1.0544,-1.1505,-1.2668,-1.3789,-1.4845,-1.5853,-1.7024,-1.7744,-1.8272,-1.9271,-2.0682,-2.2413,-2.4179,-2.5214,0.0,-2.6468,-2.6824,-2.718,-2.777,-2.7761,-2.7455,-2.7116,-2.6776,-2.6506,-2.6719,-2.7533,-2.8591,-2.9475,-3.0657,-3.2074,-3.3789,-3.4674,-3.5575,-3.7061,-3.7846,-3.8403,-3.8713,-3.8971,-3.9036,0.0,-3.8499,-3.8239,-3.7792,-3.7425,-3.7482,-3.8069,-3.8806,-3.9711,-4.0957,-4.0299,-4.0268,-4.1422,-4.0558,-4.0302,-4.1075,-4.0308,-3.977,-3.9681,-3.8992,-3.8392,-3.7817,-3.7428,-3.7268,-3.7302,-3.6918,-3.656,-3.6248,-3.6596,-3.6467,-3.6005,-3.6042,-3.5399,-3.4333,-3.4675,-3.4828,-3.4828,-3.4828,-3.4828,-3.4883,-3.5379,-3.5538,-3.5493,0.0,0.0,0.0,0.0,0.0,0.0,0.0,0.0,0.0,0.0,-0.5805,-0.5731,-0.5879,-0.5688,-0.5601,-0.5808,-0.6057,-0.6359,-0.6788,-0.6822,-0.681,-0.68,-0.6394,-0.599,-0.5726,-0.5587,-0.5495,-0.5499,-0.5973,-0.6361,-0.6673,-0.7526,-0.8137,-0.8566,-0.9412,-1.0355,-1.1393,-1.2605,-1.3701,-1.4712,-1.5942,-1.6662,-1.7085,-1.785,-1.8769,-1.9977,-2.2337,-2.3401,-2.3793,-2.439,-2.4862,-2.5326,-2.5721,-2.5727,-2.5562,-2.5378,-2.4989,-2.4758,-2.562,-2.6639,-2.7516,-2.7905,-2.9343,-3.0853,-3.1456,-3.2606,-3.3873,-3.5295,-3.6397,-3.7226,-3.7454,-3.7964,-3.8156,-3.7403,-3.7116,-3.6767,-3.6192,-3.5862,-3.5926,-3.6702,-3.6856,-3.7625,-3.9416,-3.8347,-3.8087,-3.9339,-3.8207,-3.7907,-3.8874,-3.8427,-3.7992,-3.77,-3.7042,-3.6399,-3.5739,-3.5253,-3.5156,-3.5387,-3.509,-3.4648,-3.4091,-3.4686,-3.4733,-3.4324,-3.4762,-3.4327,-3.3375,-3.3818,-3.4002,-3.4002,-3.4002,-3.3897,-3.3785,-3.4177,-3.4521,-3.4682,0.0,0.0,0.0,0.0,0.0,0.0,0.0,0.0,0.0,0.0,0.0,0.0,0.0,-0.4354,-0.4571,-0.5078,-0.4831,-0.5071,-0.5975,-0.5449,-0.5304,-0.5815,-0.5257,-0.4737,-0.4292,-0.4059,-0.396,-0.3979,-0.3998,-0.4545,-0.5551,-0.6498,-0.7484,-0.8429,-0.9402,-1.0294,-1.1091,-1.1141,-1.2031,-1.3453,-1.427,-1.5363,-1.6615,-1.7403,-1.798,-1.8584,-2.021,-2.1616,-2.2666,-2.289,-2.3295,-2.3692,-2.3919,-2.4299,-2.4535,-2.404,-2.3481,-2.3191,-2.3673,-2.4154,-2.4933,-2.6545,-2.7763,-2.9166,-3.139,-3.2318,-3.2852,-3.3375,-3.4313,-3.4833,-3.4234,-3.5852,-3.6873,-3.5744,-3.6,-3.5949,-3.482,-3.4876,-3.5047,-3.5061,-3.5271,-3.5966,0.0,-3.7754,-3.7638,-3.7068,-3.6965,-3.6936,-3.6985,-3.6345,-3.5729,-3.5144,-3.446,-3.4095,-3.4073,-3.4043,-3.4337,-3.4924,-3.4197,-3.3525,-3.2933,-3.2233,-3.2243,-3.2756,-3.2783,-3.2783,-3.2725,-3.2752,-3.2752,-3.2752,-3.2752,-3.2415,-3.1873,-3.1914,-3.2565,-3.3456,0.0,0.0,0.0,0.0,0.0,0.0,0.0,0.0,0.0,0.0,0.0,0.0,0.0,0.0,0.0,0.0,-0.4151,-0.4117,-0.4266,-0.4085,-0.3966,-0.3925,-0.3606,-0.3387,-0.3283,-0.3127,-0.3058,-0.3086,-0.3519,-0.3869,-0.4239,-0.5119,-0.6077,-0.7111,-0.7717,-0.8738,-0.9998,-1.062,-1.1389,-1.218,-1.3147,-1.3997,-1.4804,-1.555,-1.6179,-1.6832,0.0,-1.8929,-2.0235,-2.08,-2.1076,-2.1313,-2.198,-2.1995,-2.1832,-2.2286,-2.2472,-2.2735,-2.3527,-2.4106,-2.4672,-2.5541,-2.6526,-2.742,-2.8215,-2.9298,-3.0211,-3.0381,-3.1019,-3.1449,-3.1226,-3.2055,-3.2835,-3.3074,-3.3444,-3.3814,-3.4123,-3.3913,-3.3953,-3.4538,-3.4641,0.0,0.0,0.0,0.0,-3.7485,-3.632,-3.5775,-3.6202,-3.5233,-3.4555,-3.4333,-3.3256,-3.2655,-3.2661,-3.2288,-3.2182,-3.2386,-3.2117,-3.2076,-3.2238,-3.198,-3.194,-3.2059,-3.2415,-3.2044,-3.1262,-3.167,-3.1584,-3.1166,-3.1166,-3.1068,-3.0866,-3.0866,-3.0545,-3.0164,0.0,0.0,0.0,0.0,0.0,0.0,0.0,0.0,0.0,0.0,0.0,0.0,0.0,0.0,0.0,0.0,0.0,-0.3268,-0.3106,-0.2946,-0.2706,-0.2389,-0.1997,-0.1735,-0.1638,-0.1742,-0.1825,-0.186,-0.2488,-0.2905,-0.3127,-0.3951,-0.4842,-0.5691,-0.6709,-0.7729,-0.8838,-0.9832,-1.0589,-1.1164,-1.1728,-1.2509,-1.3337,-1.394,-1.4767,0.0,-1.5994,-1.6993,-1.8145,-1.861,-1.8927,-1.9222,-1.9573,-1.9579,-1.9573,-2.0313,-2.0823,-2.1381,-2.2299,-2.279,-2.3205,-2.4011,-2.4631,-2.5219,-2.5722,-2.662,-2.743,-2.7714,-2.8197,-2.8614,-2.8752,-2.9401,-3.0047,-3.0493,-3.1273,-3.2095,-3.276,-3.2821,-3.3055,-3.3839,-3.3949,-3.4129,0.0,0.0,0.0,-3.6276,-3.5286,-3.4689,-3.4882,-3.4426,-3.383,-3.314,-3.2493,-3.1951,-3.1512,-3.1116,-3.0895,-3.0821,-3.0528,-3.069,-3.1232,-3.0995,-3.0877,-3.0834,-3.1176,-3.0688,-2.9701,-3.0103,-2.9985,-2.9609,-2.9609,-2.935,-2.897,-2.897,-2.8127,-2.7216,0.0,0.0,0.0,0.0,0.0,0.0,0.0,0.0,0.0,0.0,0.0,0.0,0.0,0.0,0.0,0.0,0.0,0.0,-0.2552,-0.1989,-0.1532,-0.1166,-0.051,0.0043,0.0522,-0.0084,-0.0376,-0.0349,-0.1046,-0.1648,-0.2181,-0.3078,-0.3764,-0.4307,-0.622,-0.727,-0.7664,-0.873,-0.962,-1.0333,-1.0149,-1.0899,-1.2249,-1.2647,-1.3631,-1.4806,-1.5149,-1.582,-1.6546,-1.6503,-1.7058,-1.7605,-1.7035,-1.7362,-1.8021,-1.8351,-1.8778,-1.9327,-2.0077,-2.0333,-2.0658,-2.1982,-2.2306,-2.2675,-2.4009,-2.4341,-2.4616,-2.5428,-2.5868,-2.6217,0.0,0.0,-2.8487,-2.8068,-2.9553,-3.0817,-3.086,-3.1601,-3.2364,0.0,0.0,0.0,0.0,0.0,0.0,-3.3601,0.0,-3.3764,-3.3086,-3.3805,-3.3363,-3.1457,-3.1991,-3.1719,-3.0492,-3.0477,-3.0372,-3.0176,-2.9424,-2.9437,-3.0021,-2.9438,-2.9183,-2.9183,-2.9183,-2.8797,-2.8154,-2.8154,-2.8126,-2.8068,-2.8097,-2.7382,-2.6351,-2.6351,-2.5552,-2.4825,0.0,0.0,0.0,0.0,0.0,0.0,0.0,0.0,0.0,0.0,0.0,0.0,0.0,0.0,0.0,0.0,0.0,0.0,-0.2097,-0.1528,-0.1021,-0.0621,0.0042,0.0609,0.1065,0.0308,-0.0045,0.014,-0.0734,-0.1339,-0.1705,-0.1989,-0.2597,-0.3526,-0.5034,-0.6326,-0.7372,-0.868,-0.9355,-0.9671,-0.9714,-1.0078,-1.0747,-1.131,-1.2225,-1.331,-1.4347,-1.5069,-1.5638,-1.6337,-1.7087,-1.772,-1.7728,-1.8051,-1.8557,-1.9112,-1.9629,-2.0024,-2.0218,-2.0527,-2.0811,-2.1176,-2.1293,-2.1373,-2.1751,-2.2412,-2.289,-2.2784,-2.3123,-2.3402,-2.3227,0.0,0.0,-2.6303,-2.8006,0.0,-3.0124,-3.1061,0.0,-3.1472,0.0,-3.2649,-3.2896,-3.2771,0.0,0.0,-3.3252,-3.3236,-3.2475,-3.2204,-3.1507,-3.0195,-2.9881,-2.9397,-2.8666,-2.8666,-2.8634,-2.8602,-2.8882,-2.9115,-2.93,-2.9667,-2.9625,-2.9183,-2.9183,-2.8569,-2.7539,-2.7539,-2.6954,-2.6169,-2.6599,-2.634,-2.564,-2.564,-2.5155,-2.449,0.0,0.0,0.0,0.0,0.0,0.0,0.0,0.0,0.0,0.0,0.0,0.0,0.0,0.0,0.0,0.0,0.0,0.0,0.0,-0.1038,-0.0603,-0.0407,0.025,0.0763,0.1115,0.039,0.0088,0.0316,-0.0637,-0.12,-0.1318,-0.1489,-0.189,-0.2518,-0.4237,-0.5556,-0.659,-0.8227,-0.9157,0.0,0.0,-0.957,-0.9942,-1.0714,-1.1635,-1.259,-1.365,-1.4611,-1.5535,-1.622,-1.6733,-1.718,-1.7317,-1.7561,-1.7925,-1.8313,-1.8583,-1.8823,-1.8934,-1.9159,-1.9451,-1.9861,-1.9997,-2.0045,-2.0331,-2.0837,-2.1302,-2.1429,-2.1473,-2.1584,-2.1969,-2.2842,-2.3861,0.0,0.0,0.0,-2.923,-2.9991,-3.0491,0.0,-3.1222,0.0,-3.1737,-3.2157,-3.2356,0.0,-3.2743,-3.266,-3.1732,-3.1483,-3.0738,-2.935,-2.9012,-2.8559,-2.7999,-2.7907,-2.7874,-2.7874,-2.8201,-2.833,-2.8363,-2.8547,-2.8278,-2.7685,0.0,-2.6951,-2.626,-2.5979,-2.5481,-2.4875,-2.4914,-2.4433,-2.3687,-2.3687,-2.3315,-2.2694,0.0,0.0,0.0,0.0,0.0,0.0,0.0,0.0,0.0,0.0,0.0,0.0,0.0,0.0,0.0,0.0,0.0,0.0,0.0,0.0,-0.0358,-0.0406,0.0244,0.0734,0.0978,0.0334,0.0084,0.0296,-0.0614,-0.1083,-0.1152,-0.1365,-0.152,-0.1616,-0.3816,-0.5059,-0.564,-0.7681,-0.8918,-0.9449,-0.9238,-0.9303,-0.9641,0.0,-1.1313,-1.2264,-1.3171,-1.4403,-1.5696,-1.6054,-1.6384,-1.6609,-1.6609,-1.68,-1.702,-1.6976,-1.6961,-1.702,-1.7252,-1.7279,-1.7512,-1.838,-1.8572,-1.8682,-1.9273,-1.9474,-1.9765,-2.0494,-2.0323,-2.0379,-2.159,-2.2381,-2.3086,-2.3781,0.0,-2.7264,-2.8348,-2.888,-2.9355,-2.9755,-3.033,-3.0658,-3.0621,-3.1504,-3.1989,-3.1697,-3.2169,-3.1987,-3.0833,-3.0968,-3.0266,-2.8497,-2.8486,-2.8243,-2.7657,-2.7465,-2.7385,-2.7385,-2.7358,-2.7311,-2.7254,-2.6857,-2.6332,-2.5659,0.0,0.0,-2.47,-2.4118,-2.3836,-2.3744,-2.3237,-2.2412,-2.1538,-2.1485,-2.1159,-2.0677,0.0,0.0,0.0,0.0,0.0,0.0,0.0,0.0,0.0,0.0,-0.3875,-0.3906,0.0,0.0,0.0,0.0,0.0,0.0,0.0,0.0,0.0,-0.0407,0.029,0.0876,0.1292,0.0469,0.013,0.0389,-0.0566,-0.115,-0.1353,-0.1474,-0.1489,-0.1582,-0.3695,-0.4819,-0.5244,-0.7429,-0.8462,-0.871,-0.9171,-0.9263,-0.9218,-0.9672,0.0,0.0,-1.3225,-1.4404,-1.5319,-1.5981,-1.6815,-1.7567,-1.7567,-1.7604,-1.7596,-1.7326,-1.7245,-1.726,-1.7311,-1.7279,-1.7326,-1.7512,-1.7405,-1.7281,-1.7402,-1.7775,-1.8086,-1.793,-1.8431,-1.9053,-1.9678,-2.0479,-2.176,-2.3955,-2.5226,-2.6497,-2.809,-2.8778,-2.9024,0.0,-2.9251,-2.9457,-2.913,-2.9977,0.0,0.0,0.0,-3.0737,-2.9667,-2.9255,-2.828,-2.6637,-2.6576,-2.6318,-2.5779,-2.5744,-2.5709,-2.5732,-2.6299,-2.6346,-2.597,-2.6447,-2.6123,-2.5127,0.0,0.0,-2.3497,-2.3261,-2.2647,-2.1826,-2.2108,-2.205,-2.1764,-2.1326,-2.1378,-2.1454,0.0,0.0,0.0,0.0,0.0,0.0,0.0,-0.3871,-0.395,-0.4089,-0.4069,-0.4059,-0.4102,-0.3972,-0.3563,0.0,0.0,0.0,0.0,0.0,0.0,0.0,-0.0534,-0.0206,0.0124,-0.0299,-0.0389,-0.0171,0.0,-0.1111,-0.1256,-0.1405,-0.173,-0.2276,-0.385,-0.5048,-0.5975,-0.7561,-0.8452,-0.8844,-0.9106,-0.9226,-0.9306,0.0,0.0,0.0,-1.2506,-1.3341,-1.4004,-1.481,-1.5667,-1.656,-1.7322,-1.7677,-1.775,-1.7381,-1.7279,-1.7279,-1.7279,-1.7279,-1.7279,-1.7279,-1.7091,-1.6859,-1.6683,-1.6749,-1.6834,-1.6899,-1.7317,-1.7835,-1.8523,-1.9327,-2.0549,-2.2428,-2.386,-2.534,-2.7068,-2.7706,-2.7933,-2.7723,-2.8232,-2.8381,-2.7977,-2.8646,0.0,0.0,0.0,-2.8618,-2.8891,-2.7849,-2.6899,-2.6117,-2.5829,-2.5564,-2.5312,-2.5241,-2.5218,-2.5218,-2.543,-2.5437,-2.5182,-2.5253,-2.4839,-2.4032,-2.3517,0.0,-2.2812,-2.1927,-2.1406,-2.115,-2.0782,-2.0459,-2.0163,-1.9904,-1.9966,-2.0025,0.0,0.0,0.0,0.0,0.0,0.0,0.0,-0.3903,-0.4012,-0.4242,-0.4246,-0.4244,-0.4283,-0.4312,-0.3969,0.0,0.0,0.0,0.0,0.0,0.0,0.0,0.0,0.0,0.0,0.0,0.0,-0.0848,-0.1057,0.0,0.0,0.0,0.0,0.0,-0.4302,-0.5512,-0.6627,-0.7681,-0.8443,0.0,0.0,-0.9177,0.0,0.0,0.0,0.0,0.0,-1.21,-1.259,-1.3358,-1.4046,-1.48,-1.6155,-1.6968,-1.7334,-1.7073,-1.7044,-1.7185,-1.7254,-1.7279,-1.7279,-1.7279,-1.704,-1.6727,-1.647,-1.6082,-1.59,-1.6317,-1.6419,-1.6706,-1.7553,-1.827,-1.9221,-2.0678,-2.2135,-2.3827,-2.5929,-2.6492,-2.6814,-2.7214,-2.7523,0.0,-2.6928,-2.738,0.0,0.0,0.0,0.0,-2.7521,-2.6405,-2.5632,-2.5409,-2.5116,-2.4858,-2.4671,-2.454,-2.4515,-2.4515,-2.4358,-2.4192,-2.4077,-2.3862,-2.3375,-2.2724,-2.1978,0.0,0.0,-2.0488,-2.0099,-2.035,-1.9479,-1.8869,-1.8456,-1.8499,-1.8495,-1.8387,0.0,0.0,0.0,0.0,0.0,0.0,0.0,-0.3916,-0.4063,-0.4171,-0.4316,-0.4473,-0.464,-0.4518,-0.4194,0.0,0.0,0.0,0.0,0.0,0.0,0.0,0.0,0.0,0.0,0.0,0.0,-0.1342,-0.1375,0.0,0.0,0.0,0.0,0.0,0.0,-0.615,-0.6263,-0.7598,0.0,0.0,0.0,0.0,0.0,0.0,0.0,0.0,0.0,-1.1331,-1.1458,-1.2193,-1.2484,-1.2737,-1.3843,-1.5053,-1.6084,-1.5939,-1.6278,-1.6753,-1.7171,-1.7279,-1.7279,-1.7279,-1.6872,-1.6448,-1.6419,-1.5906,-1.5467,-1.5514,-1.5506,-1.5782,-1.6657,-1.6869,-1.7613,-1.9661,-2.0427,-2.1893,-2.5298,-2.5712,-2.6343,-2.797,0.0,0.0,-2.5908,-2.6138,0.0,0.0,0.0,0.0,0.0,-2.4534,-2.4063,-2.3223,-2.3616,-2.344,-2.2601,-2.2553,-2.2553,-2.2553,-2.2553,-2.2253,-2.181,-2.2581,-2.2339,-2.1386,0.0,0.0,0.0,-1.9245,-1.8666,-1.828,-1.8225,-1.8154,-1.8065,-1.8107,-1.812,-1.7988,0.0,0.0,0.0,0.0,0.0,0.0,-0.3836,-0.3908,-0.4044,-0.4297,-0.4344,-0.4463,-0.4753,-0.4673,-0.4409,-0.3929,0.0,0.0,0.0,0.0,0.0,0.0,0.0,0.0,0.0,0.0,-0.1328,-0.1417,-0.2258,0.0,0.0,0.0,0.0,0.0,0.0,-0.6914,-0.7583,-0.8022,0.0,0.0,0.0,0.0,0.0,0.0,0.0,0.0,0.0,0.0,-1.1538,-1.2156,-1.2299,-1.2233,-1.25,-1.3158,-1.4003,-1.5079,-1.5527,-1.5765,-1.6066,-1.6182,-1.6135,-1.6001,-1.5824,-1.5688,-1.5688,-1.5526,-1.5389,-1.5389,-1.5389,-1.5506,-1.5865,-1.6073,-1.6669,-1.8036,-1.8993,-2.0311,-2.2492,-2.3708,-2.4787,-2.5799,-2.5934,0.0,0.0,0.0,0.0,0.0,0.0,0.0,0.0,-2.3073,-2.3324,-2.303,-2.2924,-2.2662,-2.2291,-2.2178,-2.2003,-2.1776,-2.1676,-2.1397,-2.0925,-2.1247,-2.1046,-2.0345,0.0,0.0,0.0,-1.8373,-1.793,-1.7779,-1.7477,-1.7213,-1.6973,-1.7008,-1.7006,-1.6928,0.0,0.0,0.0,0.0,0.0,-0.3824,-0.3848,-0.3906,-0.4038,-0.4318,-0.4369,-0.4485,-0.4767,-0.4767,-0.4597,-0.4248,-0.4009,0.0,0.0,0.0,0.0,0.0,0.0,0.0,0.0,0.0,-0.1996,-0.2575,-0.3318,-0.3866,0.0,0.0,-0.6345,-0.7023,0.0,0.0,0.0,0.0,0.0,0.0,0.0,0.0,0.0,0.0,0.0,0.0,0.0,0.0,0.0,0.0,0.0,-1.1786,-1.1626,-1.1803,-1.2381,-1.4043,-1.4696,-1.4927,-1.528,-1.5385,-1.5384,-1.5229,-1.5199,-1.5191,-1.5191,-1.5311,-1.5389,-1.5389,-1.5389,-1.5389,-1.5389,-1.5571,-1.593,-1.6584,-1.7567,-1.8682,-2.0058,-2.1514,-2.2775,-2.3556,0.0,-2.401,0.0,0.0,0.0,0.0,0.0,0.0,0.0,-2.1634,-2.2055,-2.2133,-2.1788,-2.1464,-2.1226,-2.1075,-2.0825,-2.0437,-2.0337,-2.0092,-1.9807,-2.0048,-1.9884,-1.942,0.0,0.0,0.0,-1.7447,-1.7103,-1.7165,-1.6845,-1.6436,-1.6054,-1.6216,-1.6197,-1.5993,0.0,0.0,0.0,0.0,0.0,0.0,-0.3804,-0.3918,-0.4067,-0.4198,-0.4447,-0.4606,-0.47,-0.4783,-0.4782,-0.4782,-0.4231,0.0,0.0,0.0,0.0,0.0,0.0,0.0,0.0,0.0,-0.3583,-0.525,-0.4559,-0.4647,-0.562,-0.667,-0.7094,-0.7057,0.0,0.0,0.0,0.0,0.0,0.0,0.0,0.0,0.0,0.0,0.0,0.0,0.0,0.0,0.0,0.0,0.0,0.0,0.0,-1.1308,-1.1538,-1.2859,-1.3726,-1.4481,-1.5183,-1.5385,-1.5385,-1.5385,-1.5304,-1.5191,-1.5191,-1.5311,-1.5389,-1.5389,-1.5389,-1.5389,-1.5389,-1.5389,-1.5389,-1.5438,-1.6008,-1.6944,-1.8501,-1.9296,-2.0336,0.0,0.0,-2.126,0.0,0.0,0.0,0.0,0.0,0.0,0.0,-2.0145,-1.9925,-1.9925,-1.9925,-1.954,-1.8762,-1.8753,-1.8522,-1.8128,-1.8128,-1.8128,-1.8156,-1.8966,-1.9059,0.0,0.0,0.0,0.0,-1.6406,-1.6015,-1.6026,-1.6228,-1.595,-1.5468,-1.6083,-1.5911,-1.5438,0.0,0.0,0.0,0.0,0.0,0.0,0.0,-0.3851,-0.3926,-0.4185,-0.4295,-0.4469,-0.4685,-0.4783,-0.4784,-0.4784,-0.4581,0.0,0.0,0.0,0.0,0.0,0.0,0.0,0.0,0.0,-0.4625,-0.5305,-0.5998,-0.6523,-0.7018,-0.8273,-0.8795,-0.8788,-0.9388,0.0,0.0,0.0,0.0,0.0,0.0,0.0,0.0,0.0,0.0,0.0,0.0,0.0,0.0,0.0,0.0,0.0,0.0,0.0,0.0,-1.2218,-1.2616,-1.2886,-1.3256,-1.3349,-1.3309,-1.318,-1.331,-1.361,-1.4051,-1.4464,-1.4873,-1.5305,-1.5564,-1.5717,-1.5717,-1.6111,-1.6448,-1.6448,-1.6626,-1.6967,-1.749,0.0,0.0,-1.9935,-2.0378,0.0,0.0,0.0,0.0,0.0,0.0,0.0,0.0,-1.8104,-1.8227,-1.907,-1.91,-1.8563,-1.7547,-1.7538,-1.7073,-1.6137,-1.6137,-1.5958,-1.5699,-1.5787,0.0,0.0,0.0,0.0,0.0,-1.5235,-1.5228,-1.5324,-1.4766,-1.4227,-1.3796,-1.3529,-1.3325,-1.3098,0.0,0.0,0.0,0.0,0.0,0.0,0.0,-0.4067,-0.4089,-0.4219,-0.4343,-0.4522,-0.4634,-0.5012,-0.5336,-0.5534,-0.5773,0.0,0.0,0.0,0.0,0.0,0.0,0.0,-0.5254,-0.5601,-0.6068,-0.6723,-0.7348,-0.8024,-0.8662,-0.9517,-1.0019,-1.0207,-1.0346,-1.0396,0.0,0.0,0.0,0.0,0.0,0.0,-1.1709,0.0,0.0,0.0,0.0,0.0,0.0,0.0,0.0,0.0,0.0,0.0,0.0,0.0,-1.2024,-1.217,-1.2452,-1.2484,-1.2377,-1.2226,-1.2473,-1.2827,-1.3223,-1.3711,-1.4264,-1.5064,-1.5376,-1.5641,-1.6024,-1.6367,-1.6539,-1.6539,-1.6679,-1.6819,-1.6852,0.0,0.0,-1.8198,0.0,0.0,0.0,0.0,0.0,0.0,0.0,0.0,0.0,0.0,-1.6855,-1.7208,-1.7471,-1.717,-1.635,-1.6305,-1.5823,-1.4816,-1.4816,-1.4633,-1.4239,-1.4092,0.0,0.0,0.0,0.0,0.0,-1.3775,-1.3745,-1.3716,-1.3139,-1.2755,-1.2475,-1.2065,-1.1912,-1.1864,0.0,0.0,0.0,0.0,0.0,0.0,0.0,-0.4624,-0.4611,-0.4513,-0.4747,-0.4926,-0.4843,-0.5662,-0.6387,-0.6877,0.0,0.0,0.0,0.0,0.0,0.0,0.0,0.0,-0.7654,-0.7392,-0.7919,-0.921,-0.8747,-0.915,-1.0462,-1.0462,-1.0703,-1.1184,-1.1034,-1.0991,0.0,0.0,0.0,0.0,-1.2613,-1.2624,0.0,0.0,0.0,0.0,0.0,0.0,0.0,0.0,0.0,0.0,0.0,0.0,0.0,0.0,0.0,0.0,0.0,-1.2565,-1.2388,-1.2388,-1.25,-1.2674,-1.2718,-1.3064,0.0,-1.4649,-1.4854,-1.5182,-1.6064,-1.604,-1.5876,-1.5852,-1.6079,-1.6306,0.0,-1.6958,0.0,0.0,0.0,0.0,0.0,0.0,0.0,0.0,0.0,0.0,0.0,0.0,-1.5635,-1.4669,-1.5213,-1.5358,-1.5041,-1.5009,-1.4684,-1.4058,-1.3992,-1.3844,-1.3527,-1.3537,0.0,0.0,0.0,0.0,0.0,-1.2136,-1.1823,-1.1576,-1.1495,-1.1459,-1.1459,-1.1431,-1.1403,-1.1328,0.0,0.0,0.0,0.0,0.0,0.0,0.0,0.0,0.0,0.0,-0.6873,-0.7182,-0.7403,-0.7838,-0.8216,0.0,0.0,0.0,0.0,0.0,0.0,0.0,0.0,0.0,-0.9121,-0.9587,-1.0039,-1.047,-1.0373,-1.0548,-1.0998,-1.0998,-1.1096,-1.1243,-1.158,-1.1991,0.0,0.0,0.0,0.0,-1.2764,-1.2624,0.0,0.0,0.0,0.0,-1.2344,-1.2296,0.0,0.0,0.0,0.0,0.0,0.0,0.0,0.0,-1.2027,-1.1887,-1.2366,0.0,-1.2181,-1.2181,-1.2226,-1.2366,0.0,-1.3093,-1.3377,-1.4142,-1.4508,-1.4655,-1.465,-1.4653,-1.4627,-1.4352,-1.4082,-1.4,-1.425,0.0,0.0,-1.6361,0.0,0.0,0.0,0.0,0.0,0.0,0.0,0.0,0.0,0.0,-1.3607,-1.29,-1.2831,-1.3035,-1.3519,-1.3314,-1.2961,-1.2424,-1.2186,-1.2032,-1.1914,-1.1724,0.0,0.0,0.0,0.0,-1.1428,-1.0989,-1.106,-1.1363,-1.0544,-1.0227,-1.0144,-0.9646,-0.9458,-0.9445,0.0,0.0,0.0,0.0,0.0,0.0,0.0,0.0,0.0,0.0,0.0,0.0,0.0,0.0,0.0,0.0,0.0,0.0,0.0,0.0,0.0,0.0,0.0,-1.0198,-1.0098,-1.0665,-1.091,-1.092,-1.0972,-1.1226,-1.159,-1.159,-1.1688,-1.1932,-1.2224,-1.2516,0.0,0.0,0.0,0.0,-1.2603,0.0,0.0,0.0,0.0,0.0,-1.2038,-1.2,0.0,-1.2043,-1.1844,-1.158,0.0,0.0,0.0,0.0,-1.2307,-1.2248,-1.2501,-1.2364,-1.2094,-1.2094,-1.2094,-1.2186,-1.2552,-1.2643,-1.29,-1.3698,-1.4022,-1.416,-1.4178,-1.4226,-1.4072,-1.3552,-1.3435,0.0,0.0,0.0,-1.5001,-1.5202,0.0,0.0,0.0,0.0,0.0,0.0,0.0,0.0,0.0,0.0,-1.1985,-1.1445,-1.1156,-1.1413,-1.2276,-1.2114,-1.1874,-1.1463,-1.1303,-1.0955,-1.0446,-1.0199,0.0,0.0,0.0,0.0,-1.0034,-0.9775,-0.982,-0.9947,-0.9092,-0.8755,-0.8674,-0.8032,-0.7791,-0.7786,0.0,0.0,0.0,0.0,0.0,0.0,0.0,0.0,0.0,0.0,0.0,0.0,0.0,0.0,0.0,0.0,0.0,0.0,0.0,0.0,0.0,0.0,-1.1114,-1.1128,-1.1005,-1.1303,-1.1347,-1.1211,-1.1347,-1.1683,-1.2127,-1.2127,-1.237,-1.2813,-1.2813,-1.2813,0.0,0.0,0.0,0.0,-1.2468,0.0,0.0,0.0,0.0,0.0,0.0,0.0,0.0,-1.1688,-1.1569,-1.1396,-1.1639,0.0,0.0,0.0,0.0,0.0,-1.2748,-1.2489,-1.2202,-1.2202,-1.2202,-1.2202,-1.2202,-1.2202,-1.2447,-1.3309,-1.3437,-1.3482,-1.3858,-1.3791,-1.3485,-1.2822,0.0,0.0,-1.416,-1.404,-1.3803,0.0,0.0,0.0,0.0,0.0,0.0,0.0,0.0,0.0,0.0,0.0,0.0,-1.0223,-0.9954,-1.0208,-1.0944,-1.095,-1.0847,-1.0685,-1.0646,-1.0107,-0.9166,-0.8976,0.0,0.0,0.0,0.0,-0.8591,-0.852,-0.8373,-0.8111,-0.7585,-0.7389,-0.7307,-0.6793,-0.6586,-0.6557,0.0,0.0,0.0,0.0,0.0,0.0,0.0,0.0,0.0,0.0,0.0,0.0,0.0,0.0,0.0,0.0,0.0,0.0,0.0,0.0,0.0,-1.2512,-1.2496,-1.2496,-1.2464,-1.2533,-1.2549,-1.2512,-1.2549,-1.2613,-1.2667,-1.2667,-1.2716,-1.2813,-1.2813,-1.2813,-1.2813,-1.2813,0.0,-1.2759,-1.2759,0.0,0.0,0.0,0.0,0.0,0.0,0.0,0.0,-1.1634,-1.1677,-1.1655,-1.1688,0.0,0.0,0.0,0.0,0.0,-1.2409,-1.256,-1.2705,-1.2705,-1.2705,-1.2705,-1.2705,-1.2705,-1.2758,-1.2893,-1.2671,-1.2329,-1.2135,-1.1737,-1.1291,-1.0862,0.0,-1.1533,0.0,0.0,0.0,0.0,0.0,0.0,0.0,0.0,0.0,0.0,0.0,0.0,0.0,0.0,0.0,-0.9392,-0.9168,-0.9025,-0.8957,-0.8957,-0.9041,-0.9203,-0.8996,-0.8781,-0.8619,-0.842,-0.8302,0.0,0.0,-0.765,-0.7665,-0.7335,-0.718,-0.712,-0.6905,-0.6812,-0.6817,-0.6728,-0.6562,-0.6421,0.0,0.0,0.0,0.0,0.0,0.0,0.0,0.0,0.0,0.0,0.0,0.0,0.0,0.0,0.0,0.0,0.0,0.0,0.0,0.0,-1.2813,-1.2813,-1.2813,-1.2813,-1.2813,-1.2813,-1.2813,-1.2813,-1.2813,-1.2813,-1.2813,-1.2813,-1.2813,-1.2813,-1.2813,-1.2813,-1.2818,-1.2943,-1.2802,-1.2587,0.0,0.0,0.0,0.0,0.0,0.0,0.0,0.0,0.0,0.0,-1.1785,-1.1932,-1.1932,0.0,0.0,0.0,0.0,0.0,-1.2235,-1.2393,-1.2608,-1.278,-1.3007,-1.3202,-1.3202,-1.3202,-1.3202,-1.3202,-1.2779,-1.2266,-1.185,-1.1471,-1.1127,-1.0869,0.0,-1.0721,0.0,0.0,0.0,0.0,0.0,0.0,0.0,0.0,0.0,0.0,0.0,0.0,0.0,0.0,0.0,0.0,-0.8101,-0.7706,-0.7092,-0.7092,-0.7564,-0.852,-0.8311,-0.7994,-0.7535,-0.7329,-0.7149,-0.6999,0.0,-0.6715,-0.7042,-0.6747,-0.6704,-0.6738,-0.6374,-0.6224,-0.6164,-0.5842,-0.5678,-0.5581,0.0,0.0,0.0,0.0,0.0,0.0,0.0,0.0,0.0,0.0,0.0,0.0,0.0,0.0,0.0,0.0,0.0,0.0,0.0,-1.278,-1.2813,-1.2813,-1.2813,-1.2813,-1.2813,-1.2759,-1.2732,-1.2732,-1.2672,-1.264,-1.2645,-1.2699,-1.2732,-1.2732,-1.2786,-1.2813,-1.2824,-1.2953,-1.2818,-1.2511,0.0,0.0,0.0,0.0,0.0,0.0,0.0,0.0,0.0,0.0,0.0,0.0,0.0,0.0,0.0,-1.1981,-1.2008,-1.2083,-1.2024,-1.2183,-1.2468,-1.2753,-1.3089,-1.3357,-1.3523,-1.3518,-1.3513,-1.362,-1.3106,-1.2493,-1.2021,-1.1581,0.0,-1.111,-1.0639,0.0,0.0,0.0,0.0,0.0,0.0,0.0,0.0,0.0,0.0,0.0,0.0,0.0,0.0,0.0,0.0,0.0,-0.703,-0.6568,-0.5925,-0.5855,-0.6445,-0.7647,-0.7544,-0.7149,-0.649,-0.629,-0.6101,-0.5899,-0.5643,-0.5872,-0.638,-0.6241,-0.6263,-0.6358,-0.5901,-0.5717,-0.5651,-0.5133,-0.4938,-0.4938,0.0,0.0,0.0,0.0,0.0,0.0,0.0,0.0,0.0,0.0,0.0,0.0,0.0,0.0,0.0,0.0,0.0,0.0,0.0,-1.2646,-1.2813,-1.2813,-1.2813,-1.2813,-1.2813,-1.2549,-1.2441,-1.2441,-1.2256,-1.2143,-1.2148,-1.2334,-1.2441,-1.2452,-1.2667,-1.2813,-1.2813,-1.2829,-1.2818,-1.2786,-1.2807,0.0,0.0,0.0,0.0,0.0,0.0,0.0,0.0,0.0,0.0,0.0,0.0,0.0,-1.2258,-1.1552,-1.1709,-1.2046,-1.1785,-1.2064,-1.2468,-1.2753,-1.284,-1.2985,-1.3647,-1.3631,-1.3604,-1.4051,-1.3372,-1.2616,-1.2377,-1.1492,-1.0755,-1.0724,-1.0688,0.0,0.0,0.0,0.0,0.0,0.0,0.0,0.0,0.0,0.0,0.0,0.0,0.0,0.0,0.0,0.0,0.0,0.0,-0.5954,-0.5892,-0.5719,-0.5785,-0.6053,-0.6053,-0.602,-0.5954,-0.5738,-0.5665,-0.5632,-0.5482,-0.545,-0.5493,-0.5479,-0.5482,-0.5493,-0.546,-0.5427,-0.541,-0.5169,-0.5083,-0.5083,0.0,0.0,0.0,0.0,0.0,0.0,0.0,0.0,0.0,0.0,0.0,0.0,0.0,0.0,0.0,0.0,0.0,0.0,0.0,-1.2911,-1.3082,-1.3244,-1.3093,-1.3009,-1.3009,-1.2594,-1.2269,-1.1973,-1.1876,-1.2075,-1.2513,-1.2418,-1.2537,-1.2827,-1.2823,-1.2813,-1.2818,-1.2915,-1.2894,-1.2824,-1.2915,-1.292,0.0,0.0,0.0,0.0,0.0,0.0,0.0,0.0,-1.056,-1.0218,-1.0012,-1.0127,-1.038,-1.0602,-1.0287,-1.0009,-1.0642,-1.0597,-1.0453,-1.0626,-1.0792,-1.124,-1.2544,-1.2734,-1.2656,-1.2674,-1.1656,-1.0648,-0.998,-0.979,-0.9781,-1.0099,0.0,0.0,0.0,0.0,0.0,0.0,0.0,0.0,0.0,0.0,0.0,0.0,0.0,0.0,0.0,0.0,0.0,0.0,0.0,-0.4353,-0.4217,-0.4148,-0.4148,-0.4217,-0.5156,-0.5355,-0.4888,-0.4818,-0.455,-0.4112,-0.3979,-0.3957,-0.4015,-0.3946,-0.3959,-0.4018,-0.4018,-0.4018,-0.4079,-0.4465,-0.4611,-0.4677,0.0,0.0,0.0,0.0,0.0,0.0,0.0,0.0,0.0,0.0,0.0,0.0,0.0,0.0,0.0,0.0,0.0,0.0,-1.2854,-1.2939,-1.3064,-1.3241,-1.3076,-1.2945,-1.2865,-1.2553,-1.2255,-1.1921,-1.1844,-1.207,-1.2545,-1.251,-1.2664,-1.2872,-1.2811,-1.2791,-1.2818,-1.285,-1.284,-1.2824,-1.2931,-1.2996,0.0,0.0,0.0,0.0,0.0,0.0,0.0,0.0,-0.9524,-0.9106,-0.898,-0.8984,-0.915,-0.9655,-0.9253,-0.8861,-0.9597,-0.9524,-0.9244,-0.9352,-0.9599,-1.0018,-1.0766,-1.1339,-1.1618,-1.1542,-1.0463,-0.931,-0.8429,-0.8517,0.0,0.0,0.0,0.0,0.0,0.0,0.0,0.0,0.0,0.0,0.0,0.0,0.0,0.0,0.0,0.0,0.0,0.0,0.0,0.0,0.0,0.0,-0.3215,-0.3215,-0.3215,-0.3215,-0.422,-0.4456,-0.3951,-0.3951,-0.3685,-0.318,-0.3089,-0.313,-0.3178,-0.3089,-0.313,-0.3215,-0.3215,-0.3215,-0.3249,-0.3751,-0.3951,-0.402,0.0,0.0,0.0,0.0,0.0,0.0,0.0,0.0,0.0,0.0,0.0,0.0,0.0,0.0,0.0,0.0,0.0,0.0,-1.2409,-1.2592,-1.2677,-1.2677,-1.2677,-1.2609,-1.242,-1.2414,-1.2409,-1.2409,-1.2114,-1.1995,-1.2017,-1.2551,-1.2643,-1.2426,-1.2681,-1.2782,-1.2791,-1.2506,-1.2544,-1.2807,-1.2807,-1.2807,-1.2759,0.0,0.0,0.0,0.0,0.0,0.0,0.0,-0.8686,-0.8565,-0.8962,-0.9,-0.8853,-0.8709,-0.8884,-0.9035,-0.8758,-0.8916,-0.9228,-0.9359,-0.9592,-0.9507,-0.8487,-0.9446,-1.0599,-1.0961,-1.015,-0.9127,-0.8309,-0.8017,0.0,0.0,0.0,0.0,0.0,0.0,0.0,0.0,0.0,0.0,0.0,0.0,0.0,0.0,0.0,0.0,0.0,0.0,0.0,0.0,0.0,0.0,-0.3182,-0.3182,-0.3182,-0.3182,-0.3182,-0.3182,-0.3182,-0.3182,-0.3182,-0.3182,-0.3182,-0.3182,-0.3182,-0.3182,-0.3182,-0.3182,-0.3182,-0.3182,-0.3182,-0.3182,-0.3182,-0.3182,0.0,0.0,0.0,0.0,0.0,0.0,0.0,0.0,0.0,0.0,0.0,0.0,0.0,0.0,0.0,0.0,0.0,0.0,-1.3542,-1.3167,-1.2969,-1.2969,-1.2969,-1.2933,-1.2901,-1.2901,-1.2636,-1.2108,-1.1723,-1.1865,-1.2581,-1.2721,-1.2825,-1.2882,-1.2996,-1.2813,-1.2486,-1.2414,-1.2379,-1.2321,-1.2447,-1.2614,-1.2759,0.0,0.0,0.0,0.0,0.0,0.0,0.0,0.0,0.0,-0.6801,-0.6935,-0.7181,-0.7826,-0.75,-0.7151,-0.7805,-0.7611,-0.7161,-0.7245,-0.7355,-0.7323,-0.7091,-0.797,-0.8638,-0.7709,-0.751,-0.722,-0.6277,-0.6467,0.0,0.0,0.0,0.0,0.0,0.0,0.0,0.0,0.0,0.0,0.0,0.0,0.0,0.0,0.0,0.0,0.0,0.0,0.0,0.0,0.0,0.0,-0.1712,-0.1712,-0.1712,-0.1712,-0.1712,-0.198,-0.2414,-0.2414,-0.2181,-0.1712,-0.1712,-0.1712,-0.1712,-0.1712,-0.1712,-0.1712,-0.1712,-0.1712,-0.1779,-0.2248,-0.2414,-0.2514,0.0,0.0,0.0,0.0,0.0,0.0,0.0,0.0,0.0,0.0,-1.5701,-1.5608,0.0,0.0,0.0,0.0,0.0,0.0,0.0,-1.388,-1.3423,-1.3267,-1.3181,-1.3131,-1.3278,-1.3131,-1.2867,-1.2452,-1.2137,-1.2353,-1.2913,-1.3033,-1.3046,-1.2958,-1.298,-1.2779,-1.2403,-1.2218,-1.2099,-1.2116,-1.2318,-1.2441,-1.2494,0.0,0.0,0.0,0.0,0.0,0.0,0.0,0.0,0.0,-0.5961,-0.6043,-0.6269,-0.6956,-0.6644,-0.6236,-0.6804,-0.658,-0.6179,-0.6235,-0.6227,-0.624,-0.6139,-0.6704,-0.696,-0.6058,-0.5973,-0.5914,-0.5307,-0.5512,0.0,0.0,0.0,0.0,0.0,0.0,0.0,0.0,0.0,0.0,0.0,0.0,0.0,0.0,0.0,0.0,0.0,0.0,0.0,0.0,0.0,0.0,-0.1109,-0.1109,-0.1109,-0.1109,-0.1109,-0.131,-0.1712,-0.1712,-0.1478,-0.1109,-0.1109,-0.1109,-0.1109,-0.1109,-0.1109,-0.1109,-0.1109,-0.1109,-0.1143,-0.1544,-0.1712,-0.1779,0.0,0.0,0.0,0.0,0.0,0.0,0.0,0.0,0.0,0.0,-1.6821,-1.6535,0.0,0.0,0.0,0.0,0.0,0.0,0.0,-1.4615,-1.3963,-1.3572,-1.3293,-1.3239,-1.3544,-1.3314,-1.3161,-1.323,-1.3089,-1.3041,-1.3091,-1.3381,-1.3177,-1.2695,-1.2772,-1.2632,-1.2247,-1.1837,-1.1781,-1.2019,-1.2221,-1.2194,-1.2062,-1.2062,0.0,0.0,0.0,0.0,0.0,0.0,0.0,0.0,-0.6048,-0.6015,-0.5931,-0.6189,-0.6133,-0.6029,-0.5894,-0.5906,-0.5949,-0.602,-0.597,-0.5914,-0.5636,-0.5658,-0.5702,-0.5667,-0.5387,-0.5176,-0.5166,-0.5084,0.0,0.0,0.0,0.0,0.0,0.0,0.0,0.0,0.0,0.0,0.0,0.0,0.0,0.0,0.0,0.0,0.0,0.0,0.0,0.0,0.0,0.0,-0.1109,-0.1109,-0.1109,0.0,-0.1109,-0.1076,-0.1042,-0.1076,-0.1109,-0.1109,-0.1109,-0.1109,-0.1109,-0.1109,-0.1109,-0.1109,-0.1109,-0.1109,-0.1109,-0.1109,-0.1109,-0.1109,0.0,0.0,0.0,0.0,0.0,0.0,0.0,0.0,0.0,0.0,0.0,0.0,0.0,0.0,0.0,0.0,0.0,0.0,0.0,-1.5453,-1.4733,-1.3913,-1.3573,-1.3556,-1.3815,-1.3767,-1.3839,-1.4045,-1.3206,-1.2795,-1.2807,-1.329,-1.312,-1.2463,-1.2689,-1.2315,-1.1533,-1.1258,-1.1166,-1.1235,-1.1478,-1.1655,-1.1774,-1.1774,-1.0696,0.0,0.0,0.0,0.0,0.0,0.0,0.0,-0.6048,-0.5987,-0.5888,-0.5847,-0.5739,-0.5603,-0.5579,-0.5614,-0.5766,-0.6008,-0.5915,-0.5679,-0.5282,-0.5187,-0.5158,-0.5139,-0.5138,-0.5116,-0.5045,0.0,0.0,0.0,0.0,0.0,0.0,0.0,0.0,0.0,0.0,0.0,0.0,0.0,0.0,0.0,0.0,0.0,0.0,0.0,0.0,0.0,0.0,-0.1109,-0.1109,-0.1109,-0.1109,0.0,-0.1109,-0.0874,-0.047,-0.0908,-0.1109,-0.1109,-0.1109,-0.1109,-0.1109,-0.1109,-0.1109,-0.1109,-0.1109,-0.1109,-0.1109,-0.1109,-0.1109,-0.1109,0.0,0.0,0.0,0.0,0.0,0.0,0.0,0.0,0.0,0.0,0.0,0.0,0.0,0.0,0.0,0.0,0.0,0.0,0.0,0.0,-1.5518,-1.4419,-1.4417,-1.4262,-1.3906,-1.4032,-1.4039,-1.3924,-1.3489,-1.3278,-1.3284,-1.3568,-1.3347,-1.2745,-1.2796,-1.2374,-1.1612,-1.129,-1.1136,-1.1139,-1.138,-1.1477,-1.1504,-1.1655,-1.0459,-0.871,-0.8532,0.0,0.0,0.0,0.0,0.0,0.0,0.0,-0.559,-0.5578,-0.5474,-0.5358,-0.5312,-0.5367,-0.5454,-0.56,-0.513,-0.4598,-0.4341,-0.383,-0.3391,-0.3386,-0.4222,-0.4963,0.0,0.0,0.0,0.0,0.0,0.0,0.0,0.0,0.0,0.0,0.0,0.0,0.0,0.0,0.0,0.0,0.0,0.0,0.0,0.0,0.0,0.0,-0.0711,-0.0605,-0.0336,-0.0336,-0.0336,-0.0336,-0.0336,-0.0202,0.0067,-0.0202,-0.0336,-0.0336,-0.0336,-0.0336,-0.0336,-0.0336,-0.047,-0.0706,-0.0437,-0.0638,-0.1042,-0.0538,-0.0504,-0.0672,0.0,0.0,0.0,0.0,0.0,0.0,0.0,0.0,0.0,0.0,0.0,0.0,0.0,0.0,0.0,0.0,0.0,0.0,0.0,0.0,0.0,-1.5089,-1.5256,-1.4909,-1.3906,-1.4117,-1.3996,-1.3513,-1.3731,-1.3857,-1.3906,-1.3906,-1.3576,-1.3053,-1.2871,-1.244,-1.1844,-1.1429,-1.1246,-1.1268,-1.1542,-1.1548,-1.1391,-1.1671,-1.0538,-0.8809,-0.8633,-0.7439,-0.5953,-0.5914,0.0,0.0,0.0,0.0,-0.5277,-0.5308,-0.5192,-0.5025,-0.4825,-0.4678,-0.4614,-0.4557,-0.392,-0.3237,-0.3153,-0.2357,-0.1672,-0.1624,-0.3173,-0.4528,0.0,0.0,0.0,0.0,0.0,0.0,0.0,0.0,0.0,0.0,0.0,0.0,0.0,0.0,0.0,0.0,0.0,0.0,0.0,0.0,-0.062,-0.0168,-0.0168,0.0067,0.0504,0.0504,0.0504,0.0504,0.0605,0.0638,0.0638,0.0739,0.0672,0.0504,0.0504,0.0504,0.0504,0.0504,0.0235,-0.0134,0.0336,-0.0034,-0.0706,0.0168,0.0235,-0.0101,0.0,0.0,0.0,0.0,0.0,0.0,0.0,0.0,0.0,0.0,-1.7914,-1.8,0.0,0.0,0.0,0.0,0.0,0.0,-1.8,0.0,0.0,-1.6058,-1.5529,-1.4823,-1.3906,-1.3942,-1.3809,-1.3513,-1.355,-1.3682,-1.3906,-1.3906,-1.3536,-1.2825,-1.2825,-1.2299,-1.1381,-1.1139,-1.1031,-1.1052,-1.1257,-1.1455,-1.1677,-1.1954,-1.1212,-0.9938,-0.9131,-0.8091,-0.6966,-0.617,-0.5865,0.0,0.0,0.0,-0.5025,-0.4897,-0.4723,-0.4362,-0.3558,-0.286,-0.2333,-0.2273,-0.2104,-0.1923,-0.1909,-0.1762,-0.1623,0.0,-0.2569,0.0,0.0,0.0,0.0,0.0,0.0,0.0,0.0,0.0,0.0,0.0,0.0,0.0,0.0,0.0,0.0,0.0,0.0,0.0,0.0,0.0313,0.0304,0.0403,0.0403,0.0437,0.0504,0.0504,0.0504,0.0504,0.0975,0.1176,0.121,0.1748,0.1446,0.0504,0.0504,0.0504,0.0504,0.0504,0.047,0.0403,0.047,0.0403,0.0302,0.0437,0.047,0.0403,0.0,0.0,0.0,0.0,0.0,0.0,0.0,0.0,0.0,0.0,0.0,-1.8725,0.0,0.0,0.0,-1.857,-1.8209,-1.8,-1.8,-1.7962,-1.7345,-1.6024,-1.5887,-1.5082,-1.3471,-1.361,-1.3556,-1.3296,-1.3441,-1.3646,-1.3906,-1.3906,-1.3643,-1.3202,-1.3054,-1.2557,-1.1725,-1.1483,-1.1386,-1.1381,-1.1316,-1.1569,-1.1937,-1.1905,-1.0875,-0.948,-0.903,-0.7843,-0.6364,-0.6097,-0.5792,-0.558,-0.5531,0.0,0.0,0.0,-0.3634,-0.3392,-0.2534,-0.2098,-0.1815,-0.174,-0.1274,-0.0794,-0.0778,-0.0206,0.0256,0.0202,0.0,0.0,0.0,0.0,0.0,0.0,0.0,0.0,0.0,0.0,0.0,0.0,0.0,0.0,0.0,0.0,0.0,0.0,0.0,0.0,0.0583,0.0562,0.0683,0.0942,0.0941,0.1109,0.1446,0.1446,0.1446,0.1446,0.1681,0.1817,0.1817,0.2087,0.1918,0.1446,0.1446,0.1446,0.1446,0.1446,0.1244,0.0975,0.1311,0.1076,0.0571,0.121,0.1244,0.1008,0.0,0.0,0.0,0.0,0.0,0.0,0.0,0.0,0.0,0.0,0.0,0.0,0.0,0.0,0.0,0.0,-1.8553,-1.8149,-1.7903,-1.8237,-1.7597,-1.5738,-1.5994,-1.523,-1.3127,-1.3314,-1.3284,-1.3019,-1.3212,-1.3477,-1.3809,-1.3809,-1.3749,-1.3582,-1.3381,-1.2838,-1.2089,-1.193,-1.1844,-1.1779,-1.1622,-1.1795,-1.2089,-1.1989,-1.102,-0.965,-0.9196,-0.7991,-0.6527,-0.6164,-0.5767,-0.5348,-0.5296,-0.4998,0.0,0.0,0.0,-0.2038,-0.143,-0.1085,-0.0912,-0.0876,-0.021,0.037,0.0412,0.1079,0.1645,0.0,0.0,0.0,0.0,0.0,0.0,0.0,0.0,0.0,0.0,0.0,0.0,0.0,0.0,0.0,0.0,0.0,0.0,0.0,0.0,0.0,0.1022,0.103,0.1176,0.1514,0.1513,0.1748,0.2188,0.2188,0.2188,0.2188,0.2188,0.2188,0.2188,0.2188,0.2188,0.2188,0.2188,0.2188,0.2188,0.2188,0.1951,0.158,0.2018,0.1681,0.1042,0.1884,0.1918,0.158,0.0,0.0,0.0,0.0,0.0,0.0,0.0,0.0,0.0,0.0,0.0,0.0,-1.9816,-1.9851,-1.97,-1.9303,-1.9094,-1.8525,-1.7583,-1.7852,-1.7188,-1.5311,-1.5624,0.0,-1.3121,-1.3095,-1.3006,-1.2729,-1.2741,-1.3019,-1.3538,-1.3538,-1.363,-1.3883,-1.3624,-1.2959,-1.2105,-1.2285,-1.2242,-1.2094,-1.2269,-1.2231,-1.2143,-1.2586,-1.2425,-1.1732,-1.0004,-0.9204,0.0,0.0,0.0,0.0,0.0,-0.4806,-0.4395,0.0,0.0,0.0,-0.0092,0.0629,0.1421,0.1499,0.1578,0.1597,0.1594,0.0,0.1619,0.0,0.0,0.0,0.0,0.0,0.0,0.0,0.0,0.0,0.0,0.0,0.0,0.0,0.0,0.0,0.0,0.0,0.0,0.0,0.0,0.0,0.2229,0.2135,0.2113,0.2155,0.2154,0.2154,0.2188,0.2188,0.2188,0.2188,0.2188,0.2188,0.2188,0.2188,0.2188,0.2188,0.2188,0.2188,0.2188,0.2188,0.2188,0.2154,0.2188,0.2154,0.212,0.2188,0.2188,0.2154,0.0,0.0,0.0,0.0,0.0,0.0,0.0,0.0,0.0,0.0,0.0,0.0,0.0,-2.0355,-2.0066,-1.9498,-1.8768,-1.831,-1.8226,-1.8091,-1.7204,-1.5428,-1.5609,-1.4869,-1.2899,-1.3031,-1.2988,-1.2705,-1.2705,-1.2898,-1.3221,-1.3221,-1.3138,-1.2968,-1.3198,-1.3008,-1.2513,-1.2303,-1.2221,-1.2264,-1.2043,-1.2178,-1.2526,-1.2188,-1.1786,-1.1182,-0.9755,0.0,0.0,0.0,0.0,0.0,0.0,0.0,-0.3303,-0.1541,-0.0134,0.0901,0.0966,0.1222,0.1541,0.1641,0.1611,0.1675,0.185,0.1887,0.192,0.0,0.0,0.0,0.0,0.0,0.0,0.0,0.0,0.0,0.0,0.0,0.0,0.0,0.0,0.0,0.0,0.0,0.0,0.0,0.0,0.0,0.2304,0.2242,0.2217,0.219,0.2149,0.2147,0.2186,0.2188,0.2188,0.2188,0.2188,0.2188,0.2188,0.2188,0.2188,0.2188,0.2188,0.2188,0.2188,0.2188,0.2188,0.2188,0.2188,0.2188,0.2188,0.2188,0.2188,0.2188,0.0,0.0,0.0,0.0,0.0,0.0,0.0,0.0,0.0,-2.078,0.0,0.0,0.0,0.0,-2.0748,-1.9912,-1.9028,-1.8542,-1.8621,-1.8477,-1.7556,-1.5597,-1.5812,-1.5014,-1.3026,-1.3029,-1.2987,-1.2843,-1.2747,-1.285,-1.3121,-1.3025,-1.2903,-1.2769,-1.2881,-1.2779,-1.253,-1.2384,-1.2429,-1.2506,-1.2183,-1.2296,-1.2614,-1.2296,-1.189,-1.131,0.0,0.0,0.0,0.0,0.0,0.0,0.0,0.0,0.0,-0.0905,0.0403,0.1397,0.1472,0.1488,0.151,0.1571,0.1686,0.1744,0.188,0.203,0.2171,0.0,0.0,0.0,0.0,0.0,0.0,0.0,0.0,0.0,0.0,0.0,0.0,0.0,0.0,0.0,0.0,0.0,0.0,0.0,0.0,0.0,0.2332,0.2252,0.2163,0.2128,0.2125,0.2135,0.2156,0.2177,0.2188,0.2188,0.2188,0.2188,0.2188,0.2188,0.2188,0.2188,0.2188,0.2188,0.2188,0.2188,0.2188,0.2188,0.2188,0.2188,0.2188,0.2188,0.2188,0.2188,0.0,0.0,0.0,0.0,0.0,0.0,0.0,0.0,-2.1612,-2.1218,0.0,0.0,0.0,0.0,0.0,-2.0633,-1.9929,-1.9271,-1.8681,-1.9007,-1.8179,-1.5891,-1.6126,-1.5407,-1.3559,-1.3227,-1.3139,-1.3083,-1.285,-1.285,-1.3059,-1.2831,-1.2988,-1.3426,-1.2735,-1.2306,-1.2116,-1.2581,-1.2791,-1.2802,-1.2797,-1.2614,-1.2474,-1.291,-1.2802,0.0,-1.1682,-1.0649,0.0,-0.8081,0.0,0.0,0.0,0.0,0.0,-0.1398,-0.0045,0.1399,0.0,0.0,0.0,0.16,0.1817,0.1927,0.1757,0.0,0.2318,0.0,0.0,0.0,0.0,0.0,0.0,0.0,0.0,0.0,0.0,0.0,0.0,0.0,0.0,0.0,0.0,0.0,0.0,0.0,0.0,0.2486,0.2422,0.2272,0.2126,0.2006,0.2123,0.2157,0.2096,0.2156,0.2188,0.2188,0.2188,0.2188,0.2188,0.2188,0.2188,0.2188,0.2188,0.2188,0.2188,0.2188,0.2188,0.2188,0.2188,0.2188,0.2188,0.2188,0.2188,0.2188,0.0,0.0,0.0,0.0,0.0,-2.456,-2.4043,-2.3509,-2.2953,0.0,0.0,0.0,-2.1944,-2.1644,-2.1346,-2.1107,-2.0359,-1.98,-1.9427,-1.9264,-1.8286,-1.6242,-1.6424,-1.5635,-1.3565,-1.3628,-1.3507,-1.3083,-1.3049,-1.2946,-1.2819,-1.2741,-1.2617,-1.2423,-1.2414,-1.2248,-1.2025,-1.2162,-1.2333,-1.2495,-1.2364,-1.2462,-1.2689,-1.2472,0.0,0.0,0.0,-1.0369,-0.9426,0.0,-0.6844,-0.5493,0.0,0.0,-0.1537,-0.0706,0.0468,0.1455,0.1511,0.0,0.0,0.0,0.0,0.0,0.0,0.0,0.0,0.0,0.0,0.0,0.0,0.0,0.0,0.0,0.0,0.0,0.0,0.0,0.0,0.0,0.0,0.0,0.0,0.0,0.0,0.0,0.262,0.253,0.2387,0.2272,0.2107,0.1943,0.2099,0.2157,0.2096,0.2156,0.2188,0.2188,0.2188,0.2188,0.2188,0.2188,0.2188,0.2188,0.2188,0.2188,0.2188,0.2188,0.2188,0.2188,0.2188,0.2188,0.2188,0.2188,0.2188,0.2195,0.0,0.0,0.0,0.0,0.0,-2.4875,-2.4326,-2.4079,-2.3664,0.0,0.0,0.0,-2.289,-2.251,-2.2158,-2.1954,-2.1252,-2.065,-2.0223,-2.0009,-1.8933,-1.6823,-1.687,-1.5973,-1.3886,-1.3882,-1.3755,-1.3447,-1.323,-1.3009,-1.2855,-1.2571,-1.2322,-1.2148,-1.221,-1.2152,-1.1992,-1.1992,-1.2142,-1.2398,-1.2262,-1.2371,0.0,-1.257,-1.2651,0.0,0.0,0.0,-0.9476,-0.8772,-0.7291,0.0,0.0,0.0,0.0,0.0,0.0,0.0942,0.1366,0.1507,0.1517,0.1561,0.0,0.0,0.1982,0.2291,0.0,0.0,0.0,0.0,0.0,0.0,0.0,0.0,0.0,0.0,0.0,0.0,0.0,0.0,0.0,0.0,0.0,0.0,0.0,0.0,0.2613,0.2489,0.2317,0.2232,0.2099,0.1918,0.2066,0.212,0.2058,0.2143,0.2188,0.2188,0.2188,0.2188,0.2188,0.2188,0.2188,0.2188,0.2188,0.2188,0.2221,0.2487,0.2453,0.2188,0.2188,0.2188,0.219,0.2217,0.2192,0.2196,0.0,0.0,-2.423,-2.4276,-2.4275,-2.4284,-2.433,-2.4303,-2.3969,0.0,-2.3416,-2.3849,-2.4358,-2.4158,-2.3728,-2.3046,-2.2347,-2.1696,-2.1062,-2.0946,-1.9841,-1.7404,-1.7296,-1.6358,-1.434,-1.4069,-1.3936,-1.3906,-1.3441,-1.318,-1.3081,-1.241,-1.2188,-1.2347,-1.2082,-1.1995,-1.2,-1.1957,-1.2075,-1.2354,-1.2357,-1.2409,0.0,0.0,-1.2942,-1.2835,-1.299,-1.1633,-0.9756,-0.948,-0.7723,0.0,0.0,0.0,0.0,0.0,-0.0884,0.0139,0.121,0.1491,0.1503,0.0,0.0,0.0,0.1707,0.2169,0.2627,0.0,0.0,0.0,0.0,0.0,0.0,0.0,0.0,0.0,0.0,0.0,0.0,0.0,0.0,0.0,0.0,0.2826,0.2767,0.2707,0.2583,0.2406,0.22,0.2211,0.2103,0.1929,0.2034,0.2066,0.2004,0.2118,0.2178,0.2178,0.2183,0.2188,0.2188,0.2188,0.2188,0.2188,0.2287,0.2321,0.2354,0.305,0.2919,0.2321,0.2388,0.2459,0.2473,0.2466,0.2492,0.2499,0.0,-2.3238,-2.3869,-2.456,-2.4656,-2.4766,-2.5139,-2.4867,-2.4601,-2.4445,-2.4491,-2.4812,-2.558,-2.5326,-2.4814,-2.4143,-2.3497,-2.2677,-2.1752,-2.1186,-1.9841,-1.7404,-1.7296,-1.6358,-1.434,-1.425,-1.4117,-1.3906,-1.3803,-1.3527,-1.3093,-1.278,-1.2449,-1.2087,-1.1841,-1.1869,-1.2,-1.1613,-1.1662,-1.2095,-1.2133,-1.2397,-1.2753,-1.284,-1.2851,-1.2818,-1.2862,-1.2006,-1.0605,-0.8758,-0.7144,-0.578,0.0,0.0,0.0,-0.192,0.0,0.0,0.0,0.0,0.0,0.0,0.0,0.0,0.2069,0.222,0.2446,0.0,0.0,0.0,0.0,0.0,0.0,0.0,0.0,0.0,0.0,0.0,0.0,0.0,0.0,0.0,0.0,0.2908,0.2875,0.277,0.2606,0.2406,0.22,0.2211,0.2122,0.1991,0.2056,0.2066,0.2004,0.2076,0.2113,0.2114,0.2164,0.2188,0.2188,0.2188,0.2188,0.2221,0.2787,0.3017,0.305,0.3785,0.3651,0.305,0.3654,0.3978,0.4129,0.4144,0.4207,0.4298,-2.3123,-2.3574,-2.4106,-2.4931,-2.5078,-2.5207,-2.5663,-2.5543,-2.5424,-2.5424,-2.5894,-2.6324,-2.627,-2.6162,-2.5774,-2.5102,-2.4269,-2.3342,-2.2325,-2.1741,-2.0301,-1.7702,-1.7431,-1.6358,-1.434,-1.4298,-1.4232,-1.4099,-1.3972,-1.3672,-1.3292,-1.2956,-1.2552,-1.204,-1.1894,-1.1853,-1.1828,-1.1613,-1.1789,-1.221,-1.2133,0.0,-1.2478,-1.2721,-1.2813,-1.2813,-1.2813,-1.1775,-1.0141,-0.8411,-0.6985,0.0,0.0,-0.4874,-0.4015,0.0,-0.1595,-0.057,0.0,0.0,0.0,0.1507,0.0,0.0,0.0,0.2035,0.2306,0.264,0.2927,0.0,0.0,0.0,0.0,0.0,0.0,0.0,0.0,0.0,0.0,0.0,0.0,0.0,0.0,0.2936,0.2837,0.2745,0.2597,0.2433,0.2253,0.2215,0.2143,0.2052,0.2078,0.208,0.2049,0.211,0.2142,0.2142,0.2172,0.2188,0.2188,0.2188,0.2388,0.272,0.305,0.3416,0.3818,0.455,0.4613,0.4312,0.4287,0.4428,0.461,0.4596,0.4698,0.4851,-2.3435,-2.3868,-2.4459,-2.5277,-2.5424,-2.558,-2.6058,-2.6067,-2.6067,-2.6223,-2.7105,-2.7528,-2.6985,-2.6909,-2.6695,-2.6047,-2.4959,-2.3905,-2.2962,-2.2397,-2.0933,-1.8311,-1.7731,-1.6578,-1.4627,-1.4443,-1.4352,-1.4298,-1.4087,-1.3809,-1.3485,-1.3065,-1.2625,-1.2154,-1.2002,-1.1883,-1.1832,-1.1695,-1.1932,-1.2363,0.0,-1.2148,-1.2272,-1.2662,-1.2813,-1.2807,-1.2759,-1.1444,-0.9583,-0.8453,-0.7277,-0.6215,-0.5728,-0.5436,0.0,0.0,0.0,0.0,0.0,0.0,0.0,0.0,0.0,0.1532,0.0,0.0,0.0,0.2262,0.0,0.0,0.0,0.0,0.0,0.0,0.0,0.0,0.0,0.0,0.0,0.0,0.0,0.0,0.0,0.2953,0.2824,0.2702,0.2601,0.2489,0.2322,0.2248,0.2195,0.2132,0.2107,0.2095,0.2095,0.2145,0.217,0.217,0.2315,0.2388,0.2388,0.2555,0.2887,0.3416,0.3549,0.3949,0.4583,0.5279,0.558,0.555,0.4979,0.4869,0.5069,0.5096,0.523,0.5382,-2.348,-2.3868,-2.4459,-2.5277,-2.5424,-2.5681,-2.6399,-2.6251,-2.6269,-2.694,-2.716,-2.7481,-2.8122,-2.7893,-2.7512,-2.7134,-2.5806,-2.4694,-2.3983,-2.3022,-2.1543,-1.9328,-1.8562,-1.7405,-1.5669,-1.4972,-1.4545,-1.4298,-1.4268,-1.3986,-1.3485,-1.3242,-1.2883,-1.2355,-1.1903,-1.193,-1.2258,-1.1614,-1.175,0.0,-1.2186,-1.2348,0.0,-1.2791,-1.2813,-1.2786,-1.2527,-1.1556,-1.0235,0.0,-0.8288,-0.7152,0.0,-0.5584,-0.4973,-0.3821,0.0,0.0,0.0,0.0,0.0,0.0,0.1435,0.0,0.0,0.0,0.1893,0.2181,0.0,0.0,0.0,0.0,0.0,0.0,0.0,0.0,0.0,0.0,0.0,0.0,0.0,0.0,0.0,0.0,0.2824,0.2702,0.268,0.2595,0.2382,0.2312,0.2252,0.2191,0.212,0.2095,0.2095,0.2102,0.2106,0.2106,0.2784,0.3084,0.3117,0.3751,0.4087,0.4217,0.4882,0.5213,0.5312,0.6017,0.6284,0.63,0.6395,0.6557,0.6726,0.6867,0.7039,0.7222,-2.3895,-2.4082,-2.4385,-2.4931,-2.5032,-2.5216,-2.5793,-2.6572,-2.7105,-2.716,-2.7985,-2.8608,-2.8718,-2.8069,-2.7634,-2.7759,0.0,-2.4971,0.0,0.0,-2.1784,-1.941,-1.8642,-1.7408,-1.5455,-1.493,-1.4576,-1.4298,-1.4298,-1.3981,-1.3311,-1.3249,-1.2843,-1.224,-1.2035,-1.2048,-1.2215,-1.1883,-1.1997,0.0,0.0,0.0,0.0,-1.256,-1.2521,-1.2386,-1.2283,-1.1482,-1.0329,0.0,-0.8346,0.0,0.0,0.0,0.0,0.0,0.0,0.0,0.0,0.0,0.0,0.0,0.0,0.0,0.1441,0.0,0.1825,0.0,0.0,0.0,0.0,0.0,0.0,0.0,0.0,0.0,0.0,0.0,0.0,0.0,0.0,0.0,0.0,0.0,0.0,0.0,0.0,0.2658,0.2582,0.2454,0.232,0.2263,0.2178,0.2151,0.2149,0.2541,0.2737,0.2737,0.3498,0.3851,0.3851,0.4154,0.4519,0.4948,0.5279,0.57,0.6158,0.6328,0.6542,0.6771,0.6849,0.6922,0.7012,0.7159,0.7334,0.7484,-2.4358,-2.4284,-2.4339,-2.4711,-2.4785,-2.495,-2.5506,-2.6572,-2.7344,-2.7334,-2.8352,-2.9094,-2.9021,-2.821,0.0,0.0,-2.6583,-2.5353,0.0,0.0,-2.2416,0.0,0.0,0.0,0.0,-1.5177,-1.4648,-1.4298,-1.4298,-1.3963,-1.3301,-1.3232,-1.286,-1.2289,-1.2154,-1.217,-1.2283,-1.2148,-1.2272,-1.2506,-1.2441,-1.2377,-1.2312,-1.2312,-1.2161,-1.1997,-1.1997,-1.1449,-1.0567,-0.9556,-0.8615,0.0,-0.6429,0.0,0.0,0.0,0.0,0.0,-0.3218,0.0,0.0,0.0,0.0,0.0,0.0,0.0,0.0,0.0,0.0,0.0,0.0,0.0,0.0,0.0,0.0,0.0,0.0,0.0,0.0,0.0,0.0,0.0,0.0,0.0,0.0,0.0,0.2801,0.0,0.2718,0.2575,0.2467,0.2373,0.2296,0.2229,0.2239,0.2895,0.3208,0.3215,0.4148,0.4619,0.4616,0.4785,0.5206,0.5744,0.5701,0.6105,0.6753,0.6566,0.6672,0.6992,0.7045,0.7065,0.7086,0.7228,0.7374,0.7484,-2.4684,-2.4486,-2.4339,-2.4711,-2.4785,-2.5041,-2.5874,-2.6039,-2.6489,-2.7647,-2.7849,0.0,0.0,0.0,0.0,0.0,0.0,-2.6082,-2.5417,0.0,-2.3646,0.0,0.0,-1.876,0.0,0.0,-1.4835,-1.4298,-1.4298,-1.401,-1.3474,-1.3265,-1.3045,-1.277,-1.23,-1.2354,-1.2759,-1.2294,-1.2364,-1.278,-1.2506,-1.2269,-1.2105,0.0,-1.1959,-1.1709,-1.1709,0.0,0.0,-1.0361,-0.9431,0.0,0.0,0.0,0.0,0.0,0.0,0.0,0.0,0.0,0.0,-0.171,0.0,0.0,0.0,0.0,0.1391,0.0,0.0,0.0,0.0,0.0,0.0,0.2211,0.0,0.0,0.0,0.0,0.0,0.0,0.0,0.0,0.0,0.0,0.0,0.3005,0.2947,0.0,0.2783,0.2719,0.2655,0.2595,0.2476,0.235,0.2293,0.2972,0.3269,0.3215,0.468,0.5378,0.5378,0.605,0.6451,0.6642,0.6464,0.6619,0.6963,0.678,0.6816,0.7004,0.7147,0.7179,0.7203,0.7411,0.748,0.7484,-2.4179,-2.4295,-2.4443,-2.4548,-2.4446,-2.4689,-2.5497,-2.5853,-2.6562,0.0,-2.8259,0.0,0.0,-2.8853,-2.8263,0.0,0.0,-2.6041,-2.5061,-2.4521,0.0,0.0,0.0,-1.9297,0.0,0.0,0.0,0.0,-1.4389,-1.3969,-1.3282,-1.3238,-1.2871,-1.2337,-1.2291,-1.2382,-1.2533,0.0,0.0,0.0,0.0,-1.2221,-1.2237,0.0,0.0,-1.1429,-1.1429,-1.1375,0.0,-1.0289,-0.9733,-0.935,-0.8434,-0.7497,-0.6703,-0.6478,-0.5902,0.0,0.0,0.0,-0.418,-0.306,0.0,0.0,0.0,0.0,0.0,0.0,0.0,0.0,0.0,0.0,0.193,0.1936,0.0,0.0,0.0,0.0,0.0,0.0,0.0,0.0,0.0,0.0,0.0,0.3007,0.2598,0.2424,0.0,0.2523,0.2469,0.2413,0.2501,0.2492,0.2355,0.3525,0.4069,0.4027,0.5396,0.605,0.6083,0.6284,0.6453,0.6509,0.6444,0.6623,0.6975,0.6796,0.6932,0.7335,0.7244,0.7297,0.7403,0.746,0.76,0.7722,-2.4279,-2.4437,-2.4445,-2.4268,-2.4143,-2.434,-2.5002,-2.5802,0.0,0.0,-2.8248,0.0,-2.9171,0.0,-2.7887,0.0,-2.6712,-2.5925,-2.5069,-2.4658,0.0,-2.2442,-2.0907,0.0,0.0,0.0,0.0,0.0,0.0,-1.407,-1.3288,-1.3244,-1.2832,-1.2235,-1.2344,-1.2414,-1.2431,-1.271,-1.2813,0.0,0.0,-1.2221,0.0,0.0,-1.1434,-1.1418,0.0,-1.1305,-1.1219,-1.0603,-1.0164,-0.9816,-0.92,-0.8178,-0.7168,-0.6986,-0.6317,-0.5574,-0.5297,-0.5182,0.0,0.0,-0.367,0.0,-0.1505,0.0,0.0,0.0,0.0,0.0,0.0,0.0,0.0,0.1668,0.1872,0.0,0.0,0.2375,0.0,0.0,0.0,0.0,0.0,0.0,0.3219,0.2732,0.2796,0.2717,0.0,0.0,0.2315,0.2283,0.236,0.2536,0.2752,0.3835,0.4512,0.4742,0.578,0.6281,0.6218,0.6284,0.6352,0.6399,0.6475,0.6722,0.7057,0.6845,0.7045,0.748,0.7313,0.7403,0.762,0.762,0.7735,0.7866,0.0,-2.4748,-2.4367,-2.3953,-2.3907,0.0,0.0,0.0,-2.6765,0.0,-2.7845,-2.8368,-2.814,-2.7478,-2.7045,-2.7056,-2.6354,-2.5771,-2.5369,-2.4992,0.0,0.0,-2.0764,-1.9163,-1.7682,0.0,0.0,0.0,0.0,-1.427,-1.3485,-1.3288,-1.2933,-1.2414,-1.2425,-1.2425,-1.2431,-1.271,-1.2813,-1.2791,-1.2506,-1.2274,-1.2083,-1.179,0.0,-1.1666,-1.1391,-1.1305,-1.1305,-1.1305,-1.0694,-0.999,-0.999,-0.8719,-0.7228,-0.7183,-0.6526,-0.5733,-0.5463,-0.545,-0.5418,-0.5086,0.0,0.0,0.0,0.0,-0.0134,0.0,0.0,0.0,0.0,0.0,0.0,0.14,0.1598,0.0,0.0,0.0,0.0,0.0,0.0,0.0,0.0,0.3932,0.3981,0.2421,0.3414,0.3562,0.0,0.0,0.0,0.2199,0.2156,0.2583,0.3407,0.3979,0.4637,0.5331,0.5867,0.6059,0.594,0.6125,0.6298,0.6416,0.6607,0.6861,0.7169,0.6964,0.7112,0.749,0.7415,0.7565,0.7812,0.7812,0.7874,0.8012,-2.449,-2.4369,-2.422,0.0,-2.3852,-2.3912,0.0,0.0,0.0,0.0,-2.7626,-2.7909,-2.814,-2.7736,-2.709,-2.6294,-2.5996,0.0,0.0,0.0,0.0,-2.2887,-2.1073,-1.9538,-1.8319,-1.6461,0.0,-1.501,0.0,-1.4081,-1.3491,-1.3471,-1.3059,-1.2425,-1.2597,-1.2576,-1.2431,-1.271,-1.2813,-1.2791,-1.2506,-1.2377,0.0,0.0,-1.1698,-1.1666,-1.1391,-1.1305,-1.1305,-1.1305,-1.1132,-1.0954,-1.0954,-1.012,-0.9026,-0.8368,-0.7492,-0.6567,-0.5819,-0.562,-0.5613,-0.5438,-0.5137,-0.4613,0.0,0.0,0.0,0.0,0.0,0.0,0.0,0.0,0.0,0.0,0.0,0.0,0.0,0.0,0.0,0.2092,0.0,0.0,0.0,0.3089,0.2931,0.3405,0.3353,0.0,0.0,0.0,0.0,0.193,0.2763,0.3298,0.3488,0.4807,0.552,0.5671,0.6304,0.6592,0.6582,0.6528,0.6517,0.6555,0.6456,0.6602,0.6914,0.6831,0.7019,0.7363,0.7323,0.7502,0.7751,0.791,0.7975,0.8012,-2.4744,0.0,0.0,-2.4761,0.0,0.0,-2.4898,-2.5431,0.0,-2.6727,-2.7297,0.0,-2.7235,-2.7004,-2.6559,-2.5763,-2.554,0.0,-2.4847,0.0,0.0,-2.2209,-2.0281,-1.8803,-1.7723,-1.6271,0.0,-1.5107,0.0,-1.4134,-1.3491,-1.3491,-1.3059,-1.2269,-1.2656,-1.2618,-1.2274,-1.2667,-1.2813,-1.2802,-1.2619,0.0,0.0,-1.1997,-1.1725,-1.1532,-1.1354,-1.1305,-1.1305,-1.1305,-1.1305,-1.1305,-1.1305,-1.0651,-0.9728,-0.8763,-0.7841,-0.6874,-0.5955,-0.5688,-0.566,-0.5591,-0.551,-0.5208,-0.4449,-0.3789,-0.313,0.0,0.0,0.0,0.0,0.0,0.0,0.0,0.0,0.0,0.0,0.0,0.0,0.0,0.1911,0.0,0.0,0.0,0.3016,0.0,0.0,0.0,0.0,0.0,0.0,0.2288,0.298,0.3726,0.4441,0.5381,0.5939,0.62,0.65,0.6631,0.6567,0.6551,0.6543,0.6566,0.6587,0.6727,0.6886,0.6886,0.7035,0.733,0.7401,0.764,0.7893,0.7869,0.7934,0.8012,0.0,0.0,0.0,0.0,0.0,0.0,0.0,-2.5866,0.0,-2.5996,0.0,-2.7218,-2.6199,-2.5936,-2.5739,-2.5292,0.0,-2.4479,-2.4359,-2.3052,-2.1863,-2.0886,-1.9043,-1.764,-1.6696,-1.5861,0.0,0.0,0.0,-1.4246,-1.3491,-1.3491,-1.3014,-1.2208,-1.2624,-1.2581,0.0,-1.2635,-1.2813,-1.2813,-1.2813,-1.2526,-1.2094,-1.2094,-1.1758,-1.1305,-1.1305,-1.1305,-1.1305,-1.1305,-1.1305,-1.1305,-1.1305,-1.0738,-0.9859,-0.8807,-0.7929,-0.7048,-0.5977,-0.5664,-0.5661,-0.5645,-0.5518,-0.5395,-0.5393,-0.4554,-0.3757,-0.3487,-0.2632,0.0,0.0,0.0,0.0,0.0,0.0,0.0,0.0,0.0,0.0,0.0,0.0,0.0,0.0,0.0,0.0,0.0,0.0,0.0,0.0,0.0,0.0,0.0,0.3282,0.0,0.5765,0.0,0.6191,0.6787,0.663,0.6535,0.6416,0.651,0.6569,0.6573,0.683,0.6953,0.6971,0.6971,0.7114,0.7275,0.7453,0.775,0.8043,0.7793,0.7804,0.8007,0.0,0.0,0.0,0.0,0.0,-2.6268,-2.6199,-2.6362,-2.6465,-2.6396,-2.7098,-2.7424,-2.6927,-2.6311,-2.5494,-2.4404,-2.3698,0.0,0.0,0.0,0.0,-1.9355,-1.846,-1.7495,-1.6411,-1.5578,-1.5155,0.0,0.0,0.0,-1.3491,-1.3491,-1.3199,-1.2689,-1.2775,-1.2764,-1.2689,-1.2775,0.0,-1.2813,-1.2813,-1.2526,-1.2094,-1.2094,-1.1758,-1.1305,-1.1305,-1.1305,-1.1305,-1.1305,-1.1305,-1.1305,-1.1305,-1.1176,-1.0733,-0.9026,-0.8368,-0.7855,-0.604,-0.554,-0.5516,-0.5458,-0.5464,-0.5451,-0.5275,-0.5171,-0.5013,-0.4741,-0.3765,-0.2871,-0.2671,0.0,0.0,0.0,0.0,0.0,0.0,0.0,0.0,0.0,0.0,0.0,0.0,0.0,0.0,0.0,0.0,0.0,0.0,0.0,0.0,0.0,0.0,0.0,0.0,0.0,0.0,0.7296,0.7095,0.6967,0.694,0.6865,0.6824,0.6841,0.6757,0.6829,0.6927,0.6927,0.6999,0.7152,0.7179,0.7259,0.7382,0.7538,0.7731,0.7927,0.0,0.0,0.0,0.0,0.0,0.0,0.0,-2.4622,0.0,-2.633,-2.6181,-2.5819,-2.5291,-2.4472,-2.3571,-2.2617,-2.2238,-2.1764,-2.113,-2.0117,-1.9333,-1.8941,-1.7637,0.0,-1.6332,-1.5401,-1.4949,-1.5107,0.0,0.0,-1.3491,-1.3491,-1.3182,-1.2581,-1.2581,-1.2651,0.0,0.0,0.0,-1.2581,-1.2581,-1.2296,-1.182,-1.1358,-1.0929,-1.0516,-1.0033,-0.9859,-0.999,-1.0954,-1.1305,-1.1305,-1.1305,-1.1305,-1.1046,-0.9641,-0.887,-0.8127,-0.6678,-0.5886,-0.5442,-0.5424,-0.5461,-0.5464,-0.5376,-0.5468,-0.5508,-0.5235,-0.4743,-0.416,-0.3532,-0.1655,0.0,0.0,0.0,0.0,0.0,0.0,0.0,0.0,0.0,0.0,0.0,0.0,0.0,0.0,0.0,0.0,0.0,0.0,0.0,0.0,0.0,0.0,0.0,0.0,0.0,0.7251,0.7132,0.7095,0.7095,0.7024,0.6994,0.6991,0.6916,0.6927,0.6994,0.6994,0.7034,0.7095,0.7095,0.7234,0.7496,0.7676,0.7973,0.8294,0.0,-2.5016,0.0,0.0,-2.3483,0.0,-2.2811,-2.2967,-2.3807,-2.5551,-2.482,-2.3907,-2.3376,-2.2526,-2.1671,-2.0931,-2.0773,-2.0587,-2.0295,-1.8946,-1.8249,-1.8361,-1.68,-1.5994,-1.6145,-1.5111,-1.4695,0.0,0.0,0.0,0.0,-1.3394,0.0,0.0,0.0,0.0,0.0,0.0,-1.2657,-1.249,-1.2247,-1.1869,-1.136,-1.041,-0.9852,-0.9506,-0.8763,-0.85,-0.8719,-1.0207,-1.0694,-1.0694,-1.0694,-1.0694,-1.0516,-0.9593,-0.8716,-0.7885,-0.6917,-0.6008,-0.5366,-0.5342,-0.5385,-0.5437,-0.5462,-0.5564,-0.5614,-0.5502,-0.5416,-0.502,-0.3825,-0.2018,0.0,0.0,0.0,0.0,0.0,0.0,0.0,0.0,0.0,0.0,0.0,0.0,0.0,0.0,0.0,0.0,0.0,0.0,0.0,0.0,0.0,0.0,0.7512,0.0,0.7444,0.0,0.7129,0.7095,0.7095,0.7095,0.7095,0.7095,0.7095,0.7095,0.7095,0.7095,0.7095,0.7095,0.7095,0.732,0.7671,0.7815,0.8155,0.8567,0.0,0.0,0.0,0.0,0.0,0.0,0.0,-2.3303,-2.3525,-2.3442,-2.3083,-2.2822,-2.2763,-2.2127,-2.1291,-2.0119,-1.9699,-1.8924,-1.7537,-1.7303,-1.7008,-1.6539,-1.6132,-1.5783,-1.5576,-1.4763,-1.4333,0.0,0.0,0.0,0.0,0.0,0.0,0.0,0.0,0.0,0.0,-1.2813,-1.2802,-1.2678,-1.1687,-1.1086,-1.0569,-0.9604,-0.8976,-0.8632,-0.8544,-0.85,-0.8544,-0.8719,-0.8763,-0.8763,-0.8763,-0.8763,-0.8588,-0.7621,-0.7248,-0.6885,-0.5832,-0.5377,-0.5178,-0.5075,-0.5135,-0.5249,-0.5402,-0.548,-0.5556,-0.5667,-0.5508,-0.4997,-0.376,-0.2629,-0.1586,0.0,0.0,0.0,0.0,0.0,0.0,0.0,0.0,0.0,0.0,0.0,0.0,0.0,0.0,0.0,0.0,0.0,0.0,0.4692,0.0,0.7624,0.7924,0.7587,0.0,0.7553,0.7227,0.7095,0.7095,0.7095,0.7095,0.7095,0.7095,0.7095,0.7095,0.7095,0.7095,0.7095,0.7095,0.7234,0.7458,0.7668,0.7955,0.8275,0.0,0.0,0.0,0.0,0.0,0.0,0.0,-2.0281,-2.0192,-1.966,-2.0725,-2.1359,-2.1043,-2.0072,-1.9154,-1.8521,-1.8145,-1.7656,-1.692,-1.6565,-1.6186,-1.5803,-1.5487,-1.5306,-1.5208,-1.4435,-1.4123,0.0,0.0,0.0,0.0,0.0,0.0,0.0,0.0,-1.2813,-1.2813,-1.2813,-1.2732,-1.2443,-1.1285,-1.0673,-1.0221,-0.8525,-0.7823,-0.758,-0.701,-0.6833,-0.6833,-0.6833,-0.7577,-0.85,-0.85,-0.85,-0.8412,-0.8061,-0.744,-0.6808,-0.6373,-0.5673,-0.5091,-0.5113,-0.5208,-0.5328,-0.545,-0.5529,-0.5629,-0.568,-0.5644,-0.5431,-0.4932,-0.3906,-0.2827,0.0,0.0,0.0,0.0,0.0,0.0,0.0,0.0,0.0,0.0,0.0,0.0,0.0,0.0,0.0,0.0,0.0,0.0,0.5749,0.0,0.7695,0.7899,0.7726,0.7624,0.7597,0.738,0.7278,0.7275,0.7139,0.7095,0.7102,0.7238,0.7224,0.7102,0.7241,0.7224,0.7105,0.7244,0.7373,0.7566,0.7889,0.8154,0.8343,-2.0639,0.0,-2.0684,0.0,-1.9273,-1.9337,-1.8228,-1.7982,-1.7779,-1.7278,-1.8557,-1.9431,-1.908,-1.8023,-1.7333,-1.7149,-1.6893,-1.6594,-1.6347,-1.5946,-1.5603,-1.5304,-1.5024,0.0,-1.4826,-1.4142,-1.3835,-1.3965,-1.3303,0.0,0.0,0.0,0.0,0.0,-1.2813,-1.2813,-1.2813,-1.2813,-1.2517,-1.1956,-1.0731,-0.9965,-0.9319,-0.7482,-0.6735,-0.6615,-0.5952,-0.5688,-0.5688,-0.5688,-0.6567,-0.7665,-0.7665,-0.7665,-0.7665,-0.7665,-0.7085,-0.6412,-0.6411,-0.5772,-0.5132,-0.5175,-0.532,-0.539,-0.5477,-0.5548,-0.5645,-0.5683,-0.5688,-0.5688,-0.5688,-0.48,-0.369,0.0,0.0,0.0,0.0,0.0,0.0,0.0,0.1421,0.1425,0.1335,0.0,0.0,0.0,0.0,0.0,0.0,0.0,0.0,0.0,0.0,0.0,0.0,0.0,0.776,0.7658,0.7509,0.7438,0.7434,0.7326,0.723,0.7237,0.739,0.7377,0.7237,0.7394,0.7373,0.7243,0.7397,0.7529,0.7675,0.7973,0.8157,0.834,-1.8886,-1.8302,-1.8033,-1.8033,-1.7833,-1.7737,-1.7737,-1.7462,-1.7211,-1.6948,-1.6914,-1.6914,-1.6969,-1.6533,-1.6241,-1.6235,-1.5995,-1.5681,-1.5435,-1.5412,-1.5298,0.0,0.0,-1.4495,-1.4314,-1.3754,-1.3357,-1.3109,0.0,0.0,-1.2813,0.0,-1.2813,-1.2813,-1.2813,-1.2813,-1.2813,-1.2813,-1.2214,-1.1102,-0.9883,-0.8756,-0.7613,-0.636,-0.5831,-0.5733,-0.5688,-0.5688,-0.5688,-0.5688,-0.5733,-0.5733,-0.5733,-0.5733,-0.5733,-0.5733,-0.5646,-0.5521,-0.5443,-0.5407,-0.5377,-0.5216,-0.532,-0.541,-0.5413,-0.5466,-0.5543,-0.5664,-0.5688,-0.5688,-0.5688,-0.4926,-0.392,-0.2709,0.0,0.0,0.0,0.0,0.0,0.0,0.158,0.1534,0.1398,0.0,0.0,0.0,0.0,0.0,0.0,0.0,0.0,0.6403,0.7411,0.0,0.7985,0.7885,0.7811,0.7807,0.7665,0.7597,0.7597,0.7594,0.7594,0.7594,0.7597,0.7597,0.7594,0.7597,0.7597,0.7594,0.7597,0.7685,0.7811,0.7811,0.7909,0.8012,-1.7792,-1.7605,-1.7537,-1.7537,-1.7474,-1.7303,-1.6948,-1.6792,-1.6591,-1.61,-1.6008,-1.6008,-1.6008,-1.6138,-1.6103,0.0,-1.5675,-1.5437,0.0,-1.4974,-1.4743,-1.4461,-1.4184,-1.4001,-1.3983,-1.3483,-1.3184,-1.3104,0.0,0.0,0.0,-1.2813,-1.2414,-1.1717,-1.1717,-1.1277,-1.0641,-1.0641,-1.044,-1.0021,-0.8754,-0.8001,-0.756,-0.627,-0.5721,-0.5688,-0.5688,-0.5688,-0.5688,-0.5688,-0.5688,-0.5688,-0.5688,-0.5688,-0.5688,-0.5688,-0.5602,-0.5499,-0.5459,-0.5431,-0.5379,-0.5423,-0.5421,-0.5472,-0.56,-0.5605,-0.5642,-0.568,-0.5688,-0.5688,-0.5688,-0.5466,-0.471,-0.3025,0.0,0.0,0.0,0.0,0.0,0.0,0.0,0.1436,0.0,0.1468,0.0,0.0,0.0,0.0,0.0,0.0,0.0,0.0,0.7717,0.0,0.7988,0.7941,0.7917,0.7917,0.7814,0.7692,0.76,0.76,0.76,0.7604,0.7702,0.7689,0.7607,0.7702,0.7685,0.7607,0.7706,0.777,0.7824,0.788,0.8065,0.8204,-1.7111,-1.6993,-1.6932,-1.6932,-1.6853,-1.6675,-1.6343,-1.6244,-1.5975,-1.5499,-1.5467,-1.5397,-1.5219,-1.5412,0.0,-1.5445,-1.5138,-1.4893,-1.4724,-1.4532,-1.4401,-1.4196,-1.3954,-1.3782,-1.3696,0.0,0.0,-1.2974,-1.2883,-1.2813,-1.2813,-1.2414,-1.1819,-1.117,-1.0783,-1.0243,-0.9604,-0.9535,-0.9311,-0.8841,-0.7994,-0.7363,-0.6919,-0.6031,-0.5688,-0.5688,-0.5688,-0.5688,-0.5688,-0.5688,-0.5688,-0.5688,-0.5688,-0.5688,-0.5688,-0.5688,-0.5634,-0.5567,-0.5521,-0.5486,-0.5513,-0.5499,-0.5543,-0.5597,-0.5672,-0.5653,-0.5634,-0.568,-0.5688,-0.5688,-0.5688,-0.5723,-0.516,-0.3216,0.0,-0.1945,0.0,0.0,0.0,0.0,0.0,0.0,0.0,0.1493,0.0,0.0,0.0,0.0,0.0,0.0,0.0,0.7988,0.7897,0.0,0.7988,0.7988,0.7988,0.7988,0.7894,0.7851,0.7763,0.7763,0.7763,0.777,0.7858,0.7845,0.7773,0.7862,0.7845,0.7773,0.7862,0.7896,0.7909,0.7955,0.8136,0.833,-1.6747,-1.6444,0.0,0.0,-1.6075,0.0,-1.5985,-1.5736,-1.5515,-1.5226,-1.5194,-1.5017,-1.4555,-1.4491,-1.4622,-1.4842,0.0,0.0,0.0,-1.4186,-1.418,-1.4148,-1.3922,0.0,-1.3459,-1.3206,-1.2974,-1.2813,-1.271,-1.271,-1.2662,-1.157,-1.1023,-1.0925,-0.9948,-0.9452,-0.9383,-0.926,-0.8605,-0.7661,-0.7472,-0.6813,-0.589,-0.5731,-0.5688,-0.5688,-0.5688,-0.5688,-0.5688,-0.5688,-0.5688,-0.5688,-0.5688,-0.5688,-0.5688,-0.5688,-0.5688,-0.5664,-0.5551,-0.5602,-0.5661,-0.5548,-0.5605,-0.5688,-0.5688,-0.5602,-0.5551,-0.5664,-0.5688,-0.5688,-0.5688,-0.5825,-0.5254,-0.3227,-0.2951,-0.2214,0.0046,0.0,0.0,0.0,0.0,0.0,0.0,0.162,0.1622,0.0,0.0,0.0,0.0,0.0,0.7988,0.7988,0.7988,0.7988,0.7988,0.7988,0.7988,0.7988,0.7988,0.7988,0.7988,0.7988,0.7988,0.7988,0.7988,0.7988,0.7988,0.7988,0.7988,0.7988,0.7988,0.7995,0.8005,0.8005,0.816,0.8371,0.0,0.0,-1.5768,-1.5768,-1.572,-1.5682,-1.5682,-1.5634,-1.5515,-1.5226,-1.5194,-1.5081,-1.4832,-1.4643,-1.4502,-1.4611,-1.4358,-1.4116,-1.3922,-1.4089,-1.4029,-1.3663,-1.3588,-1.3443,-1.32,-1.2964,-1.2867,-1.2813,-1.1965,-1.157,-1.1565,-1.0489,-0.9554,-0.8761,-0.8517,-0.7914,-0.7085,-0.7052,-0.6834,-0.649,-0.6331,-0.613,-0.589,-0.5731,-0.5688,-0.5688,-0.5688,-0.5688,-0.5688,-0.5688,-0.5688,-0.5688,-0.5688,-0.5688,-0.5688,-0.5688,-0.5688,-0.5683,-0.5653,-0.5667,-0.5683,-0.5653,-0.5667,-0.5688,-0.5688,-0.5667,-0.5653,-0.5683,-0.5688,-0.5688,-0.5688,-0.5825,-0.5254,-0.3227,-0.2951,-0.226,-0.0185,0.0,0.0,0.0,0.1276,0.1538,0.1568,0.162,0.1581,0.0,0.0,0.0,0.0,0.0,0.7988,0.7988,0.7988,0.7988,0.7988,0.7988,0.7988,0.7988,0.7988,0.7988,0.7988,0.7988,0.7988,0.7988,0.7988,0.7988,0.7988,0.7988,0.7988,0.7988,0.7988,0.8113,0.8214,0.8214,0.8381,0.8611,-1.5601,-1.5601,-1.5601,-1.5601,-1.5601,-1.5601,-1.5601,-1.5601,-1.5478,-1.5128,-1.5085,-1.495,-1.4606,-1.4455,-1.4379,-1.4379,-1.4164,-1.3965,-1.383,-1.3852,-1.375,-1.3491,-1.3367,-1.3243,-1.3109,-1.2877,-1.2565,-1.2068,-1.0979,-1.0489,-1.0435,-0.9323,-0.8494,-0.7968,-0.7397,-0.6806,-0.6311,-0.6149,-0.6064,-0.5991,-0.5874,-0.5825,-0.5817,-0.5712,-0.5688,-0.5688,-0.5688,-0.5688,-0.5688,-0.5688,-0.5688,-0.5688,-0.5688,-0.5688,-0.5688,-0.5688,-0.5688,-0.5688,-0.5688,-0.5688,-0.5688,-0.5688,-0.5688,-0.5688,-0.5688,-0.5688,-0.5688,-0.5688,-0.5688,-0.5704,-0.5801,-0.5491,-0.4735,-0.3219,-0.2608,-0.1755,-0.0048,0.0519,0.0,0.095,0.1296,0.1559,0.159,0.1592,0.1599,0.1615,0.0,0.0,0.4774,0.6381,0.7487,0.7988,0.7988,0.7988,0.7988,0.7988,0.7988,0.7988,0.7988,0.7988,0.7988,0.7988,0.7988,0.7988,0.7988,0.7988,0.7988,0.7988,0.7988,0.7988,0.7988,0.8133,0.8323,0.8323,0.8414,0.8615,-1.5601,-1.5601,-1.5601,-1.5601,-1.5601,-1.5601,-1.5601,-1.5569,-1.5386,-1.4939,-1.4853,-1.467,-1.4239,-1.4196,-1.4196,-1.4196,-1.3768,-1.3609,-1.3713,-1.3459,-1.3275,-1.3164,-1.2838,-1.2633,-1.2547,-1.2415,-1.1868,-1.0974,-0.9899,-0.9345,-0.9318,-0.815,-0.7612,-0.7651,-0.6604,-0.6132,-0.6248,-0.5991,-0.5893,-0.5869,-0.5729,-0.5688,-0.5688,-0.5688,-0.5688,-0.5688,-0.5688,-0.5688,-0.5688,-0.5688,-0.5688,-0.5688,-0.5688,-0.5688,-0.5688,-0.5688,-0.5688,-0.5688,-0.5688,-0.5688,-0.5688,-0.5688,-0.5688,-0.5688,-0.5688,-0.5688,-0.5688,-0.5688,-0.5688,-0.5679,-0.5651,-0.5015,-0.4113,-0.2928,-0.2105,-0.1127,0.0196,0.0,0.0916,0.1176,0.1428,0.1589,0.1614,0.1617,0.1667,0.1818,0.2822,0.0,0.0,0.6082,0.7039,0.7988,0.7988,0.7988,0.7988,0.7988,0.7988,0.7988,0.7988,0.7988,0.7988,0.7988,0.7988,0.7988,0.7988,0.7988,0.7992,0.8015,0.8012,0.7995,0.8039,0.8187,0.8357,0.833,0.8428,0.857,-1.5601,-1.5601,-1.5601,-1.5601,-1.5601,-1.5601,-1.5601,-1.5429,-1.5145,-1.4918,-1.4713,-1.4487,-1.4223,-1.4196,-1.4196,-1.4196,-1.2983,-1.258,-1.3477,-1.284,-1.2147,-1.1594,-1.0856,-1.0401,-1.0143,-1.0113,-1.0002,-0.9854,-0.8764,-0.8203,-0.807,-0.6997,-0.6461,-0.6376,-0.6197,-0.604,-0.5958,-0.5918,-0.5847,-0.5715,-0.5696,-0.5688,-0.5688,-0.5688,-0.5688,-0.5688,-0.5688,-0.5688,-0.5688,-0.5688,-0.5688,-0.5688,-0.5688,-0.5688,-0.5688,-0.5688,-0.5688,-0.5688,-0.5688,-0.5688,-0.5688,-0.5688,-0.5688,-0.5688,-0.5688,-0.5688,-0.5688,-0.5688,-0.5688,-0.5452,-0.4684,-0.45,-0.3874,-0.1953,-0.1617,-0.1127,0.0,0.0,0.0881,0.1178,0.1444,0.1611,0.1616,0.1617,0.1969,0.2873,0.3924,0.5027,0.6084,0.7185,0.7839,0.7988,0.7988,0.7988,0.7988,0.7988,0.7988,0.7988,0.7988,0.7988,0.7988,0.7988,0.7988,0.7988,0.7988,0.7988,0.8002,0.818,0.8157,0.8015,0.8316,0.8428,0.8465,0.8594,0.8737,0.8817,-1.5575,-1.5601,-1.5601,-1.5601,-1.5494,-1.5349,-1.5349,-1.5208,-1.4966,-1.4729,-1.46,-1.4164,-1.3325,-1.3246,-1.2975,-1.2372,-1.1652,-1.1398,-1.1773,-1.118,-1.0676,-1.0355,-0.9983,-0.9739,-0.9608,-0.9015,-0.8715,-0.8715,-0.7673,-0.7112,-0.6985,-0.6438,-0.614,-0.6081,-0.5953,-0.5899,-0.5899,-0.5839,-0.5737,-0.5688,-0.5688,-0.5688,-0.5688,-0.5688,-0.5688,-0.5688,-0.5688,-0.5688,-0.5688,-0.5688,-0.5688,-0.5688,-0.5688,-0.5688,-0.5688,-0.5688,-0.5688,-0.5688,-0.5688,-0.5688,-0.5688,-0.5688,-0.5688,-0.5688,-0.5688,-0.5329,-0.4926,-0.4926,-0.4561,-0.4072,-0.3688,-0.3192,-0.2528,-0.1637,-0.0946,0.0,0.0,0.0847,0.1097,0.1396,0.1508,0.1617,0.1617,0.1617,0.207,0.3123,0.4175,0.5277,0.6334,0.7437,0.7988,0.7988,0.7988,0.7988,0.7988,0.7988,0.7988,0.7988,0.7988,0.7988,0.7988,0.7988,0.7988,0.7988,0.7988,0.7988,0.8002,0.8208,0.8228,0.8184,0.8397,0.8533,0.8615,0.8682,0.8754,0.8828,-1.5553,-1.5601,-1.5601,-1.5601,-1.5402,-1.5135,-1.4834,-1.4588,-1.4224,-1.3765,-1.3643,-1.3212,-1.2105,-1.1978,-1.1655,-1.0781,-1.0413,-1.0174,-0.9934,-0.9318,-0.908,-0.9334,-0.9042,-0.8923,-0.8923,-0.8088,-0.7627,-0.7627,-0.6783,-0.638,-0.6317,-0.6173,-0.6113,-0.6078,-0.5896,-0.5863,-0.5937,-0.5822,-0.5729,-0.5726,-0.5699,-0.5688,-0.5688,-0.5688,-0.5688,-0.5688,-0.5688,-0.5704,-0.5729,-0.5729,-0.5748,-0.5766,-0.5737,-0.5729,-0.5723,-0.5696,-0.5707,-0.5723,-0.5696,-0.5688,-0.5688,-0.5688,-0.5688,-0.5649,-0.5407,-0.4824,-0.4244,-0.4038,-0.34,-0.2851,-0.2671,-0.1939,-0.1331,-0.1156,0.0,0.0,0.0,0.1061,0.1313,0.1566,0.1617,0.1617,0.1617,0.1617,0.207,0.3123,0.4175,0.5277,0.6334,0.7437,0.7988,0.7988,0.7988,0.7988,0.7988,0.7988,0.7988,0.7988,0.7988,0.7988,0.7988,0.7988,0.7988,0.7988,0.7988,0.8008,0.8106,0.8258,0.8371,0.8336,0.852,0.8638,0.8713,0.875,0.8764,0.8781,-1.5553,-1.5601,-1.5601,-1.5601,-1.5402,-1.4834,-1.3761,-1.3245,-1.253,-1.1436,-1.1121,-1.0962,-1.0836,-1.0836,-1.0781,-1.0726,-0.9548,-0.8864,-0.88,-0.7693,-0.7454,-0.8445,-0.7437,-0.681,-0.681,-0.6645,-0.6537,-0.6537,-0.6437,-0.638,-0.6317,-0.6309,-0.6243,-0.6083,-0.6067,-0.6064,-0.6064,-0.5942,-0.589,-0.5882,-0.5731,-0.5688,-0.5688,-0.5688,-0.5688,-0.5688,-0.5688,-0.5801,-0.589,-0.589,-0.5966,-0.604,-0.5926,-0.589,-0.5871,-0.5721,-0.5809,-0.5869,-0.5718,-0.5688,-0.5688,-0.5688,-0.5688,-0.5489,-0.458,-0.4368,-0.407,-0.3205,-0.2937,-0.2624,-0.1704,-0.1469,-0.1036,0.005,0.0,0.0,0.1111,0.1212,0.1313,0.1566,0.1617,0.1617,0.1617,0.1617,0.207,0.3123,0.4175,0.5277,0.6334,0.7437,0.7988,0.7988,0.7988,0.7988,0.7988,0.7988,0.7988,0.7988,0.7988,0.7988,0.7988,0.7988,0.7988,0.7988,0.7988,0.8123,0.8265,0.8408,0.8465,0.8496,0.8791,0.8825,0.8726,0.8814,0.8865,0.8868,-1.4346,-1.3725,-1.314,-1.3131,-1.2889,-1.2538,-1.2008,-1.1716,-1.1325,-1.088,-1.0767,-1.0398,-0.9688,-0.9578,-0.9302,-0.8585,-0.8042,-0.7795,-0.7795,-0.7316,-0.7169,-0.7384,-0.6964,-0.6733,-0.6733,-0.6611,-0.65,-0.65,-0.6422,-0.638,-0.6317,-0.6317,-0.6251,-0.6086,-0.6086,-0.6086,-0.6083,-0.6037,-0.5972,-0.5899,-0.5855,-0.5839,-0.5831,-0.5715,-0.5825,-0.5942,-0.5866,-0.5915,-0.6015,-0.6015,-0.6048,-0.6078,-0.6032,-0.6015,-0.6007,-0.5964,-0.5983,-0.5865,-0.5169,-0.5439,-0.5793,-0.5125,-0.4972,-0.4688,-0.3646,-0.2933,-0.2402,-0.2041,-0.149,-0.0972,-0.0588,-0.0396,-0.015,0.0303,0.0,0.096,0.1162,0.1364,0.1465,0.1566,0.1617,0.1617,0.1617,0.1617,0.2321,0.4074,0.4574,0.5577,0.7285,0.7789,0.7988,0.7988,0.7988,0.7988,0.7988,0.7988,0.7988,0.7988,0.7988,0.7988,0.7988,0.7988,0.7988,0.7988,0.7988,0.8022,0.8147,0.8384,0.8482,0.8513,0.8818,0.8848,0.8804,0.8861,0.8885,0.8885,-1.299,-1.2294,-1.1675,-1.161,-1.1375,-1.1024,-1.0566,-1.0287,-1.0014,-0.9629,-0.9574,-0.9299,-0.8478,-0.8367,-0.8039,-0.7265,-0.721,-0.721,-0.721,-0.721,-0.7139,-0.6921,-0.6877,-0.6861,-0.6861,-0.6738,-0.6676,-0.6676,-0.6503,-0.6456,-0.6377,-0.6339,-0.6276,-0.6198,-0.6198,-0.6198,-0.6195,-0.6159,-0.6094,-0.6013,-0.5975,-0.5961,-0.5953,-0.5874,-0.5945,-0.6075,-0.5991,-0.604,-0.6143,-0.6143,-0.6168,-0.6189,-0.6154,-0.6116,-0.6086,-0.6086,-0.5873,-0.5518,-0.4749,-0.4866,-0.5003,-0.4215,-0.3998,-0.3698,-0.2683,-0.1902,-0.1299,-0.092,-0.0343,0.0149,0.0248,0.0401,0.0556,0.0657,0.096,0.1212,0.1314,0.1465,0.1617,0.1617,0.1617,0.1621,0.163,0.1936,0.2747,0.421,0.4968,0.6165,0.7892,0.7988,0.7988,0.7988,0.7988,0.7988,0.7988,0.7988,0.7988,0.7988,0.8039,0.8113,0.8113,0.8157,0.818,0.818,0.818,0.8204,0.8214,0.8469,0.8581,0.8648,0.8801,0.8885,0.8885,0.8885,0.8885,0.8885,-1.1544,-1.1606,-1.1671,-1.161,-1.1375,-1.0738,-0.95,-0.9071,-0.8478,-0.7376,-0.721,-0.721,-0.721,-0.721,-0.721,-0.721,-0.721,-0.721,-0.721,-0.721,-0.721,-0.721,-0.7048,-0.6986,-0.6986,-0.6866,-0.6804,-0.6804,-0.6681,-0.6622,-0.6616,-0.6443,-0.6387,-0.6387,-0.6387,-0.6387,-0.6379,-0.6317,-0.632,-0.6306,-0.6135,-0.6086,-0.6086,-0.6086,-0.6086,-0.6089,-0.6086,-0.6165,-0.632,-0.632,-0.6344,-0.6368,-0.6304,-0.6187,-0.6089,-0.6089,-0.5401,-0.47,-0.4651,-0.3922,-0.3144,-0.2928,-0.29,-0.2629,-0.161,-0.1372,-0.1035,0.0151,0.0404,0.0505,0.0758,0.0808,0.0909,0.1162,0.1212,0.1313,0.1566,0.1617,0.1617,0.1617,0.1617,0.1628,0.1712,0.2748,0.3366,0.3315,0.5422,0.7068,0.7949,0.7992,0.7992,0.7992,0.7992,0.7992,0.7992,0.7988,0.7988,0.7992,0.8197,0.8323,0.8327,0.8418,0.8482,0.8482,0.8482,0.8567,0.871,0.871,0.8801,0.8881,0.8885,0.8885,0.8885,0.8885,0.8885,0.8885,-1.0055,-0.9349,-0.8691,-0.8608,-0.8495,-0.8306,-0.7894,-0.7785,-0.7595,-0.7265,-0.721,-0.721,-0.721,-0.721,-0.721,-0.721,-0.721,-0.721,-0.721,-0.721,-0.721,-0.721,-0.7177,-0.7158,-0.7158,-0.6989,-0.6931,-0.6931,-0.6806,-0.6703,-0.6619,-0.6581,-0.6468,-0.6387,-0.6387,-0.6387,-0.6384,-0.6399,-0.6342,-0.6314,-0.6279,-0.6262,-0.6254,-0.6119,-0.6187,-0.632,-0.6241,-0.6192,-0.6142,-0.6289,-0.6108,-0.5829,-0.58,-0.5271,-0.465,-0.465,-0.3876,-0.2944,-0.2148,-0.1756,-0.1552,-0.1661,-0.1717,-0.1384,-0.0147,0.0149,0.0251,0.0605,0.0657,0.0707,0.0808,0.096,0.1111,0.1162,0.1364,0.1516,0.1566,0.1617,0.1617,0.1617,0.1617,0.1628,0.1712,0.2748,0.3675,0.4396,0.638,0.7777,0.8197,0.8201,0.8201,0.8201,0.8299,0.8303,0.8204,0.8096,0.7988,0.7992,0.8197,0.8323,0.8327,0.8418,0.8482,0.8482,0.8482,0.8509,0.856,0.8665,0.8737,0.8791,0.8841,0.8885,0.8885,0.8885,0.8885,0.8885,-0.859,-0.8003,-0.7481,-0.7298,-0.728,-0.7309,-0.7236,-0.724,-0.7226,-0.722,-0.724,-0.721,-0.721,-0.721,-0.721,-0.721,-0.721,-0.721,-0.721,-0.721,-0.721,-0.721,-0.721,-0.721,-0.721,-0.7141,-0.7106,-0.7106,-0.6934,-0.6812,-0.669,-0.6641,-0.6554,-0.6387,-0.6387,-0.6387,-0.6387,-0.6387,-0.6396,-0.6336,-0.6238,-0.6189,-0.6183,-0.5961,-0.5969,-0.6079,-0.6062,-0.5934,-0.5889,-0.6037,-0.5887,-0.5534,-0.5081,-0.4528,-0.3924,-0.3472,-0.2618,-0.1611,-0.0957,-0.0504,-0.0201,-0.0249,-0.035,-0.0201,0.0597,0.0801,0.0808,0.096,0.096,0.101,0.1111,0.1263,0.1364,0.1364,0.1516,0.1621,0.1633,0.1635,0.1639,0.165,0.1652,0.1663,0.1747,0.3155,0.4704,0.6209,0.7491,0.8255,0.835,0.8353,0.8353,0.8353,0.8438,0.8442,0.8357,0.8262,0.8214,0.8218,0.837,0.8445,0.8448,0.8598,0.8662,0.8662,0.8662,0.8662,0.8669,0.8764,0.8801,0.8811,0.8848,0.8885,0.8885,0.8885,0.8885,0.8885,-0.7317,-0.741,-0.7451,-0.7339,-0.7271,-0.728,-0.728,-0.7249,-0.7222,-0.7266,-0.7239,-0.7224,-0.7213,-0.721,-0.721,-0.721,-0.721,-0.721,-0.721,-0.721,-0.721,-0.721,-0.721,-0.721,-0.721,-0.721,-0.721,-0.721,-0.7051,-0.6937,-0.6817,-0.6692,-0.657,-0.64,-0.6389,-0.6387,-0.6387,-0.6387,-0.6387,-0.6337,-0.6092,-0.5992,-0.5942,-0.5687,-0.5586,-0.5586,-0.5586,-0.5584,-0.5536,-0.5434,-0.5384,-0.5233,-0.4126,-0.3723,-0.347,-0.2466,-0.1411,-0.0605,-0.0605,0.0151,0.0909,0.1162,0.1062,0.0861,0.0859,0.086,0.0962,0.1162,0.1266,0.1319,0.1571,0.1623,0.1624,0.1624,0.1624,0.1635,0.1714,0.1718,0.1675,0.1701,0.1704,0.177,0.191,0.3978,0.6169,0.8345,0.8489,0.8486,0.8503,0.8503,0.8503,0.8503,0.8516,0.8516,0.8503,0.8516,0.8509,0.8482,0.8635,0.871,0.8716,0.8814,0.8885,0.8885,0.8885,0.8885,0.8885,0.8885,0.8885,0.8885,0.8885,0.8885,0.8885,0.8885,0.8885,0.8885,-0.7248,-0.727,-0.7281,-0.7254,-0.7274,-0.728,-0.728,-0.7394,-0.7415,-0.7288,-0.7312,-0.726,-0.7221,-0.721,-0.721,-0.721,-0.721,-0.721,-0.721,-0.721,-0.721,-0.721,-0.721,-0.721,-0.721,-0.721,-0.721,-0.721,-0.7185,-0.7114,-0.6942,-0.682,-0.6698,-0.6575,-0.6427,-0.6387,-0.6387,-0.6387,-0.6287,-0.6092,-0.6042,-0.5889,-0.5687,-0.5636,-0.5586,-0.5586,-0.5586,-0.5486,-0.5138,-0.4078,-0.3879,-0.3828,-0.2519,-0.1562,-0.0806,-0.0604,0.0252,0.106,0.106,0.1263,0.1465,0.1516,0.1532,0.1492,0.142,0.1482,0.1491,0.152,0.155,0.1626,0.1656,0.167,0.1685,0.1685,0.1685,0.1687,0.1694,0.1695,0.1697,0.1703,0.1704,0.209,0.305,0.5158,0.7093,0.8551,0.855,0.8533,0.8655,0.8662,0.8662,0.8662,0.8777,0.8781,0.8662,0.8781,0.872,0.8482,0.8635,0.871,0.8716,0.8814,0.8885,0.8885,0.8885,0.8885,0.8885,0.8885,0.8885,0.8885,0.8885,0.8885,0.8885,0.8885,0.8885,0.8885,-0.721,-0.721,-0.721,-0.721,-0.7255,-0.7298,-0.7415,-0.7426,-0.7429,-0.7423,-0.7323,-0.7225,-0.7218,-0.721,-0.721,-0.721,-0.721,-0.721,-0.721,-0.721,-0.721,-0.721,-0.721,-0.721,-0.721,-0.721,-0.721,-0.721,-0.721,-0.7152,-0.6983,-0.6861,-0.6768,-0.67,-0.6366,-0.6221,-0.6268,-0.611,-0.5937,-0.5789,-0.5689,-0.5541,-0.5388,-0.5286,-0.5236,-0.5236,-0.5236,-0.4782,-0.413,-0.3425,-0.2972,-0.2418,-0.121,-0.0454,0.0101,0.0605,0.1161,0.162,0.1635,0.1639,0.1641,0.1655,0.1671,0.1675,0.1645,0.1661,0.1677,0.1662,0.1683,0.1699,0.1685,0.1695,0.1704,0.1704,0.1704,0.171,0.1724,0.1726,0.1731,0.1746,0.1748,0.2401,0.4088,0.5927,0.7471,0.8605,0.8703,0.8733,0.8815,0.8818,0.8818,0.8818,0.8841,0.8844,0.8818,0.8844,0.8804,0.8703,0.8781,0.8818,0.8821,0.8848,0.8885,0.8885,0.8885,0.8885,0.8885,0.8885,0.8885,0.8885,0.8885,0.8885,0.8885,0.8885,0.8885,0.8885,-0.721,-0.7226,-0.724,-0.724,-0.7304,-0.7432,-0.7535,-0.7464,-0.7426,-0.7508,-0.7323,-0.7235,-0.7213,-0.721,-0.721,-0.721,-0.721,-0.721,-0.721,-0.721,-0.721,-0.721,-0.721,-0.721,-0.721,-0.721,-0.721,-0.721,-0.721,-0.7105,-0.6959,-0.6816,-0.6695,-0.6632,-0.6141,-0.5992,-0.6075,-0.5725,-0.5586,-0.5536,-0.529,-0.519,-0.509,-0.4885,-0.4784,-0.4784,-0.4582,-0.3827,-0.2922,-0.2719,-0.2065,-0.1159,-0.005,0.0252,0.0454,0.1364,0.1621,0.163,0.1707,0.1718,0.1675,0.1698,0.1708,0.1706,0.1735,0.1695,0.171,0.1705,0.1712,0.1718,0.1713,0.1716,0.172,0.172,0.172,0.1729,0.1809,0.1812,0.1822,0.1792,0.2186,0.3229,0.5263,0.6651,0.7776,0.8649,0.8811,0.8885,0.8885,0.8885,0.8885,0.8885,0.8885,0.8885,0.8885,0.8885,0.8885,0.8885,0.8885,0.8885,0.8885,0.8885,0.8885,0.8885,0.8885,0.8885,0.8885,0.8885,0.8885,0.8885,0.8885,0.8885,0.8885,0.8885,0.8885,0.8888,-0.721,-0.7239,-0.7309,-0.7309,-0.75,-0.7657,-0.7674,-0.7663,-0.7619,-0.7529,-0.7396,-0.7271,-0.7221,-0.721,-0.721,-0.721,-0.721,-0.721,-0.721,-0.721,-0.721,-0.721,-0.721,-0.721,-0.721,-0.721,-0.721,-0.721,-0.721,-0.7035,-0.6742,-0.6526,-0.6323,-0.6104,-0.5783,-0.5644,-0.5658,-0.5641,-0.5486,-0.524,-0.519,-0.5037,-0.4834,-0.4834,-0.4784,-0.4684,-0.3728,-0.272,-0.1663,-0.0756,-0.0353,-0.005,0.106,0.1364,0.1414,0.1566,0.1635,0.1709,0.1713,0.168,0.1699,0.1703,0.1724,0.1797,0.1793,0.1795,0.179,0.171,0.1746,0.1775,0.1803,0.1765,0.1782,0.1782,0.1782,0.1784,0.1789,0.1789,0.1791,0.1795,0.3636,0.5413,0.6684,0.7922,0.8706,0.8854,0.8871,0.8885,0.8885,0.8885,0.8885,0.8885,0.8885,0.8885,0.8885,0.8885,0.8885,0.8885,0.8885,0.8885,0.8885,0.8885,0.8885,0.8885,0.8885,0.8885,0.8885,0.8885,0.8885,0.8885,0.8885,0.8885,0.8885,0.8885,0.8885,0.8902,-0.7241,-0.7298,-0.7298,-0.7426,-0.7527,-0.76,-0.76,-0.754,-0.7478,-0.7423,-0.7309,-0.7214,-0.7215,-0.721,-0.721,-0.721,-0.721,-0.721,-0.721,-0.721,-0.721,-0.721,-0.721,-0.721,-0.721,-0.699,-0.6935,-0.6935,-0.6935,-0.6824,-0.671,-0.6319,-0.6146,-0.6032,-0.5555,-0.542,-0.547,-0.526,-0.5085,-0.4987,-0.4987,-0.4887,-0.4734,-0.413,-0.3929,-0.3776,-0.267,-0.1612,-0.0655,-0.0151,0.0403,0.0961,0.1483,0.1642,0.1645,0.1661,0.1675,0.169,0.1759,0.1774,0.1733,0.175,0.1765,0.1775,0.1775,0.1775,0.1771,0.1757,0.1776,0.1791,0.1778,0.1786,0.18,0.1818,0.1806,0.1801,0.1818,0.1806,0.2082,0.2838,0.4948,0.6616,0.7185,0.8255,0.8885,0.8885,0.8885,0.8885,0.8885,0.8885,0.8885,0.8885,0.8885,0.8885,0.8885,0.8885,0.8885,0.8885,0.9022,0.9015,0.8885,0.8885,0.8885,0.8885,0.8885,0.8885,0.8885,0.8885,0.8885,0.8885,0.8885,0.8885,0.8892,0.9028,0.9059,0.9079]},{"header":{"parameterUnit":"m.s-1","parameterCategory":1,"la1":30.6,"la2":28.766,"lo1":-90.7593,"lo2":-88.6598,"dy":0.0162,"dx":0.0183,"nx":116,"ny":114,"refTime":"2023-08-23T06:00:00:Z","depth":0,"parameterNumber":3,"parameterNumberName":"V-component_of_WINDS"},"data":[0.0,0.0,0.0,0.0,0.0,0.0,0.0,0.0,0.0,0.0,0.0,0.0,0.0,0.0,0.0,0.0,0.0,0.0,0.0,0.0,0.0,0.0,0.0,0.0,0.0,0.0,0.0,0.0,0.0,0.0,0.0,0.0,0.0,0.0,0.0,0.0,0.0,0.0,0.0,0.0,0.0,0.0,0.0,0.0,0.0,0.0,0.0,0.0,0.0,0.0,0.0,0.0,0.0,0.0,0.0,0.0,0.0,0.0,0.0,0.0,0.0,0.0,0.0,0.0,0.0,0.0,0.0,0.0,0.0,0.0,0.0,0.0,0.0,0.0,0.0,0.0,0.0,0.0,0.0,0.0,0.0,0.0,0.0,0.0,0.0,0.0,0.0,0.0,0.0,0.0,0.0,0.0,0.0,0.0,0.0,0.0,0.0,0.0,0.0,0.0,0.0,0.0,0.0,0.0,0.0,0.0,0.0,0.0,0.0,0.0,0.0,0.0,0.0,0.0,0.0,0.0,0.0,0.0,0.0,0.0,0.0,0.0,0.0,0.0,0.0,0.0,0.0,0.0,0.0,0.0,0.0,0.0,0.0,0.0,0.0,0.0,0.0,0.0,0.0,0.0,0.0,0.0,0.0,0.0,0.0,0.0,0.0,0.0,0.0,0.0,0.0,0.0,0.0,0.0,0.0,0.0,0.0,0.0,0.0,0.0,0.0,0.0,0.0,0.0,0.0,0.0,0.0,0.0,0.0,0.0,0.0,0.0,0.0,0.0,0.0,0.0,0.0,0.0,0.0,0.0,0.0,0.0,0.0,0.0,0.0,0.0,0.0,0.0,0.0,0.0,0.0,0.0,0.0,0.0,0.0,0.0,0.0,0.0,0.0,0.0,0.0,0.0,0.0,0.0,0.0,0.0,0.0,0.0,0.0,0.0,0.0,0.0,0.0,0.0,0.0,0.0,0.0,0.0,0.0,0.0,0.0,0.0,0.0,0.0,0.0,0.0,0.0,0.0,0.0,0.0,0.0,0.0,0.0,0.0,0.0,0.0,0.0,0.0,0.0,0.0,0.0,0.0,0.0,0.0,0.0,0.0,0.0,0.0,0.0,0.0,0.0,0.0,0.0,0.0,0.0,0.0,0.0,0.0,0.0,0.0,0.0,0.0,0.0,0.0,0.0,0.0,0.0,0.0,0.0,0.0,0.0,0.0,0.0,0.0,0.0,0.0,0.0,0.0,0.0,0.0,0.0,0.0,0.0,0.0,0.0,0.0,0.0,0.0,0.0,0.0,0.0,0.0,0.0,0.0,0.0,0.0,0.0,0.0,0.0,0.0,0.0,0.0,0.0,0.0,0.0,0.0,0.0,0.0,0.0,0.0,0.0,0.0,0.0,0.0,0.0,0.0,0.0,0.0,0.0,0.0,0.0,0.0,0.0,0.0,0.0,0.0,0.0,0.0,0.0,0.0,0.0,0.0,0.0,0.0,0.0,0.0,0.0,0.0,0.0,0.0,0.0,0.0,0.0,0.0,0.0,0.0,0.0,0.0,0.0,0.0,0.0,0.0,0.0,0.0,0.0,0.0,0.0,0.0,0.0,0.0,0.0,0.0,0.0,0.0,0.0,0.0,0.0,0.0,0.0,0.0,0.0,0.0,0.0,0.0,0.0,0.0,0.0,0.0,0.0,0.0,0.0,0.0,0.0,0.0,0.0,0.0,0.0,0.0,0.0,0.0,0.0,0.0,0.0,0.0,0.0,0.0,0.0,0.0,0.0,0.0,0.0,0.0,0.0,0.0,0.0,0.0,0.0,0.0,0.0,0.0,0.0,0.0,0.0,0.0,0.0,0.0,0.0,0.0,0.0,0.0,0.0,0.0,0.0,0.0,0.0,0.0,0.0,0.0,0.0,0.0,0.0,0.0,0.0,0.0,0.0,0.0,0.0,0.0,0.0,0.0,0.0,0.0,0.0,0.0,0.0,0.0,0.0,0.0,0.0,0.0,0.0,0.0,0.0,0.0,0.0,0.0,0.0,0.0,0.0,0.0,0.0,0.0,0.0,0.0,0.0,0.0,0.0,0.0,0.0,0.0,0.0,0.0,0.0,0.0,0.0,0.0,0.0,0.0,0.0,0.0,0.0,0.0,0.0,0.0,0.0,0.0,0.0,0.0,0.0,0.0,0.0,0.0,0.0,0.0,0.0,0.0,0.0,0.0,0.0,0.0,0.0,0.0,0.0,0.0,0.0,0.0,0.0,0.0,0.0,0.0,0.0,0.0,0.0,0.0,0.0,0.0,0.0,0.0,0.0,0.0,0.0,0.0,0.0,0.0,0.0,0.0,0.0,0.0,0.0,0.0,0.0,0.0,0.0,0.0,0.0,0.0,0.0,0.0,0.0,0.0,0.0,0.0,0.0,0.0,0.0,0.0,0.0,0.0,0.0,0.0,0.0,0.0,0.0,0.0,0.0,0.0,0.0,0.0,0.0,0.0,0.0,0.0,0.0,0.0,0.0,0.0,0.0,0.0,0.0,0.0,0.0,0.0,0.0,0.0,0.0,0.0,0.0,0.0,0.0,0.0,0.0,0.0,0.0,0.0,0.0,0.0,0.0,0.0,0.0,0.0,0.0,0.0,0.0,0.0,0.0,0.0,0.0,0.0,0.0,0.0,0.0,0.0,0.0,0.0,0.0,0.0,0.0,0.0,0.0,0.0,0.0,0.0,0.0,0.0,0.0,0.0,0.0,0.0,0.0,0.0,0.0,0.0,0.0,0.0,0.0,0.0,0.0,0.0,0.0,0.0,0.0,0.0,0.0,0.0,0.0,0.0,0.0,0.0,0.0,0.0,0.0,0.0,0.0,0.0,0.0,0.0,0.0,0.0,0.0,0.0,0.0,0.0,0.0,0.0,0.0,0.0,0.0,0.0,0.0,0.0,0.0,0.0,0.0,0.0,0.0,0.0,0.0,0.0,0.0,0.0,0.0,0.0,0.0,0.0,0.0,0.0,0.0,0.0,0.0,0.0,0.0,0.0,0.0,0.0,0.0,0.0,0.0,0.0,0.0,0.0,0.0,0.0,0.0,0.0,0.0,0.0,0.0,0.0,0.0,0.0,0.0,0.0,0.0,0.0,0.0,0.0,0.0,0.0,0.0,0.0,0.0,0.0,0.0,0.0,0.0,0.0,0.0,0.0,0.0,0.0,0.0,0.0,0.0,0.0,0.0,0.0,0.0,0.0,0.0,0.0,0.0,0.0,0.0,0.0,0.0,0.0,0.0,0.0,0.0,0.0,0.0,0.0,0.0,0.0,0.0,0.0,0.0,0.0,0.0,0.0,0.0,0.0,0.0,0.0,0.0,0.0,0.0,0.0,0.0,0.0,0.0,0.0,0.0,0.0,0.0,0.0,0.0,0.0,0.0,0.0,0.0,0.0,0.0,0.0,0.0,0.0,0.0,0.0,0.0,0.0,0.0,0.0,0.0,0.0,0.0,0.0,0.0,0.0,0.0,0.0,0.0,0.0,0.0,0.0,0.0,0.0,0.0,0.0,0.0,0.0,0.0,0.0,0.0,0.0,0.0,0.0,0.0,0.0,0.0,0.0,0.0,0.0,0.0,0.0,0.0,0.0,0.0,0.0,0.0,0.0,0.0,0.0,0.0,0.0,0.0,0.0,0.0,0.0,0.0,0.0,0.0,0.0,0.0,0.0,0.0,0.0,0.0,0.0,0.0,0.0,0.0,0.0,0.0,0.0,0.0,0.0,0.0,0.0,0.0,0.0,0.0,0.0,0.0,0.0,0.0,0.0,0.0,0.0,0.0,0.0,0.0,0.0,0.0,0.0,0.0,0.0,0.0,0.0,0.0,0.0,0.0,0.0,0.0,0.0,0.0,0.0,0.0,0.0,0.0,0.0,0.0,0.0,0.0,0.0,0.0,0.0,0.0,0.0,0.0,0.0,0.0,0.0,0.0,0.0,0.0,0.0,0.0,0.0,0.0,0.0,0.0,0.0,0.0,0.0,0.0,0.0,0.0,0.0,0.0,0.0,0.0,0.0,0.0,0.0,0.0,0.0,0.0,0.0,0.0,0.0,0.0,0.0,0.0,0.0,0.0,0.0,0.0,0.0,0.0,0.0,0.0,0.0,0.0,0.0,0.0,0.0,0.0,0.0,0.0,0.0,0.0,0.0,0.0,0.0,0.0,0.0,0.0,0.0,0.0,0.0,0.0,0.0,0.0,0.0,0.0,0.0,0.0,0.0,0.0,0.0,0.0,0.0,0.0,0.0,0.0,0.0,0.0,0.0,0.0,0.0,0.0,0.0,0.0,0.0,0.0,0.0,0.0,0.0,0.0,0.0,0.0,0.0,0.0,0.0,0.0,0.0,0.0,0.0,0.0,0.0,0.0,0.0,0.0,0.0,0.0,0.0,0.0,0.0,0.0,0.0,0.0,0.0,0.0,0.0,0.0,0.0,0.0,0.0,0.0,0.0,0.0,0.0,0.0,0.0,0.0,0.0,0.0,0.0,0.0,0.0,0.0,0.0,0.0,0.0,0.0,0.0,0.0,0.0,0.0,0.0,0.0,0.0,0.0,0.0,0.0,0.0,0.0,0.0,0.0,0.0,0.0,0.0,0.0,0.0,0.0,0.0,0.0,0.0,0.0,0.0,0.0,0.0,0.0,0.0,0.0,0.0,0.0,0.0,0.0,0.0,0.0,0.0,0.0,0.0,0.0,0.0,0.0,0.0,0.0,0.0,0.0,0.0,0.0,0.0,0.0,0.0,0.0,0.0,0.0,0.0,0.0,0.0,0.0,0.0,0.0,0.0,0.0,0.0,0.0,0.0,0.0,0.0,0.0,0.0,0.0,0.0,0.0,0.0,0.0,0.0,0.0,0.0,0.0,0.0,0.0,0.0,0.0,0.0,0.0,0.0,0.0,0.0,0.0,0.0,0.0,0.0,0.0,0.0,0.0,0.0,0.0,0.0,0.0,0.0,0.0,0.0,0.0,0.0,0.0,0.0,0.0,0.0,0.0,0.0,0.0,0.0,0.0,0.0,0.0,0.0,0.0,0.0,0.0,0.0,0.0,0.0,0.0,0.0,0.0,0.0,0.0,0.0,0.0,0.0,0.0,0.0,0.0,0.0,0.0,0.0,0.0,0.0,0.0,0.0,0.0,0.0,0.0,0.0,0.0,0.0,0.0,0.0,0.0,0.0,0.0,0.0,0.0,0.0,0.0,0.0,0.0,0.0,0.0,0.0,0.0,0.0,0.0,0.0,0.0,0.0,0.0,0.0,0.0,0.0,0.0,0.0,0.0,0.0,0.0,0.0,0.0,0.0,0.0,0.0,0.0,0.0,0.0,0.0,0.0,0.0,0.0,0.0,0.0,0.0,0.0,0.0,0.0,0.0,0.0,0.0,0.0,0.0,0.0,0.0,0.0,0.0,0.0,0.0,0.0,0.0,0.0,0.0,0.0,0.0,0.0,0.0,0.0,0.0,0.0,0.0,0.0,0.0,0.0,0.0,0.0,0.0,0.0,0.0,0.0,0.0,0.0,0.0,0.0,0.0,0.0,0.0,0.0,0.0,0.0,0.0,0.0,0.0,0.0,0.0,0.0,0.0,0.0,0.0,0.0,0.0,0.0,0.0,0.0,0.0,0.0,0.0,0.0,0.0,0.0,0.0,0.0,0.0,0.0,0.0,0.0,0.0,0.0,0.0,0.0,0.0,0.0,0.0,0.0,0.0,0.0,0.0,0.0,0.0,0.0,0.0,0.0,0.0,0.0,0.0,0.0,0.0,0.0,0.0,0.0,0.0,0.0,0.0,0.0,0.0,0.0,0.0,0.0,0.0,0.0,0.0,0.0,0.0,0.0,0.0,0.0,0.0,0.0,0.0,0.0,0.0,0.0,0.0,0.0,0.0,0.0,0.0,0.0,0.0,0.0,0.0,0.0,0.0,0.0,0.0,0.0,0.0,0.0,0.0,0.0,0.0,0.0,0.0,0.0,0.0,0.0,0.0,0.0,0.0,0.0,0.0,0.0,0.0,0.0,0.0,0.0,0.0,0.0,0.0,0.0,0.0,0.0,0.0,0.0,0.0,0.0,0.0,0.0,0.0,0.0,0.0,1.4817,0.0,0.0,0.0,0.0,0.0,0.0,0.0,0.0,0.0,0.0,0.0,0.0,0.0,0.0,0.0,0.0,0.0,0.0,0.0,0.0,0.0,0.0,0.0,0.0,0.0,0.0,0.0,0.0,0.0,0.0,0.0,0.0,0.0,0.0,0.0,0.0,0.0,0.0,2.5892,2.6445,2.7483,2.8897,2.7957,2.6835,2.562,0.0,0.0,0.0,0.0,0.0,0.0,0.0,0.0,0.0,0.0,0.0,0.0,0.0,0.0,0.0,0.0,0.0,0.0,0.0,0.0,0.0,0.0,0.0,0.0,0.0,0.0,0.0,0.0,0.0,0.0,0.0,0.0,0.0,0.0,0.0,0.0,0.0,0.0,0.0,0.0,0.0,0.0,0.0,0.0,0.0,0.0,0.0,0.0,0.0,0.0,0.0,0.0,0.0,0.0,0.0,0.0,0.0,0.0,0.0,0.0,0.0,0.0,0.0,0.0,0.0,0.0,0.0,0.0,0.0,0.0,0.0,1.5372,0.0,0.0,0.0,0.0,0.0,0.0,0.0,0.0,0.0,0.0,0.0,0.0,0.0,0.0,0.0,0.0,0.0,0.0,0.0,0.0,0.0,0.0,0.0,0.0,3.0918,3.1998,3.2012,3.1763,0.0,0.0,0.0,0.0,0.0,0.0,2.7416,2.6987,2.725,2.8156,2.8442,2.9658,3.1748,3.1663,2.9873,2.6823,2.609,0.0,0.0,0.0,0.0,0.0,0.0,0.0,0.0,0.0,0.0,0.0,0.0,0.0,0.0,0.0,0.0,0.0,0.0,0.0,0.0,0.0,0.0,0.0,0.0,0.0,0.0,0.0,0.0,0.0,0.0,0.0,0.0,0.0,0.0,0.0,0.0,0.0,0.0,0.0,0.0,0.0,0.0,0.0,0.0,0.0,0.0,0.0,0.0,0.0,0.0,0.0,0.0,0.0,0.0,0.0,0.0,0.0,0.0,0.0,0.0,0.0,0.0,0.0,1.7696,1.7871,1.8076,1.7859,1.7877,1.8046,1.7346,1.6966,1.6779,0.0,0.0,0.0,0.0,0.0,0.0,0.0,0.0,0.0,0.0,0.0,0.0,0.0,0.0,0.0,0.0,0.0,0.0,0.0,0.0,0.0,0.0,3.0279,3.105,3.1627,3.1195,3.1024,0.0,0.0,0.0,0.0,0.0,0.0,2.816,2.8319,2.8765,2.9547,3.1558,3.3027,3.3988,3.339,3.2512,3.1365,2.959,2.9071,2.9335,0.0,0.0,0.0,0.0,0.0,0.0,0.0,0.0,0.0,0.0,0.0,0.0,0.0,0.0,0.0,0.0,0.0,0.0,0.0,0.0,0.0,0.0,0.0,0.0,0.0,0.0,0.0,0.0,0.0,0.0,0.0,0.0,0.0,0.0,0.0,0.0,0.0,0.0,0.0,0.0,0.0,2.483,2.4977,0.0,0.0,0.0,0.0,0.0,0.0,0.0,0.0,0.0,0.0,0.0,0.0,0.0,0.0,1.85,1.8855,1.8642,1.7829,1.8529,1.8885,1.8915,1.8879,1.8885,1.8897,1.8565,0.0,1.7334,1.6773,0.0,0.0,0.0,0.0,0.0,0.0,0.0,0.0,0.0,0.0,0.0,0.0,0.0,0.0,0.0,0.0,0.0,0.0,0.0,0.0,0.0,3.2899,3.4188,3.4012,3.4433,3.4452,3.3931,3.2862,0.0,0.0,0.0,3.0652,2.9989,3.035,3.1416,3.3163,3.5582,3.6791,3.6782,3.5852,3.5089,3.4367,3.2877,3.1306,2.969,2.8319,0.0,0.0,0.0,0.0,0.0,0.0,0.0,0.0,0.0,0.0,0.0,0.0,0.0,0.0,0.0,0.0,0.0,0.0,0.0,0.0,0.0,0.0,0.0,0.0,0.0,0.0,0.0,0.0,0.0,0.0,0.0,0.0,0.0,0.0,0.0,0.0,0.0,0.0,0.0,2.5565,2.5743,2.4521,2.4475,2.3747,0.0,0.0,0.0,0.0,0.0,0.0,0.0,0.0,0.0,2.165,2.069,2.0207,2.0356,2.0186,1.9693,1.9012,1.9362,1.9609,1.9742,1.9597,1.9446,1.9271,1.8861,1.8481,1.8106,1.7418,1.6761,1.6121,0.0,0.0,0.0,0.0,0.0,1.5439,0.0,0.0,0.0,0.0,0.0,0.0,0.0,0.0,0.0,0.0,0.0,0.0,3.2695,3.4988,3.6366,3.6212,3.6756,3.6594,3.5396,3.4321,3.3475,3.2928,3.2402,3.1797,3.1112,3.2248,3.3964,3.6243,3.829,3.9143,3.8795,3.7733,3.702,3.6553,3.5687,3.3643,3.0861,3.0114,2.8657,2.6747,0.0,0.0,0.0,0.0,0.0,0.0,0.0,0.0,0.0,0.0,0.0,0.0,0.0,0.0,0.0,0.0,0.0,0.0,0.0,0.0,0.0,0.0,0.0,0.0,0.0,0.0,0.0,0.0,0.0,0.0,0.0,0.0,0.0,0.0,0.0,0.0,0.0,2.726,2.7399,2.4992,2.625,2.5894,0.0,0.0,0.0,0.0,0.0,0.0,2.3415,2.1719,2.1711,2.403,2.2971,2.2438,2.2726,2.2117,2.132,2.0347,2.0347,2.0219,2.0019,1.9823,1.9616,1.9389,1.8924,1.8667,1.8556,1.7816,1.7213,1.6767,1.6416,1.6121,1.5897,1.5964,1.5988,1.612,0.0,0.0,0.0,0.0,0.0,0.0,0.0,0.0,0.0,0.0,0.0,3.3151,3.4778,3.5078,3.5661,3.6835,3.5902,3.4798,3.3786,3.3774,3.2891,3.0832,3.1314,3.1283,3.0552,3.3558,3.5891,3.741,3.8288,3.8882,3.9169,3.8253,3.7892,3.7971,3.7742,3.6675,3.4829,3.2018,3.0233,2.9068,2.6198,0.0,0.0,0.0,0.0,0.0,0.0,0.0,0.0,0.0,0.0,0.0,0.0,0.0,0.0,0.0,0.0,0.0,0.0,0.0,0.0,0.0,0.0,0.0,0.0,0.0,0.0,0.0,0.0,0.0,0.0,0.0,0.0,0.0,0.0,0.0,0.0,0.0,0.0,2.8622,2.9172,0.0,0.0,0.0,0.0,2.3936,2.3791,2.4192,2.5319,2.4924,2.5509,2.7284,2.6602,2.6113,2.5891,2.5437,2.4017,2.1499,2.1499,2.0746,1.9227,1.9214,1.9257,1.9225,1.894,1.864,1.8388,1.7724,1.7322,1.702,1.6489,1.6121,1.5922,1.6169,1.626,1.6338,0.0,0.0,0.0,0.0,0.0,0.0,0.0,0.0,3.081,3.1044,3.2906,3.422,3.4263,3.6774,3.821,3.7637,3.7265,3.655,3.5305,3.4452,3.3638,3.2905,3.2872,3.3152,3.3713,3.5772,3.7261,3.8132,3.8583,3.8714,3.842,3.7348,3.6632,3.6241,3.6165,3.5708,3.4985,3.4313,3.2957,3.1134,2.8572,2.6469,0.0,0.0,0.0,0.0,0.0,0.0,0.0,0.0,0.0,0.0,0.0,0.0,0.0,0.0,0.0,0.0,0.0,0.0,0.0,0.0,0.0,0.0,0.0,0.0,0.0,0.0,0.0,0.0,0.0,0.0,0.0,0.0,0.0,0.0,0.0,0.0,0.0,2.884,3.0751,0.0,2.6021,2.5616,2.5764,2.6018,2.5904,2.6367,2.7696,2.6621,2.6425,2.7449,2.6789,2.5939,2.4932,2.4795,2.3943,2.237,2.1594,2.0887,2.0301,1.9533,1.9085,1.8902,1.8688,1.8407,1.8114,1.7659,1.7582,1.7701,1.7677,1.7613,1.7528,1.7391,1.7366,1.7372,0.0,0.0,0.0,0.0,0.0,0.0,0.0,0.0,3.1431,3.1927,3.3651,3.4962,3.5193,3.735,3.8453,3.768,3.7255,3.644,3.4975,3.4282,3.3814,3.3533,3.4,3.496,3.6542,3.7517,3.829,3.8858,3.8741,3.84,3.7792,3.6724,3.5965,3.554,3.547,3.5224,3.4875,3.5195,3.4153,3.207,3.0441,2.868,2.6785,0.0,0.0,0.0,0.0,0.0,0.0,0.0,0.0,0.0,0.0,0.0,0.0,0.0,0.0,0.0,0.0,0.0,0.0,0.0,0.0,0.0,0.0,0.0,0.0,0.0,0.0,0.0,0.0,0.0,0.0,0.0,0.0,0.0,0.0,0.0,3.4721,2.9807,3.2274,3.2305,2.7081,2.7207,2.7613,2.7572,2.7613,2.8007,2.8957,2.7825,2.7308,2.7719,2.7176,2.644,2.5477,2.5477,2.4812,2.3444,2.2638,2.1942,2.1213,2.0068,1.9389,1.9196,1.8672,1.8262,1.7956,1.7668,1.7665,1.7862,1.8029,1.8075,1.8046,1.7773,1.7728,1.7658,0.0,0.0,0.0,0.0,0.0,0.0,0.0,3.2319,3.2774,3.4243,3.4465,3.5302,3.7621,3.6638,3.6135,3.6862,3.5602,3.4121,3.2602,3.3168,3.3222,3.2484,3.4421,3.6507,3.8603,3.8586,3.8858,3.9471,3.8634,3.7926,3.7422,3.6405,3.6023,3.615,3.5947,3.5392,3.4673,3.4673,3.3565,3.1802,3.1609,3.0132,2.7927,0.0,0.0,0.0,0.0,0.0,0.0,0.0,0.0,0.0,0.0,0.0,0.0,0.0,0.0,0.0,0.0,0.0,0.0,0.0,0.0,0.0,0.0,0.0,0.0,0.0,0.0,0.0,0.0,0.0,0.0,0.0,0.0,0.0,3.2677,3.5176,3.5673,3.1923,3.3794,3.3392,2.8359,2.8866,2.9223,2.8483,2.8805,2.9016,2.9007,2.8581,2.837,2.8361,2.7948,2.7776,2.7767,2.7748,2.6727,2.4799,2.4799,2.3749,2.1818,2.0676,2.0124,2.0063,1.9002,1.8333,1.8066,1.7784,1.7666,1.7692,1.7552,1.7501,1.7469,1.7184,1.707,1.6991,0.0,0.0,0.0,0.0,0.0,0.0,0.0,3.2797,3.2795,3.3204,3.4515,3.5236,3.4705,3.5781,3.6149,3.5187,3.4393,3.3541,3.2618,3.2404,3.2657,3.3445,3.5108,3.6415,3.7225,3.7275,3.7023,3.6476,3.6254,3.6052,3.5877,3.5019,3.4893,3.5291,3.47,3.4297,3.4065,3.4065,3.344,3.251,3.2322,3.2014,3.1501,0.0,0.0,0.0,0.0,0.0,0.0,0.0,0.0,0.0,0.0,0.0,0.0,0.0,0.0,0.0,0.0,0.0,0.0,0.0,0.0,0.0,0.0,0.0,0.0,0.0,0.0,0.0,0.0,0.0,0.0,0.0,0.0,3.4619,3.5226,3.7039,3.7606,3.5714,3.5514,3.4386,3.1353,3.0285,2.9576,2.9122,2.8946,2.8756,2.8468,2.8118,2.7801,2.7517,2.7123,2.6765,2.6517,2.6223,2.5753,2.5217,2.4339,2.3631,2.3056,2.1872,2.1248,2.1045,1.982,1.9576,1.9954,1.8796,1.8858,1.9448,1.782,1.7347,1.7496,1.7002,1.6656,1.638,0.0,0.0,0.0,0.0,0.0,0.0,0.0,3.3225,3.3214,3.3504,3.457,3.5063,3.4426,3.5279,3.542,3.4302,3.3608,3.2984,3.2419,3.2701,3.3546,3.5023,3.5885,3.661,3.7152,3.6578,3.5986,3.5388,3.4682,3.4372,3.4468,3.3317,3.3158,3.3844,3.3072,3.2845,3.3105,3.3417,3.331,3.2985,3.32,3.3165,3.2865,3.167,3.135,3.1417,3.0575,3.0429,3.0533,3.0072,0.0,0.0,0.0,0.0,0.0,0.0,0.0,0.0,0.0,0.0,0.0,0.0,0.0,0.0,0.0,0.0,0.0,0.0,0.0,0.0,0.0,0.0,0.0,0.0,3.504,3.6789,3.763,3.8181,3.801,3.6835,3.6185,3.4786,3.2204,3.1098,3.0103,2.9079,2.8812,2.8585,2.8351,2.8052,2.7716,2.7316,2.6916,2.6507,2.6027,2.5795,2.5591,2.5405,2.4555,2.4068,2.3856,2.2503,2.1843,0.0,2.0469,2.0205,2.0549,1.939,1.9328,0.0,0.0,0.0,0.0,0.0,1.6238,1.5886,0.0,0.0,0.0,0.0,0.0,0.0,0.0,3.357,3.3779,3.444,3.4575,3.4826,3.539,3.4861,3.4259,3.376,3.3068,3.2583,3.2406,3.3843,3.5295,3.6659,3.6676,3.6936,3.7525,3.6127,3.5287,3.5074,3.3548,3.2936,3.3124,3.1517,3.1264,3.2117,3.1407,3.1446,3.2161,3.2912,3.3283,3.3433,3.4234,3.393,3.3087,3.3729,3.4023,3.4013,3.3234,3.3044,3.3016,3.2164,0.0,0.0,0.0,0.0,0.0,0.0,0.0,0.0,0.0,0.0,0.0,0.0,0.0,0.0,0.0,0.0,0.0,0.0,0.0,0.0,0.0,0.0,0.0,0.0,3.7874,3.8989,3.9464,3.8473,3.7392,3.6491,3.614,3.4888,3.202,3.1543,3.0654,2.8971,2.8624,2.852,2.8417,0.0,0.0,0.0,0.0,2.6423,2.5956,2.5899,2.5714,2.5279,2.492,2.4561,2.4193,2.2833,2.2162,2.2108,2.1004,2.0573,2.0576,1.9745,1.9356,1.9266,1.8426,1.8204,1.8138,1.6709,1.5953,0.0,0.0,0.0,0.0,0.0,0.0,0.0,0.0,3.4043,3.3944,3.4092,3.4407,3.4437,3.3967,3.3738,3.3368,3.2675,3.2476,3.2897,3.4132,3.5675,3.6691,3.6933,3.6933,3.665,3.6033,3.5098,3.392,3.2527,3.1969,3.1718,3.1688,3.0543,3.0421,3.1175,3.1002,3.1408,3.2223,3.3026,3.3773,3.4479,3.5153,3.5329,3.5049,3.4454,3.4763,3.537,3.4365,3.4564,3.5151,3.4063,3.4241,3.479,3.4081,3.3485,0.0,0.0,0.0,0.0,0.0,0.0,0.0,0.0,0.0,0.0,0.0,0.0,0.0,0.0,0.0,0.0,0.0,0.0,0.0,3.8762,3.8851,3.8851,3.8938,3.727,3.6525,3.7769,3.6344,3.4882,3.4042,3.2318,3.0953,3.0242,2.8873,2.7895,2.7496,2.6821,0.0,2.6324,2.596,2.5544,2.5128,2.4798,2.4429,2.407,0.0,0.0,2.3786,2.3505,2.327,2.3051,2.1699,2.1472,2.1979,2.0546,1.9777,1.9437,1.8553,1.8077,1.7768,1.6782,1.6367,1.6122,0.0,0.0,0.0,0.0,0.0,0.0,0.0,3.4454,3.4293,3.4293,3.4123,3.3845,3.3444,3.3013,3.252,3.1946,3.251,3.3409,3.4572,3.5808,3.6468,3.6388,3.5624,3.4796,3.3912,3.3107,3.2262,3.14,3.0898,3.0826,3.1123,2.9844,3.0042,3.1473,3.1011,3.1404,3.2469,3.3552,3.4049,3.4236,3.5345,3.5869,3.5958,3.607,3.6229,3.6351,3.6151,3.6399,3.669,3.5722,3.5961,3.6531,3.5849,3.5672,3.5331,0.0,0.0,0.0,0.0,0.0,0.0,0.0,0.0,0.0,0.0,0.0,0.0,0.0,0.0,3.7133,0.0,0.0,4.0277,4.0921,4.1074,4.0561,3.893,3.7561,3.6707,3.6628,3.5341,3.4333,3.3873,3.2589,3.1542,3.1081,2.9836,2.8768,2.8045,2.7549,2.6939,2.6118,2.5895,2.5518,2.5021,2.4806,2.4555,2.4258,2.4137,2.3923,2.3583,2.3709,2.3609,2.3266,2.2553,2.2471,2.2757,2.1467,2.0745,2.0353,1.9878,1.8968,1.7861,1.7408,1.722,1.7155,0.0,0.0,0.0,0.0,0.0,0.0,0.0,3.468,3.4514,3.4694,3.3873,3.3296,3.3407,3.253,3.1809,3.1463,3.2884,3.4202,3.5087,3.5957,3.6435,3.6368,3.4646,3.3225,3.2258,3.1458,3.0962,3.0785,3.0125,3.018,3.0879,2.957,3.0019,3.1897,3.1277,3.1727,3.3032,3.4252,3.461,3.4487,3.5824,3.641,3.6582,3.7761,3.77,3.7055,3.7665,3.7912,3.7836,3.712,3.7382,3.7898,3.7515,3.7679,3.754,3.5228,3.5112,0.0,0.0,0.0,0.0,0.0,0.0,0.0,0.0,3.5696,3.6145,3.7959,3.8712,3.9603,4.1462,4.2308,4.2725,4.2727,4.2885,4.2098,3.9361,3.8024,3.669,3.5082,3.4379,3.3869,3.3351,3.2665,3.2097,3.1679,3.0767,2.991,2.908,2.8698,2.7939,2.6632,2.6472,2.6046,2.5244,2.5234,2.5023,2.458,2.4375,2.3984,2.3461,2.3501,2.3355,2.3056,2.2975,2.2885,2.2754,2.199,2.1488,2.1205,2.1205,2.0118,1.8598,1.8439,1.8359,1.835,0.0,0.0,0.0,0.0,0.0,0.0,0.0,0.0,3.4255,3.5025,3.3769,3.3047,3.3762,3.2378,3.1355,3.1229,3.3485,3.5543,3.6992,3.7961,3.8445,3.8391,3.6036,3.3987,3.2411,3.16,3.0808,3.0018,2.9636,2.9822,3.0546,3.0139,3.0436,3.1318,3.1873,3.2885,3.4256,3.5056,3.6075,3.7197,3.7858,3.781,3.7491,3.8743,3.8412,3.7349,3.8015,3.8316,3.8356,3.7949,3.848,3.936,3.9778,3.933,3.834,3.6578,3.5611,3.4499,3.1633,3.2092,3.3669,3.4869,3.5981,3.7569,0.0,0.0,4.0709,4.2055,4.2388,4.2545,4.2805,4.3385,4.3806,4.3835,4.2679,4.1473,4.0498,3.7566,3.5426,3.5189,3.4647,3.4148,3.3934,3.2945,3.23,3.2206,3.0872,2.9967,2.9872,2.9063,2.8508,2.8307,2.7777,2.6954,2.5749,2.5738,2.5124,2.3894,2.3506,2.3317,2.3215,2.2813,2.2602,2.2583,2.2141,2.1739,2.1426,2.1316,2.1245,2.1205,2.1205,2.1041,2.076,1.9982,1.9698,1.958,0.0,0.0,0.0,0.0,0.0,0.0,0.0,0.0,0.0,3.515,3.4184,3.3583,3.3916,3.2443,3.1597,3.2026,3.3949,3.587,3.7521,3.8435,3.8922,3.8934,3.6489,3.4571,3.3364,3.2497,3.1878,3.1527,3.1352,3.1414,3.173,3.205,3.2606,3.3379,3.409,3.489,3.5772,3.6276,3.6743,3.7234,3.8237,3.849,3.8415,3.9842,3.9415,3.805,3.8045,3.8095,0.0,3.7713,3.8131,3.8907,3.9567,3.9191,3.8138,3.623,3.5533,3.5174,3.4198,3.4925,3.6105,3.6725,3.8455,4.0323,4.1726,4.1783,4.2022,4.3681,4.3729,4.3502,4.3853,4.4146,4.4219,0.0,4.2945,4.1731,4.0174,3.8334,3.6593,3.5268,3.4865,3.452,3.3988,3.2634,3.2174,3.317,3.1617,3.0508,3.0256,2.942,2.863,2.7914,2.7366,2.6758,2.6113,2.5784,2.5256,2.4573,2.4551,2.4313,2.3935,2.3652,2.3456,2.3271,2.2631,2.2443,2.251,2.209,2.1921,2.1921,2.1921,2.1921,2.1797,2.0944,2.0673,2.0595,0.0,0.0,0.0,0.0,0.0,0.0,0.0,0.0,0.0,0.0,3.4456,3.3795,3.3769,3.2673,3.2172,3.2731,3.4353,3.6065,3.7774,3.8442,3.9119,3.9834,3.7209,3.5554,3.5162,3.3839,3.328,3.3536,3.3237,3.3304,3.3741,3.4481,3.5245,3.6027,3.6723,3.7341,3.7854,3.8085,3.8162,3.8202,3.9334,3.9734,3.9766,4.1053,4.0598,3.9208,3.8592,3.8093,3.7619,3.7024,3.7297,3.7903,3.8132,3.7963,3.7367,3.5661,3.5195,3.5358,3.5752,3.6582,3.7441,3.7712,3.9564,4.1411,4.1838,4.2016,4.2585,4.4174,4.3957,4.349,4.3757,4.3962,4.3796,4.3027,4.2603,4.1741,3.9844,3.8796,3.7611,3.591,3.5359,3.4856,3.4264,3.2751,3.2243,3.3303,3.2131,3.1179,3.0852,3.0157,2.9284,2.8216,2.7661,2.7119,2.6566,2.6205,2.5777,2.5358,2.5436,2.5115,2.4485,2.4287,2.4151,2.409,2.3558,2.3537,2.3806,2.3243,2.3043,2.3043,2.3043,2.2918,2.2735,2.2142,2.1676,2.1305,0.0,0.0,0.0,0.0,0.0,0.0,0.0,0.0,0.0,0.0,0.0,0.0,0.0,3.3074,3.3045,3.299,3.4645,3.6367,3.799,3.8168,3.9292,4.1706,3.8628,3.7239,3.804,3.5629,3.4756,3.5618,3.4751,3.5117,3.6593,3.7329,3.806,3.8822,3.9542,4.0167,4.0683,4.069,4.0945,4.1404,4.2038,4.2067,4.1778,4.2408,4.1975,4.0897,3.9988,3.8598,3.7078,3.6017,3.6129,3.657,3.5461,3.5604,3.6034,3.5308,3.4649,3.4302,3.5014,3.5726,3.6448,3.73,3.8566,3.9961,4.1373,4.2213,4.2911,4.3692,4.3234,4.2538,4.1994,4.235,4.2324,4.1028,4.1322,4.1263,3.9967,3.848,3.7501,3.7434,3.6207,3.5266,0.0,3.3697,3.2647,3.2081,3.1992,3.1966,3.1939,3.1455,3.0854,3.0215,2.9693,2.8736,2.7286,2.7261,2.6827,2.596,2.5595,2.5091,2.448,2.4015,2.4132,2.4684,2.4648,2.4648,2.466,2.4625,2.4625,2.4625,2.4625,2.426,2.3746,2.3723,2.2855,2.1675,0.0,0.0,0.0,0.0,0.0,0.0,0.0,0.0,0.0,0.0,0.0,0.0,0.0,0.0,0.0,0.0,3.5402,3.6487,3.818,3.8868,3.9822,4.1239,3.9719,3.9209,4.0041,3.8134,3.7806,3.9215,3.8296,3.8419,3.95,4.0242,4.0662,4.085,4.1635,4.2011,4.205,4.1817,4.1776,4.1959,4.2505,4.2603,4.2392,4.2436,4.1739,4.0636,0.0,3.8596,3.7463,3.6209,3.5958,3.6272,3.6853,3.6069,3.4769,3.4153,3.4195,3.4676,3.5885,3.7209,3.8449,3.9236,4.0459,4.1624,4.2127,4.243,4.2649,4.2888,4.192,4.0985,4.0786,4.1306,4.1464,4.0571,4.1025,4.1202,4.0308,3.9358,3.8546,3.8023,3.7557,0.0,0.0,0.0,0.0,3.2585,3.1573,3.1099,3.147,3.0561,2.9972,2.978,2.8846,2.8137,2.765,2.7274,2.6944,2.6638,2.6534,2.6091,2.5357,2.5211,2.5293,2.5615,2.5098,2.5035,2.5203,2.4688,2.429,2.3968,2.3968,2.3839,2.3685,2.3685,2.2913,2.1916,0.0,0.0,0.0,0.0,0.0,0.0,0.0,0.0,0.0,0.0,0.0,0.0,0.0,0.0,0.0,0.0,0.0,3.6436,3.7881,3.8501,3.9321,4.0515,3.9774,3.9728,4.0553,3.8926,3.8883,4.0563,3.9962,4.0286,4.1464,4.2492,4.2911,4.2866,4.3588,4.3835,4.3685,4.3452,4.3274,4.3169,4.3202,4.3267,4.3285,4.2745,4.1991,0.0,3.9712,3.8848,3.8042,3.6134,3.588,3.6343,3.6333,3.5596,3.4683,3.4571,3.5087,3.6028,3.7481,3.8689,3.9691,4.0258,4.1094,4.1765,4.1871,4.1886,4.2037,4.2575,4.122,4.0023,4.0308,4.0467,4.033,3.965,4.0208,4.053,4.0096,3.9463,3.896,3.8671,3.8627,3.8154,0.0,0.0,0.0,3.3754,3.2263,3.144,3.1546,3.0592,2.9733,2.9127,2.8621,2.8143,2.7696,2.7348,2.7214,2.7268,2.7128,2.6915,2.6616,2.6413,2.6371,2.6451,2.5986,2.5808,2.5761,2.5259,2.4883,2.4571,2.4571,2.4302,2.3934,2.3934,2.3238,2.2286,0.0,0.0,0.0,0.0,0.0,0.0,0.0,0.0,0.0,0.0,0.0,0.0,0.0,0.0,0.0,0.0,0.0,0.0,3.708,3.7173,3.7938,3.9592,3.8961,3.8965,3.984,3.8301,3.8318,3.9998,3.9947,4.0806,4.2503,4.4014,4.4705,4.4734,4.5337,4.5576,4.5492,4.5438,4.5258,4.4981,4.4181,4.4123,4.4355,4.339,4.2742,4.2101,4.0251,3.9404,3.8744,3.59,3.5964,3.6807,3.426,3.4446,3.5754,3.6507,3.7254,3.8136,3.9617,4.0013,4.011,4.0381,4.0449,4.0489,4.0759,4.0812,4.1171,4.2529,4.0998,3.9609,0.0,0.0,3.903,3.8368,3.9041,3.9622,3.9588,3.9024,3.8827,0.0,0.0,0.0,0.0,0.0,0.0,3.5563,0.0,3.2964,3.2372,3.1593,3.0372,2.8636,2.9123,2.8812,2.7636,2.7623,2.7709,2.7894,2.7498,2.7571,2.8118,2.7512,2.7213,2.7213,2.7213,2.6854,2.6254,2.6254,2.6228,2.6174,2.6201,2.5478,2.4465,2.4465,2.3775,2.2748,0.0,0.0,0.0,0.0,0.0,0.0,0.0,0.0,0.0,0.0,0.0,0.0,0.0,0.0,0.0,0.0,0.0,0.0,3.6228,3.6843,3.7427,3.7925,3.8926,3.9859,4.0689,4.0311,4.0957,4.2636,4.2025,4.2303,4.3384,4.4448,4.4866,4.4803,4.5504,4.5736,4.5579,4.5448,4.4975,4.4308,4.4739,4.4538,4.3919,4.3535,4.3165,4.27,4.1227,4.0573,4.0085,3.7685,3.7931,3.8995,3.7484,3.7633,3.8365,3.8332,3.8837,3.9512,3.9896,4.0396,4.0844,4.0897,4.0903,4.0949,4.1015,4.0747,4.0458,4.0271,3.9059,3.7909,3.7535,0.0,0.0,3.9365,4.1326,0.0,4.2232,4.1596,0.0,4.0646,0.0,3.9783,3.9553,3.9403,0.0,0.0,3.6367,3.4643,3.4073,3.3494,3.2484,3.1063,3.0741,3.0177,2.9362,2.9362,2.9393,2.9425,2.8819,2.8611,2.873,2.8153,2.7626,2.7213,2.7213,2.6583,2.5625,2.5625,2.5135,2.4403,2.4858,2.4563,2.391,2.391,2.3457,2.2738,0.0,0.0,0.0,0.0,0.0,0.0,0.0,0.0,0.0,0.0,0.0,0.0,0.0,0.0,0.0,0.0,0.0,0.0,0.0,3.6606,3.685,3.7283,3.8163,3.8879,3.932,3.9744,4.0429,4.1405,4.1694,4.2288,4.3144,4.4018,4.4393,4.4343,4.5035,4.5246,4.5107,4.4937,4.4756,0.0,0.0,4.431,4.4388,4.3786,4.3611,4.3548,4.2326,4.1694,4.1275,4.04,4.0149,4.0108,3.9474,3.9793,4.038,4.0184,4.0425,4.0831,4.1189,4.1558,4.1832,4.1639,4.1573,4.1442,4.0888,4.0567,4.017,3.957,3.8342,3.729,3.7019,3.8204,3.9323,0.0,0.0,0.0,4.354,4.2733,4.2064,0.0,4.1059,0.0,4.0439,4.0156,4.0046,0.0,3.7916,3.6193,3.5319,3.4358,3.3107,3.1543,3.1111,3.0625,3.0025,3.0058,3.0088,3.0088,2.9782,2.9659,2.9628,2.8986,2.8401,2.7806,0.0,2.6717,2.5637,2.5866,2.5259,2.4232,2.486,2.454,2.3739,2.3739,2.3365,2.2743,0.0,0.0,0.0,0.0,0.0,0.0,0.0,0.0,0.0,0.0,0.0,0.0,0.0,0.0,0.0,0.0,0.0,0.0,0.0,0.0,3.6502,3.7263,3.7343,3.7376,3.735,3.8221,3.8691,3.8768,4.023,4.1372,4.225,4.3123,4.3528,4.3544,4.4171,4.44,4.433,4.4122,4.4327,4.4696,4.3463,4.3768,4.4874,0.0,4.414,4.4412,4.3417,4.2736,4.2403,4.3082,4.2268,4.0981,4.0981,4.1451,4.1994,4.1886,4.185,4.1994,4.2701,4.2901,4.2806,4.2398,4.2208,4.1838,4.075,4.0373,4.0079,3.9579,3.8323,3.734,3.7489,3.8091,3.89,3.9873,0.0,4.3003,4.4605,4.3632,4.2912,4.3396,4.2229,4.1337,4.1194,4.0597,4.0216,4.0297,3.8938,3.7535,3.6261,3.485,3.3248,3.1372,3.1224,3.089,3.0315,3.0436,3.0481,3.0481,3.0585,3.06,3.0468,2.9827,2.9117,2.8435,0.0,0.0,2.5915,2.6378,2.5842,2.4749,2.5358,2.4946,2.3972,2.3862,2.3551,2.3065,0.0,0.0,0.0,0.0,0.0,0.0,0.0,0.0,0.0,0.0,3.6867,3.7159,0.0,0.0,0.0,0.0,0.0,0.0,0.0,0.0,0.0,3.7283,3.7928,3.8252,3.8181,3.9099,3.959,3.9588,3.9937,4.053,4.1345,4.222,4.263,4.2646,4.3319,4.3562,4.3493,4.3233,4.2784,4.2336,4.3377,4.3577,4.3367,4.4548,0.0,0.0,4.4115,4.3682,4.3411,4.3318,4.3378,4.348,4.348,4.357,4.3552,4.2882,4.2683,4.2719,4.2846,4.2901,4.2882,4.2806,4.228,4.1719,4.1499,4.0638,3.9686,3.9006,3.8317,3.7596,3.6719,3.7619,3.9255,4.1491,4.3147,4.5096,4.7807,4.6962,4.5889,0.0,4.4089,4.2961,4.2285,4.1641,0.0,0.0,0.0,3.8641,3.7296,3.645,3.5079,3.3041,3.2965,3.2646,3.1977,3.2005,3.2033,3.199,3.1551,3.1052,3.0474,2.9827,2.8885,2.7784,0.0,0.0,2.5755,2.589,2.5207,2.4134,2.4825,2.5033,2.4817,2.4265,2.4323,2.4464,0.0,0.0,0.0,0.0,0.0,0.0,0.0,3.6828,3.7586,3.8907,3.8712,3.8615,3.9023,3.9449,3.9723,0.0,0.0,0.0,0.0,0.0,0.0,0.0,3.7672,3.7851,3.7832,3.9159,3.9627,3.9179,0.0,4.0727,4.1114,4.1539,4.1702,4.1696,4.2404,4.2651,4.2512,4.2338,4.2249,4.2288,4.3071,4.3405,4.3548,0.0,0.0,0.0,4.4527,4.3978,4.3423,4.3629,4.3785,4.3852,4.3557,4.3751,4.3932,4.3155,4.2901,4.2901,4.2901,4.2901,4.2901,4.2901,4.2303,4.1596,4.1162,4.0311,3.93,3.8292,3.789,3.7498,3.6748,3.7829,3.9264,4.0671,4.2825,4.5018,4.7001,4.7036,4.672,4.6368,4.5071,4.3912,4.308,4.2072,0.0,0.0,0.0,3.8764,3.7062,3.5645,3.4429,3.3429,3.3059,3.2721,3.2398,3.2453,3.2496,3.2496,3.233,3.205,3.1729,3.1046,3.0199,2.9218,2.8529,0.0,2.6827,2.6423,2.5738,2.4984,2.5266,2.5152,2.4788,2.447,2.4546,2.4674,0.0,0.0,0.0,0.0,0.0,0.0,0.0,3.7139,3.8169,4.0364,4.0402,4.0383,4.0752,4.1024,4.1216,0.0,0.0,0.0,0.0,0.0,0.0,0.0,0.0,0.0,0.0,0.0,0.0,3.8858,4.0357,0.0,0.0,0.0,0.0,0.0,4.181,4.1865,4.1545,4.1443,4.1732,0.0,0.0,4.3176,0.0,0.0,0.0,0.0,0.0,4.4194,4.3548,4.4034,4.4045,4.3756,4.3066,4.3633,4.4287,4.3067,4.2995,4.3212,4.2974,4.2901,4.2901,4.2901,4.2176,4.127,4.0637,3.9804,3.8865,3.7864,3.765,3.7523,3.7113,3.7983,3.8975,3.9616,4.185,4.4113,4.583,4.6588,4.7034,4.7255,4.6032,0.0,4.3835,4.2466,0.0,0.0,0.0,0.0,3.6854,3.5201,3.417,3.3873,3.3482,3.3138,3.2815,3.2938,3.298,3.298,3.3145,3.3145,3.2988,3.2322,3.1589,3.071,2.9634,0.0,0.0,2.7188,2.6551,2.5988,2.5674,2.5326,2.4999,2.4773,2.4825,2.4905,0.0,0.0,0.0,0.0,0.0,0.0,0.0,3.7256,3.8654,3.9684,4.1063,4.2558,4.4151,4.2986,4.2116,0.0,0.0,0.0,0.0,0.0,0.0,0.0,0.0,0.0,0.0,0.0,0.0,3.9684,4.0641,0.0,0.0,0.0,0.0,0.0,0.0,4.146,4.0693,4.0504,0.0,0.0,0.0,0.0,0.0,0.0,0.0,0.0,0.0,4.482,4.4707,4.4533,4.4452,4.4238,4.3084,4.4186,4.542,4.2917,4.3249,4.4218,4.3176,4.2901,4.2901,4.2901,4.1759,4.0583,4.051,3.9369,3.8282,3.8158,3.814,3.7984,3.7523,3.7557,3.8206,3.9869,4.0971,4.2967,4.6715,4.7356,4.7769,4.869,0.0,0.0,4.4649,4.3287,0.0,0.0,0.0,0.0,0.0,3.742,3.6702,3.5337,3.585,3.5498,3.4227,3.4235,3.4235,3.4235,3.4235,3.3941,3.3345,3.2779,3.183,3.0613,0.0,0.0,0.0,2.7677,2.7033,2.635,2.5433,2.5628,2.6285,2.5326,2.558,2.6172,0.0,0.0,0.0,0.0,0.0,0.0,3.6498,3.7178,3.8479,4.0888,4.1335,4.2461,4.522,4.4462,4.3782,4.3808,0.0,0.0,0.0,0.0,0.0,0.0,0.0,0.0,0.0,0.0,3.9255,4.0581,4.1364,0.0,0.0,0.0,0.0,0.0,0.0,4.1597,4.1163,4.0562,0.0,0.0,0.0,0.0,0.0,0.0,0.0,0.0,0.0,0.0,4.4021,4.3834,4.3429,4.2838,4.1865,4.287,4.4243,4.333,4.3545,4.4061,4.414,4.416,4.4031,4.3519,4.2043,4.0736,4.0736,3.9415,3.8209,3.8209,3.8209,3.814,3.795,3.8329,3.8797,3.9236,4.0731,4.2463,4.4262,4.5062,4.577,4.6663,4.6073,0.0,0.0,0.0,0.0,0.0,0.0,0.0,0.0,3.7286,3.6088,3.5463,3.5299,3.498,3.4406,3.4479,3.429,3.3855,3.3943,3.3587,3.2846,3.2639,3.2024,3.1105,0.0,0.0,0.0,2.8496,2.7876,2.7509,2.6657,2.6316,2.6262,2.5819,2.5938,2.6129,0.0,0.0,0.0,0.0,0.0,3.6008,3.6615,3.7159,3.8421,4.1082,4.1568,4.2675,4.5356,4.5356,4.5157,4.5152,4.3625,0.0,0.0,0.0,0.0,0.0,0.0,0.0,0.0,0.0,3.9735,4.1365,4.2155,4.3108,0.0,0.0,4.3761,4.342,0.0,0.0,0.0,0.0,0.0,0.0,0.0,0.0,0.0,0.0,0.0,0.0,0.0,0.0,0.0,0.0,0.0,4.268,4.1569,4.2026,4.2999,4.3061,4.3606,4.429,4.4851,4.5001,4.4836,4.4229,4.248,4.0903,4.0903,3.95,3.8209,3.8209,3.8209,3.8209,3.8209,3.8662,3.8938,3.86,4.0281,4.1838,4.241,4.3506,4.4578,4.5493,0.0,4.4569,0.0,0.0,0.0,0.0,0.0,0.0,0.0,3.7283,3.6078,3.603,3.5554,3.5111,3.4638,3.4731,3.4403,3.3679,3.3762,3.3522,3.2964,3.2795,3.2369,3.1691,0.0,0.0,0.0,2.8822,2.8185,2.8079,2.7221,2.6625,2.6263,2.6141,2.6175,2.6163,0.0,0.0,0.0,0.0,0.0,0.0,3.5814,3.7275,3.8693,3.9524,4.1874,4.3821,4.4715,4.5511,4.5982,4.5982,4.4447,0.0,0.0,0.0,0.0,0.0,0.0,0.0,0.0,0.0,4.0447,4.1997,4.2923,4.421,4.5769,4.5648,4.511,4.4245,0.0,0.0,0.0,0.0,0.0,0.0,0.0,0.0,0.0,0.0,0.0,0.0,0.0,0.0,0.0,0.0,0.0,0.0,0.0,4.2203,4.214,4.1736,4.3368,4.5239,4.5049,4.5001,4.5001,4.5001,4.2919,4.0903,4.0903,3.95,3.8209,3.8209,3.8209,3.8209,3.8209,3.8209,3.8209,3.821,3.9496,4.0907,4.2047,4.3596,4.5014,0.0,0.0,4.4823,0.0,0.0,0.0,0.0,0.0,0.0,0.0,3.7887,3.7473,3.7473,3.7473,3.6749,3.5194,3.5177,3.4835,3.4093,3.4093,3.4093,3.4056,3.3522,3.2929,0.0,0.0,0.0,0.0,2.8416,2.7808,2.7689,2.6546,2.6349,2.6657,2.6245,2.635,2.6539,0.0,0.0,0.0,0.0,0.0,0.0,0.0,3.6261,3.7353,3.9407,4.0869,4.252,4.4579,4.5511,4.6002,4.6002,4.5002,0.0,0.0,0.0,0.0,0.0,0.0,0.0,0.0,0.0,4.0597,4.2817,4.3021,4.3972,4.5596,4.5464,4.5247,4.495,4.393,0.0,0.0,0.0,0.0,0.0,0.0,0.0,0.0,0.0,0.0,0.0,0.0,0.0,0.0,0.0,0.0,0.0,0.0,0.0,0.0,4.1582,4.2421,4.3156,4.3698,4.3833,4.3702,4.3108,4.1738,4.053,4.0379,3.9339,3.837,3.8242,3.8644,3.9024,3.9024,3.9876,4.0583,4.0583,4.1542,4.2395,4.2752,0.0,0.0,4.5172,4.4845,0.0,0.0,0.0,0.0,0.0,0.0,0.0,0.0,3.817,3.6961,3.5959,3.5921,3.5564,3.4812,3.4795,3.4525,3.4023,3.4023,3.3741,3.3193,3.2458,0.0,0.0,0.0,0.0,0.0,2.9501,2.8866,2.815,2.7408,2.6899,2.6573,2.6623,2.6726,2.6707,0.0,0.0,0.0,0.0,0.0,0.0,0.0,3.6041,3.6962,3.8913,4.0471,4.2141,4.4093,4.5309,4.5941,4.5898,4.5376,0.0,0.0,0.0,0.0,0.0,0.0,0.0,3.9909,4.0493,4.1532,4.3052,4.3327,4.41,4.5352,4.526,4.5192,4.5109,4.4155,4.3722,0.0,0.0,0.0,0.0,0.0,0.0,4.4279,0.0,0.0,0.0,0.0,0.0,0.0,0.0,0.0,0.0,0.0,0.0,0.0,0.0,4.176,4.2267,4.3426,4.3538,4.3163,4.2637,4.1445,4.0375,4.0247,3.9401,3.8664,3.8736,3.916,3.958,3.9785,4.0636,4.1325,4.1325,4.2341,4.3251,4.3615,0.0,0.0,4.5184,0.0,0.0,0.0,0.0,0.0,0.0,0.0,0.0,0.0,0.0,3.6146,3.4327,3.485,3.4913,3.4376,3.4376,3.3933,3.3084,3.3084,3.2674,3.1887,3.1375,0.0,0.0,0.0,0.0,0.0,2.8961,2.826,2.736,2.7013,2.6591,2.6227,2.6397,2.6445,2.6338,0.0,0.0,0.0,0.0,0.0,0.0,0.0,3.6348,3.7215,3.8132,4.0484,4.241,4.3343,4.4898,4.5807,4.5676,0.0,0.0,0.0,0.0,0.0,0.0,0.0,0.0,4.0554,4.2189,4.2988,4.2869,4.3723,4.4479,4.5091,4.5091,4.5014,4.4857,4.4049,4.3677,0.0,0.0,0.0,0.0,4.4537,4.4026,0.0,0.0,0.0,0.0,0.0,0.0,0.0,0.0,0.0,0.0,0.0,0.0,0.0,0.0,0.0,0.0,0.0,4.382,4.32,4.32,4.1865,4.0505,4.0491,3.9764,0.0,3.9708,3.9861,4.0072,4.0652,4.085,4.0956,4.1028,4.2301,4.3614,0.0,4.6122,0.0,0.0,0.0,0.0,0.0,0.0,0.0,0.0,0.0,0.0,0.0,0.0,3.5221,3.285,3.4169,3.4596,3.3882,3.381,3.3078,3.1668,3.1612,3.1186,3.0472,3.0404,0.0,0.0,0.0,0.0,0.0,2.7179,2.6399,2.5697,2.5668,2.5663,2.5663,2.5676,2.5688,2.5593,0.0,0.0,0.0,0.0,0.0,0.0,0.0,0.0,0.0,0.0,3.9484,4.1254,4.2802,4.4451,4.5435,0.0,0.0,0.0,0.0,0.0,0.0,0.0,0.0,0.0,4.2009,4.2366,4.2843,4.3403,4.3627,4.4148,4.4943,4.4943,4.4919,4.4883,4.4575,4.4365,0.0,0.0,0.0,0.0,4.4515,4.4026,0.0,0.0,0.0,0.0,4.305,4.2881,0.0,0.0,0.0,0.0,0.0,0.0,0.0,0.0,4.1942,4.1454,4.3125,0.0,4.2305,4.2305,4.1946,4.1579,0.0,4.1212,4.1018,4.0926,4.1399,4.2113,4.3003,4.3167,4.3402,4.4172,4.4157,4.4572,4.6069,0.0,0.0,4.5258,0.0,0.0,0.0,0.0,0.0,0.0,0.0,0.0,0.0,0.0,3.5447,3.3605,3.3318,3.2986,3.2538,3.1946,3.188,3.2365,3.1745,3.1344,3.1138,3.0542,0.0,0.0,0.0,0.0,2.7505,2.6694,2.6135,2.5749,2.5377,2.5233,2.5266,2.546,2.5552,2.5515,0.0,0.0,0.0,0.0,0.0,0.0,0.0,0.0,0.0,0.0,0.0,0.0,0.0,0.0,0.0,0.0,0.0,0.0,0.0,0.0,0.0,0.0,0.0,4.3308,4.2468,4.3175,4.3557,4.3594,4.4004,4.4404,4.4815,4.4815,4.4789,4.4725,4.4646,4.4565,0.0,0.0,0.0,0.0,4.3951,0.0,0.0,0.0,0.0,0.0,4.198,4.1849,0.0,4.1999,4.1304,4.0384,0.0,0.0,0.0,0.0,4.2919,4.2712,4.3595,4.2943,4.2004,4.2004,4.2004,4.1978,4.187,4.1842,4.1866,4.2002,4.2369,4.294,4.3797,4.4275,4.4631,4.4853,4.554,0.0,0.0,0.0,4.7942,4.6442,0.0,0.0,0.0,0.0,0.0,0.0,0.0,0.0,0.0,0.0,3.4563,3.289,3.206,3.1679,3.1773,3.1354,3.1237,3.1494,3.1054,3.0722,3.0445,2.9621,0.0,0.0,0.0,0.0,2.6483,2.6059,2.5582,2.5092,2.4896,2.4809,2.4838,2.5093,2.519,2.5171,0.0,0.0,0.0,0.0,0.0,0.0,0.0,0.0,0.0,0.0,0.0,0.0,0.0,0.0,0.0,0.0,0.0,0.0,0.0,0.0,0.0,0.0,4.3364,4.3421,4.2747,4.4102,4.4474,4.3742,4.4474,4.477,4.4672,4.4672,4.4605,4.4501,4.4501,4.4501,0.0,0.0,0.0,0.0,4.3482,0.0,0.0,0.0,0.0,0.0,0.0,0.0,0.0,4.076,4.0347,3.9908,4.0591,0.0,0.0,0.0,0.0,0.0,4.4275,4.3375,4.238,4.238,4.238,4.238,4.238,4.238,4.2532,4.3028,4.3274,4.3587,4.4289,4.5107,4.5525,4.5087,0.0,0.0,5.0209,4.9167,4.8138,0.0,0.0,0.0,0.0,0.0,0.0,0.0,0.0,0.0,0.0,0.0,0.0,3.1816,3.0979,3.0732,3.112,3.1138,3.0844,3.0279,3.0169,2.988,2.9405,2.8687,0.0,0.0,0.0,0.0,2.5959,2.5838,2.5393,2.478,2.4906,2.4944,2.4968,2.5133,2.5128,2.5014,0.0,0.0,0.0,0.0,0.0,0.0,0.0,0.0,0.0,0.0,0.0,0.0,0.0,0.0,0.0,0.0,0.0,0.0,0.0,0.0,0.0,4.418,4.4307,4.4307,4.4194,4.4438,4.4495,4.4363,4.4495,4.4537,4.4542,4.4542,4.4528,4.4501,4.4501,4.4501,4.4501,4.4501,0.0,4.4313,4.4313,0.0,0.0,0.0,0.0,0.0,0.0,0.0,0.0,4.0572,4.0722,4.0647,4.076,0.0,0.0,0.0,0.0,0.0,4.3275,4.3801,4.4125,4.4125,4.4125,4.4125,4.4125,4.4125,4.413,4.4233,4.4927,4.5811,4.6711,4.7074,4.7485,4.8245,0.0,4.9955,0.0,0.0,0.0,0.0,0.0,0.0,0.0,0.0,0.0,0.0,0.0,0.0,0.0,0.0,0.0,3.2091,3.12,3.0469,2.9878,2.9878,3.0158,3.0701,3.0009,2.9645,2.957,2.9485,2.9438,0.0,0.0,2.8179,2.7993,2.7374,2.7031,2.6926,2.6942,2.6945,2.6964,2.6986,2.6565,2.5996,0.0,0.0,0.0,0.0,0.0,0.0,0.0,0.0,0.0,0.0,0.0,0.0,0.0,0.0,0.0,0.0,0.0,0.0,0.0,0.0,4.4501,4.4501,4.4501,4.4501,4.4501,4.4501,4.4501,4.4501,4.4501,4.4501,4.4501,4.4501,4.4501,4.4501,4.4501,4.4501,4.4519,4.4951,4.4646,4.3895,0.0,0.0,0.0,0.0,0.0,0.0,0.0,0.0,0.0,0.0,4.1098,4.1441,4.1441,0.0,0.0,0.0,0.0,0.0,4.2492,4.3219,4.397,4.4388,4.5176,4.5852,4.5852,4.5852,4.5852,4.5852,4.6276,4.6798,4.7308,4.8245,4.9427,5.0863,0.0,4.9377,0.0,0.0,0.0,0.0,0.0,0.0,0.0,0.0,0.0,0.0,0.0,0.0,0.0,0.0,0.0,0.0,3.0768,3.0204,2.9973,2.9973,3.0059,3.0208,2.9841,2.9705,2.9804,2.9393,2.9216,2.9152,0.0,2.7573,2.7854,2.7062,2.7013,2.7406,2.7473,2.7508,2.7521,2.7631,2.7446,2.7127,0.0,0.0,0.0,0.0,0.0,0.0,0.0,0.0,0.0,0.0,0.0,0.0,0.0,0.0,0.0,0.0,0.0,0.0,0.0,4.4388,4.4501,4.4501,4.4501,4.4501,4.4501,4.4313,4.4219,4.4219,4.4013,4.39,4.3919,4.4106,4.4219,4.4219,4.4407,4.4501,4.4538,4.5172,4.4702,4.3632,0.0,0.0,0.0,0.0,0.0,0.0,0.0,0.0,0.0,0.0,0.0,0.0,0.0,0.0,0.0,4.161,4.1704,4.1967,4.176,4.2487,4.3482,4.4294,4.5458,4.658,4.7162,4.7143,4.7124,4.75,4.7867,4.8091,4.799,4.9182,0.0,5.199,5.0054,0.0,0.0,0.0,0.0,0.0,0.0,0.0,0.0,0.0,0.0,0.0,0.0,0.0,0.0,0.0,0.0,0.0,3.0449,3.0092,3.0305,3.0299,3.0159,2.9836,2.9842,2.992,3.0049,2.9433,2.9173,2.9155,2.7892,2.7625,2.8053,2.7444,2.7539,2.8098,2.8218,2.8256,2.8249,2.8209,2.8184,2.8184,0.0,0.0,0.0,0.0,0.0,0.0,0.0,0.0,0.0,0.0,0.0,0.0,0.0,0.0,0.0,0.0,0.0,0.0,0.0,4.4102,4.4501,4.4501,4.4501,4.4501,4.4501,4.3764,4.3388,4.3388,4.2567,4.2173,4.2192,4.3013,4.3388,4.3426,4.4177,4.4501,4.4501,4.4557,4.4519,4.4407,4.4482,0.0,0.0,0.0,0.0,0.0,0.0,0.0,0.0,0.0,0.0,0.0,0.0,0.0,4.275,4.0453,4.0835,4.1835,4.1098,4.2074,4.3482,4.4294,4.4594,4.5284,4.7594,4.7537,4.7443,4.9002,5.0122,5.0599,4.9874,5.0025,5.0328,5.0455,5.0283,0.0,0.0,0.0,0.0,0.0,0.0,0.0,0.0,0.0,0.0,0.0,0.0,0.0,0.0,0.0,0.0,0.0,0.0,3.0279,3.0312,3.0305,3.0292,3.026,3.026,3.0266,3.0279,3.0222,3.0196,3.0202,3.013,3.0136,3.0188,3.0111,3.013,3.0188,3.0194,3.02,3.0104,2.9313,2.9011,2.9011,0.0,0.0,0.0,0.0,0.0,0.0,0.0,0.0,0.0,0.0,0.0,0.0,0.0,0.0,0.0,0.0,0.0,0.0,0.0,4.3414,4.3811,4.4354,4.3849,4.3568,4.3568,4.3385,4.2787,4.1755,4.1417,4.1766,4.2757,4.3131,4.3543,4.4008,4.4355,4.4501,4.4519,4.504,4.4965,4.4538,4.504,4.5059,0.0,0.0,0.0,0.0,0.0,0.0,0.0,0.0,4.1772,4.256,4.1505,4.1979,4.2621,4.0995,4.0692,4.0903,4.0964,4.2306,4.3749,4.4049,4.4953,4.6372,4.8724,4.9017,4.9159,5.0363,5.151,5.2047,5.1344,5.0366,5.0029,5.1062,0.0,0.0,0.0,0.0,0.0,0.0,0.0,0.0,0.0,0.0,0.0,0.0,0.0,0.0,0.0,0.0,0.0,0.0,0.0,3.0492,3.0491,3.0481,3.0481,3.0491,3.0406,3.0371,3.043,3.0422,3.0443,3.0466,2.9971,3.0053,3.0498,2.9976,3.0072,3.0518,3.0518,3.0518,3.047,3.01,2.996,2.995,0.0,0.0,0.0,0.0,0.0,0.0,0.0,0.0,0.0,0.0,0.0,0.0,0.0,0.0,0.0,0.0,0.0,0.0,4.2207,4.2487,4.2898,4.3478,4.2936,4.2506,4.2245,4.2379,4.1876,4.0733,4.047,4.0913,4.2015,4.2575,4.31,4.3629,4.3952,4.4243,4.4519,4.4815,4.4777,4.4538,4.5097,4.5322,0.0,0.0,0.0,0.0,0.0,0.0,0.0,0.0,4.188,4.2612,4.202,4.2039,4.2143,4.1409,4.11,4.1027,4.1161,4.2521,4.396,4.4237,4.5403,4.7131,4.9587,4.986,5.0076,5.1796,5.2602,5.2799,5.2116,5.0557,0.0,0.0,0.0,0.0,0.0,0.0,0.0,0.0,0.0,0.0,0.0,0.0,0.0,0.0,0.0,0.0,0.0,0.0,0.0,0.0,0.0,0.0,3.0593,3.0593,3.0593,3.0593,3.051,3.0496,3.0527,3.0527,3.056,3.0577,3.0017,3.0092,3.0558,3.0017,3.0092,3.0593,3.0593,3.0593,3.059,3.0552,3.0527,3.0537,0.0,0.0,0.0,0.0,0.0,0.0,0.0,0.0,0.0,0.0,0.0,0.0,0.0,0.0,0.0,0.0,0.0,0.0,4.0587,4.1348,4.1791,4.1791,4.1791,4.1404,4.0624,4.0606,4.0587,4.0587,3.9778,3.9386,3.9461,4.1054,4.1842,4.1948,4.281,4.3676,4.4426,4.3613,4.3745,4.4482,4.4482,4.4482,4.4313,0.0,0.0,0.0,0.0,0.0,0.0,0.0,4.0864,4.0511,4.2163,4.2115,4.1428,4.1418,4.202,4.2507,4.1648,4.2632,4.4123,4.4994,4.5863,4.7256,5.0047,4.9756,4.9862,5.3279,5.3459,5.2771,5.2095,5.0619,0.0,0.0,0.0,0.0,0.0,0.0,0.0,0.0,0.0,0.0,0.0,0.0,0.0,0.0,0.0,0.0,0.0,0.0,0.0,0.0,0.0,0.0,3.0597,3.0597,3.0597,3.0597,3.0597,3.0597,3.0597,3.0597,3.0597,3.0597,3.0597,3.0597,3.0597,3.0597,3.0597,3.0597,3.0597,3.0597,3.0597,3.0597,3.0597,3.0597,0.0,0.0,0.0,0.0,0.0,0.0,0.0,0.0,0.0,0.0,0.0,0.0,0.0,0.0,0.0,0.0,0.0,0.0,3.9191,4.0224,4.0821,4.0821,4.0821,4.071,4.0454,4.0454,4.023,3.976,3.8345,3.8506,4.0207,4.1288,4.1787,4.181,4.2674,4.2913,4.2664,4.242,4.2471,4.2793,4.3407,4.3989,4.4313,0.0,0.0,0.0,0.0,0.0,0.0,0.0,0.0,0.0,4.2051,4.288,4.3493,4.2746,4.2805,4.3023,4.2631,4.344,4.4585,4.5422,4.6769,4.8276,4.9672,4.9618,4.9942,5.2365,5.2197,5.137,5.0667,4.954,0.0,0.0,0.0,0.0,0.0,0.0,0.0,0.0,0.0,0.0,0.0,0.0,0.0,0.0,0.0,0.0,0.0,0.0,0.0,0.0,0.0,0.0,3.0734,3.0734,3.0734,3.0734,3.0734,3.0717,3.0667,3.0667,3.0704,3.0734,3.0734,3.0734,3.0734,3.0734,3.0734,3.0734,3.0734,3.0734,3.073,3.0699,3.0667,3.0659,0.0,0.0,0.0,0.0,0.0,0.0,0.0,0.0,0.0,0.0,3.8377,3.8752,0.0,0.0,0.0,0.0,0.0,0.0,0.0,3.9197,3.9542,3.9223,3.9973,4.0564,4.0866,4.0564,4.0198,3.9796,3.879,3.9029,4.0491,4.1334,4.1534,4.1255,4.2128,4.2291,4.1873,4.1582,4.1678,4.2079,4.2956,4.3388,4.3393,0.0,0.0,0.0,0.0,0.0,0.0,0.0,0.0,0.0,4.2415,4.2995,4.3575,4.3609,4.348,4.3343,4.3573,4.4358,4.5402,4.6577,4.7701,4.8625,4.911,4.9667,5.0322,5.1186,5.094,5.0436,4.9973,4.885,0.0,0.0,0.0,0.0,0.0,0.0,0.0,0.0,0.0,0.0,0.0,0.0,0.0,0.0,0.0,0.0,0.0,0.0,0.0,0.0,0.0,0.0,3.08,3.08,3.08,3.08,3.08,3.0773,3.0734,3.0734,3.0765,3.08,3.08,3.08,3.08,3.08,3.08,3.08,3.08,3.08,3.0799,3.0742,3.0734,3.073,0.0,0.0,0.0,0.0,0.0,0.0,0.0,0.0,0.0,0.0,3.745,3.7578,0.0,0.0,0.0,0.0,0.0,0.0,0.0,3.8323,3.8233,3.7544,3.9441,4.0899,4.1683,4.0977,4.0657,4.0717,4.0434,4.0285,4.029,4.1181,4.1165,4.0416,4.1292,4.1642,4.1512,4.0777,4.0916,4.1742,4.2618,4.2524,4.1892,4.1892,0.0,0.0,0.0,0.0,0.0,0.0,0.0,0.0,4.3034,4.2802,4.2538,4.404,4.3988,4.3589,4.4396,4.5241,4.6358,4.816,4.8619,4.8606,4.8521,4.9659,5.0539,4.9737,4.9689,4.9771,4.9673,4.8366,0.0,0.0,0.0,0.0,0.0,0.0,0.0,0.0,0.0,0.0,0.0,0.0,0.0,0.0,0.0,0.0,0.0,0.0,0.0,0.0,0.0,0.0,3.08,3.08,3.08,0.0,3.08,3.0801,3.0803,3.0801,3.08,3.08,3.08,3.08,3.08,3.08,3.08,3.08,3.08,3.08,3.08,3.08,3.08,3.08,0.0,0.0,0.0,0.0,0.0,0.0,0.0,0.0,0.0,0.0,0.0,0.0,0.0,0.0,0.0,0.0,0.0,0.0,0.0,3.7655,3.8257,3.8355,4.0274,4.172,4.2519,4.237,4.2593,4.3225,4.0643,3.938,3.9417,4.0903,4.0834,3.9527,4.0398,4.0125,3.8933,3.8159,3.8308,3.9183,4.0027,4.0647,4.106,4.106,4.1172,0.0,0.0,0.0,0.0,0.0,0.0,0.0,4.3034,4.3634,4.3983,4.3673,4.3963,4.4433,4.4633,4.5317,4.6539,4.8929,4.9511,4.9362,4.8718,4.8336,4.8064,4.7889,4.838,4.8677,4.7997,0.0,0.0,0.0,0.0,0.0,0.0,0.0,0.0,0.0,0.0,0.0,0.0,0.0,0.0,0.0,0.0,0.0,0.0,0.0,0.0,0.0,0.0,3.08,3.08,3.08,3.08,0.0,3.08,3.0808,3.0797,3.0807,3.08,3.08,3.08,3.08,3.08,3.08,3.08,3.08,3.08,3.08,3.08,3.08,3.08,3.08,0.0,0.0,0.0,0.0,0.0,0.0,0.0,0.0,0.0,0.0,0.0,0.0,0.0,0.0,0.0,0.0,0.0,0.0,0.0,0.0,3.8409,3.9751,4.1141,4.2165,4.2797,4.3188,4.3206,4.2853,4.1516,4.0866,4.0884,4.1757,4.1541,4.0421,4.0896,4.0475,3.9358,3.8577,3.852,3.9007,3.9852,4.019,4.0284,4.0647,4.081,4.0759,4.0358,0.0,0.0,0.0,0.0,0.0,0.0,0.0,4.3943,4.3472,4.3406,4.3637,4.4469,4.5347,4.6517,4.8683,4.9854,5.0043,4.8399,4.7992,4.7751,4.6948,4.7077,4.722,0.0,0.0,0.0,0.0,0.0,0.0,0.0,0.0,0.0,0.0,0.0,0.0,0.0,0.0,0.0,0.0,0.0,0.0,0.0,0.0,0.0,0.0,3.1046,3.0795,3.0799,3.0799,3.0799,3.0799,3.0799,3.08,3.0801,3.08,3.0799,3.0799,3.0799,3.0799,3.0799,3.0799,3.0797,3.0793,3.0798,3.0794,3.0803,3.0796,3.0797,3.0793,0.0,0.0,0.0,0.0,0.0,0.0,0.0,0.0,0.0,0.0,0.0,0.0,0.0,0.0,0.0,0.0,0.0,0.0,0.0,0.0,0.0,4.0899,4.1774,4.2396,4.2797,4.3448,4.3076,4.159,4.2259,4.2649,4.2797,4.2797,4.2411,4.1716,4.1773,4.1333,4.047,3.9696,3.9383,3.9458,4.0253,4.0272,3.989,4.0703,4.0749,4.0358,4.0396,4.0633,4.1055,4.1751,0.0,0.0,0.0,0.0,4.3371,4.323,4.2673,4.2457,4.4053,4.5463,4.6844,4.8438,4.9807,5.0228,4.81,4.7969,4.7881,4.6495,4.6102,4.5969,0.0,0.0,0.0,0.0,0.0,0.0,0.0,0.0,0.0,0.0,0.0,0.0,0.0,0.0,0.0,0.0,0.0,0.0,0.0,0.0,3.1556,3.082,3.08,3.0801,3.0797,3.0797,3.0797,3.0797,3.0795,3.0794,3.0794,3.0792,3.0793,3.0797,3.0797,3.0797,3.0797,3.0797,3.08,3.08,3.0799,3.0801,3.0793,3.08,3.08,3.0801,0.0,0.0,0.0,0.0,0.0,0.0,0.0,0.0,0.0,0.0,3.6527,3.7007,0.0,0.0,0.0,0.0,0.0,0.0,3.7007,0.0,0.0,4.0507,4.1673,4.2447,4.2797,4.2909,4.25,4.159,4.1702,4.211,4.2797,4.2797,4.2445,4.1787,4.1787,4.1028,3.969,3.8845,3.8469,3.8544,3.942,4.0115,4.0722,4.1516,4.148,4.1,4.1187,4.1384,4.1628,4.1911,4.3099,0.0,0.0,0.0,4.3264,4.2571,4.2276,4.2393,4.3389,4.5946,4.8577,4.9577,4.9428,4.8946,4.8595,4.7487,4.6475,0.0,4.6139,0.0,0.0,0.0,0.0,0.0,0.0,0.0,0.0,0.0,0.0,0.0,0.0,0.0,0.0,0.0,0.0,0.0,0.0,0.0,0.0,3.1854,3.0916,3.0798,3.0798,3.0798,3.0797,3.0797,3.0797,3.0797,3.0805,3.0798,3.0796,3.079,3.0806,3.0797,3.0797,3.0797,3.0797,3.0797,3.0797,3.0798,3.0797,3.0798,3.0799,3.0798,3.0797,3.0798,0.0,0.0,0.0,0.0,0.0,0.0,0.0,0.0,0.0,0.0,0.0,3.7455,0.0,0.0,0.0,3.7554,3.7231,3.7007,3.7007,3.787,3.8842,3.9785,4.0722,4.1297,4.146,4.1887,4.172,4.0921,4.1367,4.1999,4.2797,4.2797,4.2943,4.3183,4.2697,4.1889,4.0891,4.0046,3.9708,3.969,3.9627,4.0347,4.146,4.1347,4.1307,4.1269,4.137,4.1313,4.1349,4.2376,4.3266,4.3865,4.3478,0.0,0.0,0.0,4.154,4.1933,4.3774,4.5753,4.7504,4.8328,4.8655,4.8509,4.7513,4.7148,4.6855,4.6367,0.0,0.0,0.0,0.0,0.0,0.0,0.0,0.0,0.0,0.0,0.0,0.0,0.0,0.0,0.0,0.0,0.0,0.0,0.0,0.0,3.3413,3.2202,3.1301,3.0825,3.0806,3.08,3.0806,3.0806,3.0806,3.0806,3.0794,3.0806,3.0806,3.0808,3.08,3.0806,3.0806,3.0806,3.0806,3.0806,3.0795,3.0805,3.0792,3.0801,3.0795,3.0796,3.0795,3.0804,0.0,0.0,0.0,0.0,0.0,0.0,0.0,0.0,0.0,0.0,0.0,0.0,0.0,0.0,0.0,0.0,3.7519,3.7108,3.6707,3.7391,3.817,3.8952,3.9712,4.02,4.0401,4.0977,4.0884,4.0067,4.0661,4.1479,4.25,4.25,4.3115,4.4252,4.3598,4.2824,4.1986,4.1605,4.1304,4.1079,4.0697,4.1135,4.1986,4.1811,4.1673,4.159,4.1913,4.1841,4.1798,4.3175,4.3802,4.3953,4.3527,4.3444,0.0,0.0,0.0,4.1493,4.3668,4.5221,4.6417,4.7257,4.8124,4.8456,4.7166,4.7077,4.71,0.0,0.0,0.0,0.0,0.0,0.0,0.0,0.0,0.0,0.0,0.0,0.0,0.0,0.0,0.0,0.0,0.0,0.0,0.0,0.0,0.0,3.3441,3.2562,3.1697,3.0822,3.0803,3.079,3.0801,3.0801,3.0801,3.0801,3.0801,3.0801,3.0801,3.0801,3.0801,3.0801,3.0801,3.0801,3.0801,3.0801,3.0798,3.0799,3.0793,3.0794,3.0803,3.0802,3.08,3.0799,0.0,0.0,0.0,0.0,0.0,0.0,0.0,0.0,0.0,0.0,0.0,0.0,3.8786,3.8855,3.856,3.7885,3.7882,3.7358,3.595,3.6601,3.7391,3.8135,3.8914,0.0,4.0383,4.0453,4.003,3.9175,3.9212,4.0067,4.1664,4.1664,4.2579,4.4199,4.4218,4.34,4.2042,4.2844,4.2693,4.2004,4.2787,4.2656,4.2173,4.3712,4.3332,4.2127,4.3333,4.3769,0.0,0.0,0.0,0.0,0.0,4.3446,4.3175,0.0,0.0,0.0,4.2265,4.437,4.6502,4.7379,4.8197,4.8782,4.8685,0.0,4.6358,0.0,0.0,0.0,0.0,0.0,0.0,0.0,0.0,0.0,0.0,0.0,0.0,0.0,0.0,0.0,0.0,0.0,0.0,0.0,0.0,0.0,3.3441,3.2567,3.1707,3.0823,3.0804,3.0804,3.0801,3.0801,3.0801,3.0801,3.0801,3.0801,3.0801,3.0801,3.0801,3.0801,3.0801,3.0801,3.0801,3.0801,3.0801,3.0804,3.0801,3.0804,3.0806,3.0801,3.0801,3.0804,0.0,0.0,0.0,0.0,0.0,0.0,0.0,0.0,0.0,0.0,0.0,0.0,0.0,3.9629,3.9382,3.8684,3.7848,3.7334,3.7266,3.7093,3.7319,3.8066,3.8878,3.9376,3.9551,4.0104,3.9974,3.9101,3.9101,3.9695,4.0843,4.0843,4.1198,4.1927,4.3001,4.3222,4.2757,4.2554,4.2618,4.2769,4.1999,4.2468,4.3506,4.2506,4.2498,4.3044,4.3109,0.0,0.0,0.0,0.0,0.0,0.0,0.0,4.3175,4.1534,4.1074,4.1299,4.2157,4.3088,4.4133,4.5576,4.6144,4.6513,4.7073,4.672,4.6288,0.0,0.0,0.0,0.0,0.0,0.0,0.0,0.0,0.0,0.0,0.0,0.0,0.0,0.0,0.0,0.0,0.0,0.0,0.0,0.0,0.0,3.3475,3.2579,3.17,3.084,3.0256,3.0236,3.0782,3.0801,3.0801,3.0801,3.0801,3.0801,3.0801,3.0801,3.0801,3.0801,3.0801,3.0801,3.0801,3.0801,3.0801,3.0801,3.0801,3.0801,3.0801,3.0801,3.0801,3.0801,0.0,0.0,0.0,0.0,0.0,0.0,0.0,0.0,0.0,3.8877,0.0,0.0,0.0,0.0,4.0393,3.9504,3.8373,3.7807,3.8073,3.7883,3.7974,3.8483,3.926,3.976,3.9941,4.0248,4.0118,3.9528,3.9231,3.9547,4.0383,4.0085,4.0309,4.0966,4.1484,4.2128,4.2813,4.2835,4.3168,4.3613,4.2487,4.2881,4.3989,4.2881,4.2874,4.3535,0.0,0.0,0.0,0.0,0.0,0.0,0.0,0.0,0.0,4.1474,4.1072,4.1285,4.2162,4.2611,4.3255,4.4992,4.5437,4.567,4.6544,4.6499,4.6258,0.0,0.0,0.0,0.0,0.0,0.0,0.0,0.0,0.0,0.0,0.0,0.0,0.0,0.0,0.0,0.0,0.0,0.0,0.0,0.0,0.0,3.3885,3.2715,3.1429,2.9964,2.9925,3.0061,3.0353,3.0645,3.0801,3.0801,3.0801,3.0801,3.0801,3.0801,3.0801,3.0801,3.0801,3.0801,3.0801,3.0801,3.0801,3.0801,3.0801,3.0801,3.0801,3.0801,3.0801,3.0801,0.0,0.0,0.0,0.0,0.0,0.0,0.0,0.0,4.0647,3.9905,0.0,0.0,0.0,0.0,0.0,4.0277,3.9539,3.8863,3.8196,3.8863,3.9321,3.9333,4.0039,4.0801,4.1575,4.0861,4.0438,4.0416,3.9547,3.9547,4.0341,3.9491,3.9974,4.1475,3.9933,4.0251,4.2079,4.3694,4.4426,4.4463,4.4444,4.3989,4.3501,4.5021,4.4646,0.0,4.5376,4.5669,0.0,4.5538,0.0,0.0,0.0,0.0,0.0,4.1324,4.1113,4.1363,0.0,0.0,0.0,4.5831,4.6234,4.6464,4.735,0.0,4.6153,0.0,0.0,0.0,0.0,0.0,0.0,0.0,0.0,0.0,0.0,0.0,0.0,0.0,0.0,0.0,0.0,0.0,0.0,0.0,0.0,3.5558,3.4642,3.3008,3.0884,2.8249,2.9886,3.0373,2.9515,3.0353,3.0801,3.0801,3.0801,3.0801,3.0801,3.0801,3.0801,3.0801,3.0801,3.0801,3.0801,3.0801,3.0801,3.0801,3.0801,3.0801,3.0801,3.0801,3.0801,3.0801,0.0,0.0,0.0,0.0,0.0,4.159,4.1644,4.1342,4.1408,0.0,0.0,0.0,4.1819,4.1579,4.1557,4.1876,4.0722,3.9931,3.9831,3.9498,3.9552,4.0076,4.0908,4.1404,4.1594,4.1943,4.1571,4.0416,4.016,3.9844,3.9454,3.9212,3.9416,4.001,4.0136,4.0534,4.1089,4.1558,4.2484,4.3576,4.2943,4.3281,4.4069,4.3318,0.0,0.0,0.0,4.4692,4.5319,0.0,4.6491,4.6414,0.0,0.0,4.4016,4.3139,4.2927,4.3022,4.3274,0.0,0.0,0.0,0.0,0.0,0.0,0.0,0.0,0.0,0.0,0.0,0.0,0.0,0.0,0.0,0.0,0.0,0.0,0.0,0.0,0.0,0.0,0.0,0.0,0.0,0.0,0.0,3.7467,3.6181,3.4683,3.3008,3.0611,2.7353,2.9554,3.0373,2.9515,3.0353,3.0801,3.0801,3.0801,3.0801,3.0801,3.0801,3.0801,3.0801,3.0801,3.0801,3.0801,3.0801,3.0801,3.0801,3.0801,3.0801,3.0801,3.0801,3.0801,3.0899,0.0,0.0,0.0,0.0,0.0,4.3193,4.3549,4.3217,4.3023,0.0,0.0,0.0,4.3506,4.3242,4.3138,4.3439,4.2393,4.1646,4.1464,4.1025,4.0952,4.1379,4.1886,4.2299,4.2578,4.2723,4.2333,4.1386,4.0717,4.0337,4.0161,3.9124,3.908,3.989,3.9626,3.9746,4.0162,4.0162,4.1156,4.2709,4.2586,4.3144,0.0,4.3656,4.3938,0.0,0.0,0.0,4.5309,4.5928,4.6364,0.0,0.0,0.0,0.0,0.0,4.3105,4.3154,4.3162,4.3157,4.345,4.4699,0.0,0.0,4.5386,4.4648,0.0,0.0,0.0,0.0,0.0,0.0,0.0,0.0,0.0,0.0,0.0,0.0,0.0,0.0,0.0,0.0,0.0,0.0,0.0,0.0,3.737,3.5597,3.3142,3.2423,3.0494,2.7002,2.9087,2.9847,2.897,3.0178,3.0801,3.0801,3.0801,3.0801,3.0801,3.0801,3.0801,3.0801,3.0801,3.0801,3.0799,3.0739,3.0742,3.0801,3.0801,3.0801,3.084,3.121,3.1349,3.1408,0.0,0.0,4.3155,4.518,4.5535,4.5552,4.5638,4.5587,4.5079,0.0,4.4156,4.4854,4.569,4.5796,4.558,4.4987,4.4335,4.3634,4.2945,4.2828,4.2792,4.2808,4.281,4.3177,4.3971,4.3299,4.289,4.2797,4.1367,4.102,4.1646,3.9359,3.9101,4.0544,3.891,3.863,3.9405,3.9418,4.028,4.1705,4.2742,4.3275,0.0,0.0,4.5134,4.4576,4.5303,4.5388,4.5169,4.5328,4.5541,0.0,0.0,0.0,0.0,0.0,4.2647,4.2578,4.2659,4.2689,4.304,0.0,0.0,0.0,4.4694,4.4146,4.373,0.0,0.0,0.0,0.0,0.0,0.0,0.0,0.0,0.0,0.0,0.0,0.0,0.0,0.0,0.0,0.0,4.0409,3.9571,3.8714,3.6941,3.4408,3.0977,3.1622,3.0553,2.7158,2.8639,2.9087,2.821,2.9827,3.0665,3.0665,3.0743,3.0801,3.0801,3.0801,3.0801,3.0801,3.0774,3.0772,3.0769,3.063,3.0662,3.0772,3.0767,3.082,3.0995,3.1779,3.211,3.2208,0.0,4.3476,4.4423,4.6069,4.6372,4.6579,4.7155,4.6769,4.6268,4.5975,4.6061,4.6665,4.7982,4.7631,4.704,4.6377,4.5744,4.4868,4.3628,4.308,4.2792,4.2808,4.281,4.3177,4.3971,4.3856,4.3448,4.2797,4.2482,4.2099,4.1683,4.0533,4.0247,4.0643,3.9657,3.9281,3.9405,3.952,3.9689,4.0029,4.1627,4.3055,4.4294,4.4594,4.4632,4.4519,4.467,4.4806,4.5038,4.6129,4.5754,4.5041,0.0,0.0,0.0,4.5115,0.0,0.0,0.0,0.0,0.0,0.0,0.0,0.0,4.4072,4.3263,4.3075,0.0,0.0,0.0,0.0,0.0,0.0,0.0,0.0,0.0,0.0,0.0,0.0,0.0,0.0,0.0,0.0,4.0951,4.0484,3.961,3.7272,3.4408,3.0977,3.1622,3.0825,2.8035,2.895,2.9087,2.821,2.9223,2.9749,2.9769,3.047,3.0801,3.0801,3.0801,3.0801,3.0799,3.0694,3.0633,3.063,3.0548,3.0564,3.063,3.0583,3.0996,3.1626,3.1742,3.2226,3.2924,4.3603,4.4337,4.5337,4.6889,4.7165,4.7407,4.8137,4.7913,4.7689,4.7689,4.87,4.9378,4.9407,4.9464,4.9249,4.8608,4.763,4.6436,4.5023,4.4331,4.3784,4.3404,4.3008,4.3177,4.3971,4.4005,4.3801,4.3392,4.3002,4.2873,4.2972,4.1726,4.1217,4.1308,4.0476,3.9857,3.9457,3.952,3.9957,4.0729,4.1627,0.0,4.3337,4.4182,4.4501,4.4501,4.4501,4.4726,4.5044,4.5379,4.5383,0.0,0.0,4.5423,4.4762,0.0,4.4288,4.3551,0.0,0.0,0.0,4.3157,0.0,0.0,0.0,4.2373,4.2242,4.3944,4.3926,0.0,0.0,0.0,0.0,0.0,0.0,0.0,0.0,0.0,0.0,0.0,0.0,0.0,0.0,4.1341,4.0565,3.926,3.7136,3.4798,3.2226,3.168,3.0648,2.8892,2.9262,2.9282,2.8853,2.971,3.0158,3.0158,3.0587,3.0801,3.0801,3.0801,3.0767,3.07,3.063,3.0571,3.0543,3.0443,3.0414,3.0438,3.0501,3.1014,3.1796,3.2193,3.2908,3.3715,4.419,4.4889,4.588,4.7414,4.7689,4.7982,4.8879,4.8896,4.8896,4.9189,5.0843,5.1636,5.0752,5.1146,5.128,5.0845,4.9383,4.7945,4.669,4.5793,4.489,4.3935,4.3476,4.347,4.3876,4.4122,4.4172,4.4005,4.3355,4.3465,4.4281,4.2735,4.2113,4.2211,4.1177,4.0439,3.9944,3.9639,4.0444,4.1906,0.0,4.2192,4.2624,4.3975,4.4501,4.4482,4.4313,4.4449,4.4607,4.4259,4.4685,4.5298,4.5028,4.5084,0.0,0.0,0.0,0.0,0.0,0.0,0.0,0.0,0.0,4.255,0.0,0.0,0.0,4.3163,0.0,0.0,0.0,0.0,0.0,0.0,0.0,0.0,0.0,0.0,0.0,0.0,0.0,0.0,0.0,4.1575,4.039,3.8636,3.7194,3.5597,3.3729,3.2148,3.0899,3.0022,2.9671,2.9496,2.9496,3.0197,3.0548,3.0548,3.0694,3.0767,3.0767,3.0753,3.0685,3.0571,3.0556,3.0507,3.0438,3.0325,3.0291,3.0316,3.0574,3.1185,3.2003,3.2869,3.3738,3.4465,4.4276,4.4889,4.588,4.7414,4.7689,4.8172,4.9648,4.924,4.9275,5.0666,5.108,5.1683,5.2891,5.2459,5.2153,5.2263,5.0376,4.886,4.8103,4.6813,4.5294,4.3539,4.4401,4.4469,4.3494,4.4584,4.4766,4.4005,4.3912,4.4023,4.4281,4.3314,4.2974,4.3088,4.1511,4.1096,4.155,4.0171,4.0477,0.0,4.1978,4.2887,0.0,4.4426,4.4501,4.4407,4.3688,4.3127,4.2837,0.0,4.3654,4.3617,0.0,4.4278,4.2818,4.423,0.0,0.0,0.0,0.0,0.0,0.0,4.2417,0.0,0.0,0.0,4.2301,4.2503,0.0,0.0,0.0,0.0,0.0,0.0,0.0,0.0,0.0,0.0,0.0,0.0,0.0,0.0,0.0,0.0,4.039,3.8636,3.8324,3.7116,3.4606,3.3592,3.2715,3.1839,3.0317,2.9496,2.9496,2.9593,2.9652,2.9652,3.0302,3.0626,3.0623,3.0552,3.0528,3.0491,3.0392,3.0337,3.0319,3.0247,3.0213,3.0289,3.1087,3.1872,3.2694,3.3563,3.4404,3.5105,4.4941,4.5173,4.5742,4.6889,4.7079,4.7424,4.851,4.9844,5.0843,5.108,5.2632,5.3804,5.4011,5.3493,5.3368,5.3897,0.0,5.036,0.0,0.0,4.6584,4.5867,4.5425,4.5201,4.5204,4.5278,4.4859,4.4005,4.4005,4.384,4.3538,4.3169,4.2843,4.2511,4.1798,4.1672,4.1908,4.1272,4.1667,0.0,0.0,0.0,0.0,4.3801,4.3487,4.3018,4.2661,4.2479,4.2413,0.0,4.2688,0.0,0.0,0.0,0.0,0.0,0.0,0.0,0.0,0.0,0.0,0.0,0.0,0.0,4.1264,0.0,4.1796,0.0,0.0,0.0,0.0,0.0,0.0,0.0,0.0,0.0,0.0,0.0,0.0,0.0,0.0,0.0,0.0,0.0,0.0,0.0,0.0,3.8013,3.6921,3.509,3.3709,3.2871,3.1644,3.0765,3.0256,3.0186,3.0149,3.0149,3.0405,3.0539,3.0539,3.0519,3.0467,3.0381,3.0325,3.0567,3.0956,3.0423,3.0777,3.1687,3.205,3.2394,3.2814,3.3681,3.4503,3.5209,4.569,4.5552,4.5656,4.6475,4.6613,4.6924,4.7844,4.9844,5.1291,5.1407,5.3322,5.4718,5.4868,5.4191,0.0,0.0,5.3463,5.1696,0.0,0.0,4.7798,0.0,0.0,0.0,0.0,4.569,4.5082,4.4005,4.4005,4.3784,4.3337,4.3113,4.2899,4.268,4.2211,4.2267,4.2661,4.2192,4.2624,4.3613,4.3388,4.3163,4.2938,4.2938,4.2412,4.1667,4.1667,4.1638,4.1609,4.1392,4.1877,0.0,4.2386,0.0,0.0,0.0,0.0,0.0,4.2064,0.0,0.0,0.0,0.0,0.0,0.0,0.0,0.0,0.0,0.0,0.0,0.0,0.0,0.0,0.0,0.0,0.0,0.0,0.0,0.0,0.0,0.0,0.0,0.0,0.0,0.0,0.0,4.0058,0.0,3.887,3.6824,3.5285,3.4469,3.3358,3.2384,3.1522,3.1135,3.0849,3.0593,3.0481,3.0452,3.0433,3.0427,3.0496,3.0618,3.0388,3.0867,3.1771,3.0892,3.1389,3.2718,3.2967,3.3062,3.3158,3.4006,3.4694,3.5209,4.6424,4.5931,4.5656,4.6475,4.6613,4.7096,4.8534,4.8844,4.9689,5.186,5.2239,0.0,0.0,0.0,0.0,0.0,0.0,5.2599,5.1969,0.0,4.8617,0.0,0.0,4.6432,0.0,0.0,4.5658,4.4005,4.4005,4.4097,4.4244,4.3388,4.3516,4.435,4.2718,4.2905,4.4313,4.2699,4.2943,4.4388,4.3613,4.2787,4.2042,0.0,4.1535,4.0835,4.0835,0.0,0.0,4.0795,4.126,0.0,0.0,0.0,0.0,0.0,0.0,0.0,0.0,0.0,0.0,4.1234,0.0,0.0,0.0,0.0,4.1109,0.0,0.0,0.0,0.0,0.0,0.0,4.1328,0.0,0.0,0.0,0.0,0.0,0.0,0.0,0.0,0.0,0.0,0.0,4.2315,4.1497,0.0,3.9805,3.8889,3.7974,3.7116,3.5402,3.4138,3.332,3.2344,3.1432,3.0593,3.0404,3.0308,3.0308,3.0241,3.0677,3.1415,3.0574,3.114,3.2585,3.1725,3.1897,3.2776,3.3624,3.3956,3.4071,3.4866,3.519,3.5209,4.6821,4.7046,4.708,4.6782,4.6218,4.631,4.7827,4.9009,5.0755,0.0,5.4429,0.0,0.0,5.6781,5.6073,0.0,0.0,5.3098,5.1382,5.0276,0.0,0.0,0.0,4.8678,0.0,0.0,0.0,0.0,4.4283,4.3803,4.3445,4.3131,4.2936,4.2849,4.2862,4.3182,4.3707,0.0,0.0,0.0,0.0,4.2618,4.2675,0.0,0.0,4.0021,4.0021,3.9833,0.0,4.0148,4.0346,4.0497,4.0997,4.1456,4.1731,4.1193,4.1339,0.0,0.0,0.0,4.1509,4.2429,0.0,0.0,0.0,0.0,0.0,0.0,0.0,0.0,0.0,0.0,4.2104,4.1244,0.0,0.0,0.0,0.0,0.0,0.0,0.0,0.0,0.0,0.0,0.0,4.2335,4.1011,4.0357,0.0,3.9822,3.8965,3.8088,3.6927,3.5636,3.4216,3.3192,3.2264,3.1383,3.0602,3.0241,3.0234,3.0213,3.0357,3.0624,3.0319,3.1159,3.2642,3.1801,3.2611,3.4323,3.4082,3.4331,3.4827,3.5095,3.5564,3.6137,4.7779,4.7961,4.7847,4.6994,4.6377,4.6385,4.7647,4.9697,0.0,0.0,5.5292,0.0,5.7561,0.0,5.6086,0.0,5.4466,5.3155,5.14,5.0557,0.0,5.0405,4.9856,0.0,0.0,0.0,0.0,0.0,0.0,4.4119,4.3463,4.315,4.2805,4.2492,4.305,4.3294,4.3351,4.4144,4.4501,0.0,0.0,4.2618,0.0,0.0,4.004,3.9984,0.0,3.9589,3.9614,3.9743,3.9837,3.9924,4.005,4.065,4.1178,4.0654,4.104,4.164,4.1637,4.1455,0.0,0.0,4.1949,0.0,4.1789,0.0,0.0,0.0,0.0,0.0,0.0,0.0,0.0,4.1294,4.1833,0.0,0.0,4.2649,0.0,0.0,0.0,0.0,0.0,0.0,4.3318,4.2392,4.1273,4.0769,0.0,0.0,3.9992,3.9446,3.858,3.7434,3.5969,3.4671,3.3427,3.2211,3.1188,3.0532,3.0226,3.0213,3.0538,3.1106,3.0791,3.1797,3.3563,3.2729,3.3505,3.519,3.4966,3.5207,3.566,3.566,3.6194,3.7005,0.0,4.8702,4.7953,4.7265,4.7047,0.0,0.0,0.0,5.2672,0.0,5.4796,5.6282,5.644,5.5112,5.4542,5.532,5.4033,5.2839,5.2014,5.1242,0.0,0.0,4.9365,4.8647,4.8415,0.0,0.0,0.0,0.0,4.4917,4.4281,4.3463,4.3142,4.3294,4.3332,4.3332,4.3351,4.4144,4.4501,4.4426,4.3613,4.2806,4.1967,4.1116,0.0,4.0685,3.989,3.9589,3.9589,3.9589,3.9738,3.9881,3.9881,4.0158,4.0473,4.0481,4.0631,4.079,4.0808,4.14,4.1858,4.1053,0.0,0.0,0.0,0.0,4.1093,0.0,0.0,0.0,0.0,0.0,0.0,4.1382,4.1825,0.0,0.0,0.0,0.0,0.0,0.0,0.0,0.0,4.5514,4.4941,4.2627,4.2206,4.1762,0.0,0.0,0.0,4.1093,4.0294,3.9408,3.8463,3.6699,3.4928,3.3188,3.2244,3.1353,3.0561,3.0445,3.1306,3.2816,3.1941,3.2985,3.5235,3.442,3.4569,3.5428,3.6241,3.6569,3.6557,3.6557,3.7043,3.7693,4.9661,4.9415,4.9249,0.0,4.7971,4.757,0.0,0.0,0.0,0.0,5.5714,5.6751,5.7377,5.6553,5.539,5.391,5.3447,0.0,0.0,0.0,0.0,5.1255,5.0253,4.9759,4.9991,4.8493,0.0,4.6197,0.0,4.4321,4.43,4.4061,4.3736,4.3332,4.3933,4.3857,4.3351,4.4144,4.4501,4.4426,4.3613,4.3163,0.0,0.0,4.0797,4.0685,3.989,3.9589,3.9589,3.9589,3.9638,3.9668,3.9668,3.9848,4.009,4.0233,4.0425,4.0605,4.0759,4.0964,4.1241,4.1658,4.146,4.1286,0.0,0.0,0.0,0.0,0.0,0.0,0.0,0.0,0.0,0.0,0.0,0.0,0.0,0.0,0.0,4.456,0.0,0.0,0.0,4.4874,4.3984,4.3265,4.2015,0.0,0.0,0.0,0.0,4.1126,4.0785,4.0217,3.9377,3.8116,3.6933,3.5804,3.4864,3.4314,3.4057,3.3391,3.3334,3.3724,3.2828,3.3576,3.5365,3.5143,3.5902,3.7228,3.7455,3.7499,3.7468,3.7415,3.7521,3.7693,5.0733,0.0,0.0,5.0768,0.0,0.0,4.9938,5.1287,0.0,5.4198,5.5659,0.0,5.5841,5.5367,5.4454,5.2822,5.2365,0.0,5.0943,0.0,0.0,5.185,5.0514,5.0124,5.093,4.8804,0.0,4.6494,0.0,4.4488,4.43,4.43,4.3736,4.2787,4.3956,4.3825,4.2806,4.3994,4.4501,4.4463,4.4008,0.0,0.0,4.1667,4.0891,4.0215,3.9758,3.9589,3.9589,3.9589,3.9589,3.9589,3.9589,3.975,3.9946,4.0148,4.0339,4.0534,4.0759,4.0797,4.0919,4.1421,4.1156,4.0939,4.1461,4.1232,4.0915,0.0,0.0,0.0,0.0,0.0,0.0,0.0,0.0,0.0,0.0,0.0,0.0,0.0,4.4901,0.0,0.0,0.0,4.3137,0.0,0.0,0.0,0.0,0.0,0.0,4.1089,4.1318,4.1042,4.0146,3.9538,3.8588,3.7301,3.6397,3.5777,3.5432,3.4918,3.488,3.5213,3.4693,3.5223,3.6485,3.6485,3.7053,3.7931,3.8295,3.8627,3.8795,3.8042,3.7729,3.7693,0.0,0.0,0.0,0.0,0.0,0.0,0.0,5.3032,0.0,5.3447,0.0,5.5806,5.3717,5.3324,5.292,5.229,0.0,5.1034,5.107,5.0731,5.1042,5.2186,5.043,4.9987,5.1194,4.8816,0.0,0.0,0.0,4.4842,4.43,4.43,4.3587,4.2399,4.3844,4.3694,0.0,4.3881,4.4501,4.4501,4.4501,4.3506,4.2004,4.2004,4.1004,3.9589,3.9589,3.9589,3.9589,3.9589,3.9589,3.9589,3.9589,3.9727,3.9914,4.0139,4.0321,4.0485,4.0597,4.0623,4.0603,4.0487,4.0544,4.0639,4.062,4.0762,4.0882,4.0887,4.1538,0.0,0.0,0.0,0.0,0.0,0.0,0.0,0.0,0.0,0.0,0.0,0.0,0.0,0.0,0.0,0.0,0.0,0.0,0.0,0.0,0.0,0.0,0.0,4.1707,0.0,4.1023,0.0,3.9933,3.8488,3.7603,3.6827,3.6154,3.5998,3.6325,3.7038,3.6853,3.7287,3.8078,3.8078,3.8151,3.8319,3.9021,3.964,3.998,3.8516,3.7936,3.7874,0.0,0.0,0.0,0.0,0.0,5.3857,5.3717,5.405,5.4261,5.4121,5.556,5.6227,5.5209,5.3945,5.3299,5.3549,5.2303,0.0,0.0,0.0,0.0,5.194,5.0376,4.9748,5.0321,4.7943,4.6643,0.0,0.0,0.0,4.43,4.43,4.4204,4.4069,4.4369,4.4332,4.4069,4.4369,0.0,4.4501,4.4501,4.3506,4.2004,4.2004,4.1004,3.9589,3.9589,3.9589,3.9589,3.9589,3.9589,3.9589,3.9589,3.9626,3.9708,4.009,4.0233,4.0177,3.9818,3.9733,3.9559,3.8837,3.9191,3.9725,3.9729,4.0294,4.0826,4.0819,4.098,4.1052,4.0752,0.0,0.0,0.0,0.0,0.0,0.0,0.0,0.0,0.0,0.0,0.0,0.0,0.0,0.0,0.0,0.0,0.0,0.0,0.0,0.0,0.0,0.0,0.0,0.0,0.0,0.0,4.1115,4.0239,3.9765,3.9611,3.8931,3.87,3.8796,3.8077,3.8243,3.9038,3.9038,3.9442,4.005,4.0204,3.9892,3.9353,3.9005,3.8867,3.8748,0.0,0.0,0.0,0.0,0.0,0.0,0.0,5.5464,0.0,5.4435,5.5199,5.537,5.4237,5.4011,5.3729,5.312,5.239,5.206,5.2299,5.1399,5.1198,5.1864,5.0153,0.0,5.008,4.7754,4.6525,4.6494,0.0,0.0,4.43,4.43,4.4148,4.3876,4.3876,4.412,0.0,0.0,0.0,4.3876,4.3876,4.2881,4.1392,4.1481,4.0788,3.9766,3.987,3.9914,3.9881,3.9668,3.9589,3.9589,3.9589,3.9589,3.9662,3.9967,3.9805,3.9505,3.9379,3.9091,3.8721,3.829,3.8856,3.9507,3.9499,4.0176,4.0802,4.0798,4.0839,4.0863,4.0883,4.0982,0.0,0.0,0.0,0.0,0.0,0.0,0.0,0.0,0.0,0.0,0.0,0.0,0.0,0.0,0.0,0.0,0.0,0.0,0.0,0.0,0.0,0.0,0.0,0.0,0.0,4.1123,4.0708,4.0496,4.0496,4.0092,3.9919,3.99,3.9477,3.9534,3.9919,3.9919,4.015,4.0496,4.0496,4.0511,4.0444,3.9953,4.0313,4.0766,0.0,5.5051,0.0,0.0,5.5829,0.0,5.6106,5.6844,5.6773,5.5107,5.5097,5.4818,5.3601,5.4048,5.3976,5.2799,5.2568,5.2431,5.2356,5.1529,5.1179,5.1492,5.0028,4.9409,4.9874,4.7744,4.6605,0.0,0.0,0.0,0.0,4.4329,0.0,0.0,0.0,0.0,0.0,0.0,4.4139,4.3557,4.3606,4.2616,4.1136,4.1366,4.084,3.9979,4.0148,4.0205,4.0158,3.9826,3.9738,3.9738,3.9738,3.9738,3.9766,3.9958,3.9519,3.8976,3.8981,3.8479,3.7883,3.7709,3.8315,3.8998,3.9172,3.9907,4.059,4.0763,4.0794,4.0884,4.1131,4.1083,0.0,0.0,0.0,0.0,0.0,0.0,0.0,0.0,0.0,0.0,0.0,0.0,0.0,0.0,0.0,0.0,0.0,0.0,0.0,0.0,0.0,0.0,4.2604,0.0,4.222,0.0,4.0689,4.0496,4.0496,4.0496,4.0496,4.0496,4.0496,4.0496,4.0496,4.0496,4.0496,4.0496,4.0496,4.0992,4.1643,4.092,4.171,4.2823,0.0,0.0,0.0,0.0,0.0,0.0,0.0,5.7677,5.7861,5.6946,5.6248,5.5785,5.5641,5.4424,5.3707,5.399,5.3396,5.2888,5.2603,5.2474,5.177,5.0341,5.0206,4.9867,4.9215,4.7546,4.6698,0.0,0.0,0.0,0.0,0.0,0.0,0.0,0.0,0.0,0.0,4.4501,4.4463,4.4397,4.4587,4.3653,4.2192,4.2443,4.1561,4.0177,4.0196,4.0205,4.0196,4.0158,4.0148,4.0148,4.0148,4.0148,4.0186,4.0381,3.9834,3.9046,3.8447,3.7665,3.6845,3.611,3.6535,3.7348,3.8135,3.8992,3.9849,4.0642,4.0802,4.1064,4.1921,4.1499,4.1513,0.0,0.0,0.0,0.0,0.0,0.0,0.0,0.0,0.0,0.0,0.0,0.0,0.0,0.0,0.0,0.0,0.0,0.0,4.3281,0.0,4.3794,4.5229,4.3028,0.0,4.2835,4.1247,4.0496,4.0496,4.0496,4.0496,4.0496,4.0496,4.0496,4.0496,4.0496,4.0496,4.0496,4.0496,4.1027,4.1761,4.1624,4.2663,4.4113,0.0,0.0,0.0,0.0,0.0,0.0,0.0,5.7671,5.7619,5.6894,5.6557,5.6007,5.4998,5.4591,5.4278,5.3981,5.3263,5.2769,5.2661,5.1749,5.0948,5.0311,4.9877,4.9484,4.9166,4.7585,4.6741,0.0,0.0,0.0,0.0,0.0,0.0,0.0,0.0,4.4501,4.4501,4.4501,4.4219,4.3753,4.3441,4.2609,4.1574,4.1437,4.0959,4.0408,4.0531,4.0561,4.0561,4.0561,4.0389,4.0205,4.0205,4.0205,4.0223,4.0295,3.9421,3.8365,3.8084,3.7128,3.6226,3.6381,3.7058,3.7909,3.8779,3.9655,4.0371,4.0739,4.0803,4.091,4.1288,4.1516,4.174,0.0,0.0,0.0,0.0,0.0,0.0,0.0,0.0,0.0,0.0,0.0,0.0,0.0,0.0,0.0,0.0,0.0,0.0,4.404,0.0,4.3643,4.4797,4.3816,4.3239,4.3085,4.1854,4.1277,4.1258,4.0746,4.0496,4.0535,4.1046,4.0969,4.0535,4.1066,4.0969,4.0554,4.1085,4.1816,4.2635,4.3092,4.3997,4.5015,5.8082,0.0,5.7216,0.0,5.7809,5.717,5.7594,5.7467,5.7039,5.6295,5.6277,5.5837,5.4635,5.4458,5.4149,5.3572,5.2772,5.2232,5.2044,5.0962,5.025,5.0056,4.9529,0.0,4.8875,4.7551,4.6705,4.6401,4.509,0.0,0.0,0.0,0.0,0.0,4.4501,4.4501,4.4501,4.4501,4.4199,4.3666,4.3038,4.2319,4.1606,4.1122,4.0795,4.0617,4.0739,4.0797,4.0797,4.0797,4.0605,4.0372,4.0372,4.0372,4.0372,4.0372,3.9427,3.8315,3.8057,3.7231,3.6516,3.6826,3.7555,3.8353,3.8972,3.9791,4.0487,4.0758,4.0797,4.0797,4.0797,4.1324,4.1653,0.0,0.0,0.0,0.0,0.0,0.0,0.0,4.0678,4.0795,3.947,0.0,0.0,0.0,0.0,0.0,0.0,0.0,0.0,0.0,0.0,0.0,0.0,0.0,4.4008,4.3431,4.2585,4.2181,4.2162,4.1546,4.1266,4.1304,4.1912,4.1835,4.1304,4.1931,4.1816,4.1343,4.195,4.2701,4.3528,4.409,4.483,4.5551,5.8779,5.8942,5.8984,5.8984,5.8331,5.7788,5.7788,5.7117,5.6295,5.5436,5.5324,5.5324,5.5286,5.3867,5.2915,5.2896,5.2112,5.1289,5.0486,5.0411,5.0038,0.0,0.0,4.8933,4.8131,4.738,4.658,4.5716,0.0,0.0,4.4501,0.0,4.4501,4.4501,4.4501,4.4501,4.4501,4.4501,4.4608,4.4737,4.4122,4.3522,4.2904,4.2239,4.1487,4.079,4.0797,4.0797,4.0797,4.0797,4.079,4.079,4.079,4.079,4.079,4.079,4.0172,3.9282,3.8425,3.8174,3.7961,3.7116,3.7555,3.8193,3.8212,3.8895,3.9752,4.0623,4.0797,4.0797,4.0797,4.0856,4.1181,4.2042,0.0,0.0,0.0,0.0,0.0,0.0,4.3878,4.3918,4.1324,0.0,0.0,0.0,0.0,0.0,0.0,0.0,0.0,4.4503,4.5197,0.0,4.5575,4.472,4.4297,4.4278,4.347,4.3085,4.3085,4.3066,4.3066,4.3066,4.3085,4.3085,4.3066,4.3085,4.3085,4.3066,4.3085,4.3585,4.4297,4.4297,4.4855,4.5729,5.7301,5.7359,5.7359,5.7359,5.7154,5.6818,5.6313,5.6014,5.5564,5.4793,5.4698,5.4698,5.4698,5.362,5.2671,0.0,5.1271,5.069,0.0,4.9952,4.9573,4.9412,4.8862,4.8427,4.8168,4.6828,4.5979,4.5697,0.0,0.0,0.0,4.4501,4.4573,4.4701,4.4701,4.4814,4.4969,4.4969,4.4996,4.4971,4.3762,4.3171,4.2874,4.164,4.1029,4.0797,4.0797,4.0797,4.0797,4.0797,4.0797,4.0797,4.0797,4.0797,4.0797,4.0797,4.0178,3.9443,3.9152,3.8644,3.8276,3.8586,3.8882,3.9249,3.9843,4.0197,4.0468,4.0739,4.0797,4.0797,4.0797,4.0827,4.0941,4.1315,0.0,0.0,0.0,0.0,0.0,0.0,0.0,4.1127,0.0,4.2045,0.0,0.0,0.0,0.0,0.0,0.0,0.0,0.0,4.4908,0.0,4.5594,4.5325,4.519,4.519,4.4316,4.3624,4.3104,4.3104,4.3104,4.3124,4.3682,4.3605,4.3143,4.3682,4.3585,4.3143,4.3701,4.4066,4.4374,4.4979,4.574,4.6528,5.6631,5.6687,5.6706,5.6706,5.6444,5.6069,5.5617,5.528,5.4809,5.4052,5.3939,5.3695,5.3076,5.245,0.0,5.1728,5.0698,5.0078,5.0108,4.9655,4.9409,4.9509,4.8664,4.8063,4.7763,0.0,0.0,4.5247,4.4745,4.4501,4.4501,4.4573,4.4694,4.48,4.4915,4.5041,4.5182,4.4857,4.4764,4.47,4.3133,4.2571,4.2487,4.128,4.0797,4.0797,4.0797,4.0797,4.0797,4.0797,4.0797,4.0797,4.0797,4.0797,4.0797,4.0797,4.041,3.9926,3.9597,3.9346,3.9224,3.9443,3.9752,4.0139,4.0681,4.0545,4.041,4.0739,4.0797,4.0797,4.0797,4.1048,4.128,4.1438,0.0,4.1439,0.0,0.0,0.0,0.0,0.0,0.0,0.0,4.2747,0.0,0.0,0.0,0.0,0.0,0.0,0.0,4.5594,4.5075,0.0,4.5594,4.5594,4.5594,4.5594,4.5056,4.4528,4.4028,4.4028,4.4028,4.4066,4.4566,4.4489,4.4085,4.4586,4.4489,4.4085,4.4586,4.4778,4.4855,4.5402,4.6144,4.6942,5.6537,5.6646,0.0,0.0,5.6061,0.0,5.5518,5.4878,5.4108,5.3318,5.3205,5.2585,5.097,5.0745,5.0992,5.1762,0.0,0.0,0.0,4.9471,4.9452,4.934,4.8551,0.0,4.6936,4.6054,4.5247,4.4501,4.451,4.451,4.4524,4.4739,4.4837,4.4861,4.5107,4.5194,4.5109,4.4276,4.401,4.4006,4.2374,4.1832,4.1912,4.1106,4.0797,4.0797,4.0797,4.0797,4.0797,4.0797,4.0797,4.0797,4.0797,4.0797,4.0797,4.0797,4.0797,4.0623,3.981,4.0178,4.0603,3.9791,4.0197,4.0797,4.0797,4.0178,3.981,4.0623,4.0797,4.0797,4.0797,4.1448,4.2036,4.2181,4.2202,4.2247,4.2383,0.0,0.0,0.0,0.0,0.0,0.0,4.499,4.5029,0.0,0.0,0.0,0.0,0.0,4.5594,4.5594,4.5594,4.5594,4.5594,4.5594,4.5594,4.5594,4.5594,4.5594,4.5594,4.5594,4.5594,4.5594,4.5594,4.5594,4.5594,4.5594,4.5594,4.5594,4.5594,4.5633,4.5691,4.5691,4.6278,4.7173,0.0,0.0,5.4991,5.4991,5.4822,5.469,5.469,5.4521,5.4108,5.3318,5.3205,5.2811,5.1724,5.1067,5.0782,5.0954,5.0072,4.9227,4.8551,4.9133,4.8927,4.765,4.7387,4.688,4.6035,4.5209,4.4688,4.4501,4.4655,4.4739,4.472,4.4985,4.5192,4.5333,4.5399,4.5171,4.4735,4.4523,4.4083,4.3424,4.2361,4.1957,4.1912,4.1106,4.0797,4.0797,4.0797,4.0797,4.0797,4.0797,4.0797,4.0797,4.0797,4.0797,4.0797,4.0797,4.0797,4.0758,4.0545,4.0642,4.0758,4.0545,4.0642,4.0797,4.0797,4.0642,4.0545,4.0758,4.0797,4.0797,4.0797,4.1448,4.2036,4.2181,4.2202,4.2244,4.2382,0.0,0.0,0.0,4.3301,4.4036,4.4914,4.499,4.5285,0.0,0.0,0.0,0.0,0.0,4.5594,4.5594,4.5594,4.5594,4.5594,4.5594,4.5594,4.5594,4.5594,4.5594,4.5594,4.5594,4.5594,4.5594,4.5594,4.5594,4.5594,4.5594,4.5594,4.5594,4.5594,4.6009,4.6586,4.6586,4.7528,4.8836,5.4409,5.4409,5.4409,5.4409,5.4409,5.4409,5.4409,5.4409,5.3977,5.2757,5.2606,5.2137,5.0935,5.041,5.0147,5.0147,4.9396,4.8701,4.8232,4.8307,4.795,4.7049,4.6617,4.6186,4.5716,4.4909,4.4551,4.4648,4.4868,4.4985,4.4977,4.4822,4.5006,4.5479,4.4804,4.4542,4.4555,4.375,4.315,4.2628,4.1796,4.1448,4.139,4.0971,4.0797,4.0797,4.0797,4.0797,4.0797,4.0797,4.0797,4.0797,4.0797,4.0797,4.0797,4.0797,4.0797,4.0797,4.0797,4.0797,4.0797,4.0797,4.0797,4.0797,4.0797,4.0797,4.0797,4.0797,4.0797,4.0913,4.1274,4.2065,4.2805,4.3318,4.3418,4.3461,4.3574,4.3259,0.0,4.3544,4.4004,4.4641,4.5519,4.5597,4.5792,4.6261,0.0,0.0,4.5905,4.5768,4.566,4.5594,4.5594,4.5594,4.5594,4.5594,4.5594,4.5594,4.5594,4.5594,4.5594,4.5594,4.5594,4.5594,4.5594,4.5594,4.5594,4.5594,4.5594,4.5594,4.5594,4.6124,4.6904,4.6904,4.7721,4.8856,5.4409,5.4409,5.4409,5.4409,5.4409,5.4409,5.4409,5.4296,5.3658,5.21,5.1799,5.1161,4.9659,4.9509,4.9509,4.9509,4.8615,4.8051,4.8022,4.7525,4.707,4.6675,4.6097,4.5749,4.563,4.4958,4.4681,4.4849,4.5118,4.5176,4.5042,4.4514,4.4589,4.5117,4.3861,4.3634,4.411,4.2628,4.1932,4.1757,4.1087,4.0797,4.0797,4.0797,4.0797,4.0797,4.0797,4.0797,4.0797,4.0797,4.0797,4.0797,4.0797,4.0797,4.0797,4.0797,4.0797,4.0797,4.0797,4.0797,4.0797,4.0797,4.0797,4.0797,4.0797,4.0797,4.0797,4.0797,4.0797,4.1054,4.1866,4.2773,4.3713,4.467,4.4853,4.4927,4.4999,0.0,4.417,4.4906,4.5114,4.55,4.6222,4.63,4.6298,4.6273,4.6144,0.0,0.0,4.5809,4.5731,4.5594,4.5594,4.5594,4.5594,4.5594,4.5594,4.5594,4.5594,4.5594,4.5594,4.5594,4.5594,4.5594,4.5594,4.5594,4.5614,4.5748,4.5729,4.5633,4.5883,4.6432,4.7096,4.724,4.7798,4.8606,5.4409,5.4409,5.4409,5.4409,5.4409,5.4409,5.4409,5.3808,5.3036,5.2024,5.1311,5.0522,4.9602,4.9509,4.9509,4.9509,4.8244,4.7362,4.7195,4.7919,4.7394,4.5237,4.5881,4.5967,4.5284,4.5151,4.5115,4.5148,4.5352,4.508,4.435,4.4492,4.4218,4.3638,4.3407,4.2976,4.2396,4.2106,4.1603,4.099,4.0855,4.0797,4.0797,4.0797,4.0797,4.0797,4.0797,4.0797,4.0797,4.0797,4.0797,4.0797,4.0797,4.0797,4.0797,4.0797,4.0797,4.0797,4.0797,4.0797,4.0797,4.0797,4.0797,4.0797,4.0797,4.0797,4.0797,4.0797,4.0797,4.1065,4.1927,4.2811,4.3735,4.4723,4.4893,4.4927,0.0,0.0,4.4855,4.4984,4.5641,4.6144,4.628,4.63,4.6247,4.6141,4.6005,4.5897,4.5828,4.5688,4.562,4.5594,4.5594,4.5594,4.5594,4.5594,4.5594,4.5594,4.5594,4.5594,4.5594,4.5594,4.5594,4.5594,4.5594,4.5594,4.5671,4.6394,4.6259,4.5748,4.7163,4.7798,4.8009,4.874,4.9548,5.0327,5.4315,5.4409,5.4409,5.4409,5.4033,5.375,5.375,5.3038,5.2193,5.1367,5.0917,5.0431,4.973,4.965,4.9722,4.9855,4.9246,4.8643,4.8112,4.725,4.6244,4.5076,4.55,4.5573,4.5201,4.5323,4.5362,4.5362,4.5549,4.5225,4.4415,4.4063,4.3692,4.3266,4.2357,4.197,4.197,4.1545,4.1145,4.0797,4.0797,4.0797,4.0797,4.0797,4.0797,4.0797,4.0797,4.0797,4.0797,4.0797,4.0797,4.0797,4.0797,4.0797,4.0797,4.0797,4.0797,4.0797,4.0797,4.0797,4.0797,4.0797,4.0797,4.0797,4.0797,4.0825,4.0856,4.0856,4.1233,4.1814,4.2692,4.3594,4.4518,4.5459,4.5635,0.0,0.0,4.5695,4.5709,4.5701,4.6069,4.63,4.63,4.63,4.6243,4.6105,4.5983,4.5869,4.5794,4.5668,4.5594,4.5594,4.5594,4.5594,4.5594,4.5594,4.5594,4.5594,4.5594,4.5594,4.5594,4.5594,4.5594,4.5594,4.5594,4.5594,4.5671,4.6547,4.6663,4.6413,4.7625,4.8394,4.8856,4.924,4.9644,5.0067,5.424,5.4409,5.4409,5.4409,5.3714,5.3222,5.3266,5.2381,5.1509,5.0926,5.0696,5.0406,4.994,4.9891,4.9987,5.0183,5.0061,4.9731,4.9103,4.7115,4.5908,4.5876,4.5716,4.564,4.564,4.5577,4.5577,4.5577,4.573,4.5394,4.4594,4.3924,4.3498,4.3247,4.1951,4.1719,4.2241,4.1429,4.1087,4.1067,4.0874,4.0797,4.0797,4.0797,4.0797,4.0797,4.0797,4.0913,4.1087,4.1087,4.1222,4.1358,4.1145,4.1087,4.1048,4.0855,4.0932,4.1048,4.0855,4.0797,4.0797,4.0797,4.0797,4.0842,4.1071,4.1144,4.1247,4.1464,4.2031,4.2776,4.3668,4.4411,4.5195,4.6079,0.0,0.0,0.0,4.6296,4.629,4.6302,4.63,4.63,4.63,4.63,4.6243,4.6105,4.5983,4.5869,4.5794,4.5668,4.5594,4.5594,4.5594,4.5594,4.5594,4.5594,4.5594,4.5594,4.5594,4.5594,4.5594,4.5594,4.5594,4.5594,4.5594,4.571,4.597,4.6836,4.7173,4.7278,4.8317,4.899,4.9413,4.9625,4.9702,4.9798,5.424,5.4409,5.4409,5.4409,5.3714,5.3266,5.3452,5.2153,5.1204,5.1319,5.0689,5.0224,5.0171,5.0171,5.0183,5.0195,4.9697,4.9327,4.9279,4.8574,4.8078,4.7894,4.729,4.697,4.697,4.6184,4.5786,4.5786,4.58,4.5394,4.4594,4.4536,4.4072,4.3285,4.3169,4.315,4.315,4.228,4.1912,4.1854,4.1106,4.0797,4.0797,4.0797,4.0797,4.0797,4.0797,4.1274,4.1912,4.1912,4.2454,4.2976,4.2164,4.1912,4.1777,4.1029,4.1332,4.1757,4.1009,4.0797,4.0797,4.0797,4.0797,4.1001,4.182,4.2,4.2265,4.3123,4.3358,4.3691,4.4616,4.4859,4.5203,4.6133,0.0,0.0,4.6295,4.6293,4.629,4.6302,4.63,4.63,4.63,4.63,4.6243,4.6105,4.5983,4.5869,4.5794,4.5668,4.5594,4.5594,4.5594,4.5594,4.5594,4.5594,4.5594,4.5594,4.5594,4.5594,4.5594,4.5594,4.5594,4.5594,4.5594,4.6067,4.6874,4.7682,4.8009,4.8182,4.9856,5.0048,4.949,5.0308,5.0596,5.0616,5.4491,5.4791,5.4734,5.4173,5.3428,5.2729,5.2271,5.1256,5.0563,5.0641,5.0386,5.0264,5.0425,5.0446,5.0498,5.0625,5.0417,5.0278,5.0278,5.0074,4.9444,4.8326,4.8033,4.7908,4.7908,4.7038,4.6619,4.6619,4.6058,4.5394,4.4594,4.4594,4.413,4.3305,4.3305,4.3305,4.3285,4.2957,4.2492,4.197,4.1661,4.1545,4.1487,4.099,4.1448,4.228,4.1738,4.2086,4.2802,4.2802,4.3034,4.3247,4.2918,4.2802,4.2744,4.2434,4.257,4.2744,4.248,4.2387,4.2222,4.1737,4.2011,4.2378,4.2206,4.2614,4.3136,4.3487,4.4037,4.454,4.4898,4.5408,4.5879,4.6249,0.0,4.6299,4.6294,4.6308,4.6305,4.6302,4.63,4.63,4.63,4.63,4.6211,4.5992,4.5925,4.5834,4.5673,4.5629,4.5594,4.5594,4.5594,4.5594,4.5594,4.5594,4.5594,4.5594,4.5594,4.5594,4.5594,4.5594,4.5594,4.5594,4.5594,4.5787,4.6201,4.7548,4.8105,4.8279,5.001,5.05,5.025,5.0577,5.0712,5.0712,5.4368,5.489,5.4925,5.404,5.3232,5.2428,5.1645,5.0845,5.0342,5.0417,5.0427,5.0479,5.0663,5.0681,5.0754,5.089,5.0898,5.0898,5.0898,5.0898,5.0395,4.9243,4.8933,4.8817,4.8817,4.7947,4.7502,4.7502,4.6639,4.5935,4.5374,4.5104,4.4659,4.4098,4.4098,4.4098,4.4078,4.3827,4.3363,4.2783,4.2512,4.2415,4.2357,4.1796,4.2299,4.3227,4.2628,4.2976,4.3711,4.3711,4.3885,4.404,4.3788,4.3518,4.3305,4.3305,4.3512,4.3755,4.3806,4.3989,4.3915,4.2801,4.2998,4.3358,4.31,4.3552,4.4082,4.4385,4.496,4.541,4.5409,4.5897,4.6305,4.6304,4.6299,4.6293,4.6309,4.6305,4.63,4.63,4.63,4.6417,4.6671,4.6679,4.6579,4.6372,4.6297,4.6054,4.5631,4.5594,4.5594,4.5594,4.5594,4.5594,4.5594,4.5594,4.5594,4.5594,4.5883,4.6009,4.6009,4.6259,4.6394,4.6394,4.6394,4.6528,4.6883,4.8029,4.8663,4.9048,5.0231,5.0712,5.0712,5.0712,5.0712,5.0712,5.3735,5.46,5.4906,5.404,5.3232,5.2487,5.1891,5.1115,5.0663,5.0874,5.0898,5.0898,5.0898,5.0898,5.0898,5.0898,5.0898,5.0898,5.0898,5.0898,5.0898,5.0898,5.0152,4.9707,4.9707,4.8856,4.8411,4.8411,4.754,4.7115,4.7076,4.6213,4.5807,4.5807,4.5807,4.5807,4.5749,4.4949,4.4613,4.4516,4.3653,4.3305,4.3305,4.3305,4.3305,4.3324,4.3305,4.3866,4.4613,4.4613,4.5142,4.5671,4.4852,4.402,4.3324,4.3324,4.3986,4.4715,4.472,4.5397,4.5673,4.3945,4.3517,4.3769,4.4697,4.4901,4.5183,4.6113,4.6307,4.6306,4.6302,4.6301,4.63,4.6294,4.6293,4.629,4.6302,4.63,4.63,4.63,4.63,4.6632,4.7528,4.7479,4.74,4.7404,4.713,4.6596,4.5661,4.5614,4.5614,4.5614,4.5614,4.5614,4.5614,4.5594,4.5594,4.5614,4.649,4.6904,4.6923,4.774,4.8105,4.8105,4.8105,4.8586,4.9394,4.9394,4.9913,5.0693,5.0712,5.0712,5.0712,5.0712,5.0712,5.0712,5.3278,5.3704,5.3735,5.2858,5.252,5.2076,5.129,5.0951,5.0822,5.089,5.0898,5.0898,5.0898,5.0898,5.0898,5.0898,5.0898,5.0898,5.0898,5.0898,5.0898,5.0898,5.0666,5.0531,5.0531,4.9726,4.932,4.932,4.843,4.7695,4.7096,4.6825,4.6387,4.5807,4.5807,4.5807,4.5787,4.5529,4.5123,4.4574,4.4323,4.4207,4.4149,4.3537,4.402,4.4968,4.4407,4.4769,4.5505,4.5465,4.5628,4.5822,4.5589,4.5378,4.5191,4.5191,4.544,4.5686,4.575,4.5962,4.5892,4.4774,4.4948,4.5311,4.5039,4.5449,4.5956,4.6246,4.6304,4.6303,4.6301,4.6299,4.6295,4.6294,4.6308,4.6303,4.6302,4.63,4.63,4.63,4.63,4.6632,4.7528,4.7479,4.7358,4.7276,4.6498,4.6166,4.649,4.6509,4.6509,4.6509,4.7067,4.7086,4.6528,4.5913,4.5594,4.5614,4.649,4.6904,4.6923,4.774,4.8105,4.8105,4.8105,4.8259,4.8548,4.9144,4.9548,4.9856,5.0462,5.0712,5.0712,5.0712,5.0712,5.0712,5.2742,5.3151,5.3227,5.2345,5.221,5.2008,5.1486,5.1111,5.1014,5.137,5.1111,5.0898,5.0898,5.0898,5.0898,5.0898,5.0898,5.0898,5.0898,5.0898,5.0898,5.0898,5.0898,5.0898,5.0898,5.0415,5.0163,5.0163,4.9339,4.8469,4.7599,4.725,4.6631,4.5807,4.5807,4.5807,4.5807,4.5807,4.551,4.5084,4.5098,4.5105,4.5066,4.4525,4.4957,4.579,4.528,4.5454,4.5893,4.5854,4.5874,4.5898,4.5931,4.5969,4.6005,4.6041,4.6098,4.6144,4.6181,4.6228,4.6113,4.5585,4.5858,4.6113,4.5621,4.5911,4.6301,4.6299,4.6299,4.6297,4.6295,4.6291,4.6308,4.6308,4.6303,4.6417,4.6768,4.6807,4.6924,4.7256,4.7295,4.7627,4.8504,4.8139,4.7757,4.7565,4.6965,4.6817,4.7355,4.7375,4.7375,4.7375,4.7855,4.7875,4.7394,4.6855,4.6586,4.6605,4.7471,4.7894,4.7913,4.8759,4.9125,4.9125,4.9125,4.9125,4.9163,4.9702,4.9913,4.9971,5.05,5.0712,5.0712,5.0712,5.0712,5.0712,5.2066,5.2724,5.3014,5.2221,5.2152,5.221,5.221,5.1583,5.1389,5.2113,5.1505,5.0995,5.0917,5.0898,5.0898,5.0898,5.0898,5.0898,5.0898,5.0898,5.0898,5.0898,5.0898,5.0898,5.0898,5.0898,5.0898,5.0898,5.0171,4.9359,4.8508,4.7618,4.6748,4.5904,4.5826,4.5807,4.5807,4.5807,4.5807,4.5814,4.5886,4.59,4.5906,4.5899,4.5911,4.5911,4.5911,4.5892,4.5917,4.591,4.5916,4.5933,4.6007,4.6021,4.6022,4.6086,4.617,4.6207,4.6207,4.625,4.63,4.6294,4.6355,4.6398,4.632,4.6359,4.6396,4.6313,4.6428,4.6505,4.6438,4.6475,4.6515,4.6515,4.6515,4.6807,4.7606,4.7703,4.7978,4.8701,4.8798,4.9148,5.0002,4.9175,4.8496,4.8248,4.8144,4.8125,4.8221,4.8221,4.8221,4.8221,4.8298,4.8298,4.8221,4.8298,4.8259,4.8105,4.8971,4.9394,4.9433,5.0308,5.0712,5.0712,5.0712,5.0712,5.0712,5.0712,5.0712,5.0712,5.0712,5.0712,5.0712,5.0712,5.0712,5.0712,5.1169,5.1323,5.1401,5.1207,5.1757,5.221,5.221,5.2608,5.2763,5.2268,5.2028,5.166,5.0975,5.0898,5.0898,5.0898,5.0898,5.0898,5.0898,5.0898,5.0898,5.0898,5.0898,5.0898,5.0898,5.0898,5.0898,5.0898,5.0724,5.0221,4.9397,4.8527,4.7657,4.6786,4.6097,4.5807,4.5807,4.5807,4.5821,4.5886,4.5893,4.5893,4.5899,4.5905,4.5911,4.5911,4.5911,4.5923,4.5983,4.6031,4.6067,4.6072,4.6142,4.6165,4.6165,4.6168,4.623,4.6277,4.6277,4.6291,4.6305,4.6303,4.6811,4.7144,4.6463,4.6832,4.7125,4.644,4.7338,4.8078,4.7432,4.7822,4.8252,4.8252,4.8252,4.831,4.8505,4.8545,4.8603,4.8779,4.8798,4.9096,4.9868,4.9596,4.9297,4.9124,4.849,4.8394,4.9086,4.9125,4.9125,4.9125,4.9779,4.9798,4.9125,4.9798,4.9452,4.8105,4.8971,4.9394,4.9433,5.0308,5.0712,5.0712,5.0712,5.0712,5.0712,5.0712,5.0712,5.0712,5.0712,5.0712,5.0712,5.0712,5.0712,5.0712,5.0898,5.0898,5.0898,5.0898,5.1621,5.2345,5.2763,5.284,5.2859,5.2821,5.2105,5.1409,5.0956,5.0898,5.0898,5.0898,5.0898,5.0898,5.0898,5.0898,5.0898,5.0898,5.0898,5.0898,5.0898,5.0898,5.0898,5.0898,5.0898,5.0492,4.9687,4.8817,4.8159,4.7676,4.6401,4.6086,4.6434,4.6022,4.5867,4.5906,4.5918,4.5956,4.5955,4.5947,4.5953,4.5953,4.5953,4.5982,4.6046,4.6084,4.6115,4.6147,4.6195,4.6209,4.6211,4.6246,4.6274,4.6397,4.6807,4.6924,4.7002,4.7393,4.7842,4.7959,4.712,4.7569,4.8037,4.7588,4.8193,4.8662,4.8252,4.8525,4.8798,4.8798,4.8798,4.8954,4.9364,4.9423,4.9579,4.9989,5.0048,4.9981,4.9852,5.008,4.9992,4.9432,4.9356,4.9529,4.999,5.001,5.001,5.001,5.0462,5.0481,5.001,5.0481,5.025,4.9356,4.9798,5.001,5.0029,5.05,5.0712,5.0712,5.0712,5.0712,5.0712,5.0712,5.0712,5.0712,5.0712,5.0712,5.0712,5.0712,5.0712,5.0712,5.0898,5.1014,5.1111,5.1111,5.197,5.2879,5.3614,5.3111,5.284,5.342,5.2105,5.1072,5.0917,5.0898,5.0898,5.0898,5.0898,5.0898,5.0898,5.0898,5.0898,5.0898,5.0898,5.0898,5.0898,5.0898,5.0898,5.0898,5.0898,5.0558,4.9908,4.8882,4.8406,4.8336,4.6648,4.6293,4.6933,4.6209,4.5911,4.5917,4.5986,4.5997,4.6008,4.5991,4.6002,4.6002,4.6003,4.6052,4.6118,4.6111,4.6145,4.6196,4.6211,4.623,4.6228,4.6288,4.6417,4.6671,4.7391,4.7703,4.7978,4.8623,4.8915,4.8857,4.8172,4.8545,4.8974,4.8837,4.9032,4.9208,4.9052,4.915,4.9247,4.9247,4.9247,4.9501,5.0221,5.0319,5.0592,5.1316,5.136,5.0972,5.0076,5.0521,5.0518,4.9682,5.0289,5.0712,5.0712,5.0712,5.0712,5.0712,5.0712,5.0712,5.0712,5.0712,5.0712,5.0712,5.0712,5.0712,5.0712,5.0712,5.0712,5.0712,5.0712,5.0712,5.0712,5.0712,5.0712,5.0712,5.0712,5.0712,5.0712,5.0712,5.0712,5.0731,5.0898,5.1505,5.2008,5.2008,5.3362,5.4484,5.46,5.4523,5.4213,5.3575,5.2627,5.1738,5.0975,5.0898,5.0898,5.0898,5.0898,5.0898,5.0898,5.0898,5.0898,5.0898,5.0898,5.0898,5.0898,5.0898,5.0898,5.0898,5.0898,5.0863,5.0785,4.9158,4.8437,4.8406,4.6674,4.5963,4.608,4.5944,4.5923,4.5991,4.5997,4.5994,4.5997,4.5997,4.6002,4.6012,4.608,4.6131,4.6181,4.6185,4.619,4.6211,4.6277,4.6288,4.6287,4.6302,4.6827,4.745,4.7567,4.8115,4.8662,4.8779,4.9364,4.9909,4.9792,4.985,4.9714,4.8954,5.0008,5.0828,5.0065,5.0535,5.1043,5.1043,5.1043,5.1082,5.1219,5.1219,5.1277,5.1394,5.1199,5.0963,5.0773,5.0733,5.0664,5.0539,5.0635,5.0712,5.0712,5.0712,5.0712,5.0712,5.0712,5.0712,5.0712,5.0712,5.0712,5.0712,5.0712,5.0712,5.0712,5.0712,5.0712,5.0712,5.0712,5.0712,5.0712,5.0712,5.0712,5.0712,5.0712,5.0712,5.0712,5.0712,5.0712,5.0808,5.1525,5.1931,5.2345,5.284,5.3556,5.4078,5.4078,5.3652,5.3207,5.2821,5.2008,5.1331,5.0937,5.0898,5.0898,5.0898,5.0898,5.0898,5.0898,5.0898,5.0898,5.0898,5.0898,5.0898,5.0898,5.0948,5.0956,5.0956,5.0956,5.0971,5.0966,4.9245,4.8735,4.9123,4.6938,4.6226,4.6653,4.6166,4.5969,4.6,4.6,4.6011,4.6007,4.6046,4.6063,4.6056,4.6134,4.6163,4.6206,4.6191,4.6229,4.6357,4.6851,4.7022,4.712,4.7569,4.7978,4.8388,4.8855,4.9265,4.9638,5.0126,5.0535,5.0828,5.0828,5.0828,5.0711,5.0321,5.0867,5.1277,5.0906,5.1141,5.155,5.2058,5.1726,5.157,5.2058,5.1707,5.1559,5.1973,5.1383,5.1116,5.1533,5.1036,5.0712,5.0712,5.0712,5.0712,5.0712,5.0712,5.0712,5.0712,5.0712,5.0712,5.0712,5.0712,5.0712,5.0712,5.1164,5.1125,5.0712,5.0712,5.0712,5.0712,5.0712,5.0712,5.0712,5.0712,5.0712,5.0712,5.0712,5.0712,5.075,5.1202,5.1375,5.1491]}]]